[[{"header":{"parameterUnit":"m.s-1","parameterCategory":1,"la1":31.0,"la2":29.5877,"lo1":-88.7671,"lo2":-86.6584,"dy":0.0162,"dx":0.0185,"nx":115,"ny":88,"refTime":"2023-06-30T06:00:00:Z","depth":0,"parameterNumber":2,"parameterNumberName":"U-component_of_WINDS"},"data":[0.0,0.0,0.0,0.0,0.0,0.0,0.0,0.0,0.0,0.0,0.0,0.0,0.0,0.0,0.0,0.0,0.0,0.0,0.0,0.0,0.0,0.0,0.0,0.0,0.0,0.0,0.0,0.0,0.0,0.0,0.0,0.0,0.0,0.0,0.0,0.0,0.0,0.0,0.0,0.0,0.0,0.0,0.0,0.0,0.0,0.0,0.0,0.0,0.0,0.0,0.0,0.0,0.0,0.0,0.0,0.0,0.0,0.0,0.0,0.0,0.0,0.0,0.0,0.0,0.0,0.0,0.0,0.0,0.0,0.0,0.0,0.0,0.0,0.0,0.0,0.0,0.0,0.0,0.0,0.0,0.0,0.0,0.0,0.0,0.0,0.0,0.0,0.0,0.0,0.0,0.0,0.0,0.0,0.0,0.0,0.0,0.0,0.0,0.0,0.0,0.0,0.0,0.0,0.0,0.0,0.0,0.0,0.0,0.0,0.0,0.0,0.0,0.0,0.0,0.0,0.0,0.0,0.0,0.0,0.0,0.0,0.0,0.0,0.0,0.0,0.0,0.0,0.0,0.0,0.0,0.0,0.0,0.0,0.0,0.0,0.0,0.0,0.0,0.0,0.0,0.0,0.0,0.0,0.0,0.0,0.0,0.0,0.0,0.0,0.0,0.0,0.0,0.0,0.0,0.0,0.0,0.0,0.0,0.0,0.0,0.0,0.0,0.0,0.0,0.0,0.0,0.0,0.0,0.0,0.0,0.0,0.0,0.0,0.0,0.0,0.0,0.0,0.0,0.0,0.0,0.0,0.0,0.0,0.0,0.0,0.0,0.0,0.0,0.0,0.0,0.0,0.0,0.0,0.0,0.0,0.0,0.0,0.0,0.0,0.0,0.0,0.0,0.0,0.0,0.0,0.0,0.0,0.0,0.0,0.0,0.0,0.0,0.0,0.0,0.0,0.0,0.0,0.0,0.0,0.0,0.0,0.0,0.0,0.0,0.0,0.0,0.0,0.0,0.0,0.0,0.0,0.0,0.0,0.0,0.0,0.0,0.0,0.0,0.0,0.0,0.0,0.0,0.0,0.0,0.0,0.0,0.0,0.0,0.0,0.0,0.0,0.0,0.0,0.0,0.0,0.0,0.0,0.0,0.0,0.0,0.0,0.0,0.0,0.0,0.0,0.0,0.0,0.0,0.0,0.0,0.0,0.0,0.0,0.0,0.0,0.0,0.0,0.0,0.0,0.0,0.0,0.0,0.0,0.0,0.0,0.0,0.0,0.0,0.0,0.0,0.0,0.0,0.0,0.0,0.0,0.0,0.0,0.0,0.0,0.0,0.0,0.0,0.0,0.0,0.0,0.0,0.0,0.0,0.0,0.0,0.0,0.0,0.0,0.0,0.0,0.0,0.0,0.0,0.0,0.0,0.0,0.0,0.0,0.0,0.0,0.0,0.0,0.0,0.0,0.0,0.0,0.0,0.0,0.0,0.0,0.0,0.0,0.0,0.0,0.0,0.0,0.0,0.0,0.0,0.0,0.0,0.0,0.0,0.0,0.0,0.0,0.0,0.0,0.0,0.0,0.0,0.0,0.0,0.0,0.0,0.0,0.0,0.0,0.0,0.0,0.0,0.0,0.0,0.0,0.0,0.0,0.0,0.0,0.0,0.0,0.0,0.0,0.0,0.0,0.0,0.0,0.0,0.0,0.0,0.0,0.0,0.0,0.0,0.0,0.0,0.0,0.0,0.0,0.0,0.0,0.0,0.0,0.0,0.0,0.0,0.0,0.0,0.0,0.0,0.0,0.0,0.0,0.0,0.0,0.0,0.0,0.0,0.0,0.0,0.0,0.0,0.0,0.0,0.0,0.0,0.0,0.0,0.0,0.0,0.0,0.0,0.0,0.0,0.0,0.0,0.0,0.0,0.0,0.0,0.0,0.0,0.0,0.0,0.0,0.0,0.0,0.0,0.0,0.0,0.0,0.0,0.0,0.0,0.0,0.0,0.0,0.0,0.0,0.0,0.0,0.0,0.0,0.0,0.0,0.0,0.0,0.0,0.0,0.0,0.0,0.0,0.0,0.0,0.0,0.0,0.0,0.0,0.0,0.0,0.0,0.0,0.0,0.0,0.0,0.0,0.0,0.0,0.0,0.0,0.0,0.0,0.0,0.0,0.0,0.0,0.0,0.0,0.0,0.0,0.0,0.0,0.0,0.0,0.0,0.0,0.0,0.0,0.0,0.0,0.0,0.0,0.0,0.0,0.0,0.0,0.0,0.0,0.0,0.0,0.0,0.0,0.0,0.0,0.0,0.0,0.0,0.0,0.0,0.0,0.0,0.0,0.0,0.0,0.0,0.0,0.0,0.0,0.0,0.0,0.0,0.0,0.0,0.0,0.0,0.0,0.0,0.0,0.0,0.0,0.0,0.0,0.0,0.0,0.0,0.0,0.0,0.0,0.0,0.0,0.0,0.0,0.0,0.0,0.0,0.0,0.0,0.0,0.0,0.0,0.0,0.0,0.0,0.0,0.0,0.0,0.0,0.0,0.0,0.0,0.0,0.0,0.0,0.0,0.0,0.0,0.0,0.0,0.0,0.0,0.0,0.0,0.0,0.0,0.0,0.0,0.0,0.0,0.0,0.0,0.0,0.0,0.0,0.0,0.0,0.0,0.0,0.0,0.0,0.0,0.0,0.0,0.0,0.0,0.0,0.0,0.0,0.0,0.0,0.0,0.0,0.0,0.0,0.0,0.0,0.0,0.0,0.0,0.0,0.0,0.0,0.0,0.0,0.0,0.0,0.0,0.0,0.0,0.0,0.0,0.0,0.0,0.0,0.0,0.0,0.0,0.0,0.0,0.0,0.0,0.0,0.0,0.0,0.0,0.0,0.0,0.0,0.0,0.0,0.0,0.0,0.0,0.0,0.0,0.0,0.0,0.0,0.0,0.0,0.0,0.0,0.0,0.0,0.0,0.0,0.0,0.0,0.0,0.0,0.0,0.0,0.0,0.0,0.0,0.0,0.0,0.0,0.0,0.0,0.0,0.0,0.0,0.0,0.0,0.0,0.0,0.0,0.0,0.0,0.0,0.0,0.0,0.0,0.0,0.0,0.0,0.0,0.0,0.0,0.0,0.0,0.0,0.0,0.0,0.0,0.0,0.0,0.0,0.0,0.0,0.0,0.0,0.0,0.0,0.0,0.0,0.0,0.0,0.0,0.0,0.0,0.0,0.0,0.0,0.0,0.0,0.0,0.0,0.0,0.0,0.0,0.0,0.0,0.0,0.0,0.0,0.0,0.0,0.0,0.0,0.0,0.0,0.0,0.0,0.0,0.0,0.0,0.0,0.0,0.0,0.0,0.0,0.0,0.0,0.0,0.0,0.0,0.0,0.0,0.0,0.0,0.0,0.0,0.0,0.0,0.0,0.0,0.0,0.0,0.0,0.0,0.0,0.0,0.0,0.0,0.0,0.0,0.0,0.0,0.0,0.0,0.0,0.0,0.0,0.0,0.0,0.0,0.0,0.0,0.0,0.0,0.0,0.0,0.0,0.0,0.0,0.0,0.0,0.0,0.0,0.0,0.0,0.0,0.0,0.0,0.0,0.0,0.0,0.0,0.0,0.0,0.0,0.0,0.0,0.0,0.0,0.0,0.0,0.0,0.0,0.0,0.0,0.0,0.0,0.0,0.0,0.0,0.0,0.0,0.0,0.0,0.0,0.0,0.0,0.0,0.0,0.0,0.0,0.0,0.0,0.0,0.0,0.0,0.0,0.0,0.0,0.0,0.0,0.0,0.0,0.0,0.0,0.0,0.0,0.0,0.0,0.0,0.0,0.0,0.0,0.0,0.0,0.0,0.0,0.0,0.0,0.0,0.0,0.0,0.0,0.0,0.0,0.0,0.0,0.0,0.0,0.0,0.0,0.0,0.0,0.0,0.0,0.0,0.0,0.0,0.0,0.0,0.0,0.0,0.0,0.0,0.0,0.0,0.0,0.0,0.0,0.0,0.0,0.0,0.0,0.0,0.0,0.0,0.0,0.0,0.0,0.0,0.0,0.0,0.0,0.0,0.0,0.0,0.0,0.0,0.0,0.0,0.0,0.0,0.0,0.0,0.0,0.0,0.0,0.0,0.0,0.0,0.0,0.0,0.0,0.0,0.0,0.0,0.0,0.0,0.0,0.0,0.0,0.0,0.0,0.0,0.0,0.0,0.0,0.0,0.0,0.0,0.0,0.0,0.0,0.0,0.0,0.0,0.0,0.0,0.0,0.0,0.0,0.0,0.0,0.0,0.0,-0.5434,0.0,0.0,0.0,0.0,0.0,0.0,0.0,0.0,0.0,0.0,0.0,0.0,0.0,0.0,0.0,0.0,0.0,0.0,0.0,0.0,0.0,0.0,0.0,0.0,0.0,0.0,0.0,0.0,0.0,0.0,0.0,0.0,0.0,0.0,0.0,0.0,0.0,0.0,0.0,0.0,0.0,0.0,0.0,0.0,0.0,0.0,0.0,0.0,0.0,0.0,0.0,0.0,0.0,0.0,0.0,0.0,0.0,0.0,0.0,0.0,0.0,0.0,0.0,0.0,0.0,0.0,0.0,0.0,0.0,0.0,0.0,0.0,0.0,0.0,0.0,0.0,0.0,0.0,0.0,0.0,0.0,0.0,0.0,0.0,0.0,0.0,0.0,0.0,0.0,0.0,0.0,0.0,0.0,0.0,0.0,0.0,0.0,0.0,0.0,0.0,0.0,0.0,0.0,0.0,0.0,0.0,0.0,0.0,0.0,0.0,-0.5039,-0.5185,-0.5214,-0.5233,-0.5243,0.0,0.0,0.0,0.0,0.0,0.0,0.0,0.0,0.0,0.0,0.0,0.0,0.0,0.0,0.0,0.0,0.0,0.0,0.0,0.0,0.0,0.0,0.0,0.0,0.0,0.0,0.0,0.0,0.0,0.0,0.0,0.0,0.0,0.0,0.0,0.0,0.0,0.0,0.0,0.0,0.0,0.0,0.0,0.0,0.0,0.0,0.0,0.0,0.0,0.0,0.0,0.0,0.0,0.0,0.0,0.0,0.0,0.0,0.0,0.0,0.0,0.0,0.0,0.0,0.0,0.0,0.0,0.0,0.0,0.0,0.0,0.0,0.0,0.0,0.0,0.0,0.0,0.0,0.0,0.0,0.0,0.0,0.0,0.0,0.0,0.0,0.0,0.0,0.0,0.0,0.0,0.0,0.0,0.0,0.0,0.0,0.0,0.0,0.0,0.0,0.0,0.0,0.0,0.0,0.0,0.0,0.0,0.0,0.0,0.0,0.0,0.0,-0.501,-0.502,-0.5049,0.0,0.0,0.0,0.0,0.0,0.0,0.0,0.0,0.0,0.0,0.0,0.0,0.0,0.0,0.0,0.0,0.0,0.0,0.0,0.0,0.0,0.0,0.0,0.0,0.0,0.0,0.0,0.0,0.0,0.0,0.0,0.0,0.0,0.0,0.0,0.0,0.0,0.0,0.0,0.0,0.0,0.0,0.0,0.0,0.0,0.0,0.0,0.0,0.0,0.0,0.0,0.0,0.0,0.0,0.0,0.0,0.0,0.0,0.0,0.0,0.0,0.0,0.0,0.0,0.0,0.0,0.0,0.0,0.0,0.0,0.0,0.0,0.0,0.0,0.0,0.0,0.0,0.0,0.0,0.0,0.0,0.0,0.0,0.0,0.0,0.0,0.0,0.0,0.0,0.0,0.0,0.0,0.0,0.0,0.0,0.0,0.0,0.0,0.0,0.0,0.0,0.0,0.0,0.0,0.0,0.0,0.0,0.0,0.0,0.0,-0.4624,-0.4644,-0.4704,0.0,-0.4903,0.0,0.0,0.0,0.0,0.0,0.0,0.0,0.0,0.0,0.0,0.0,0.0,0.0,0.0,0.0,0.0,0.0,0.0,0.0,0.0,0.0,0.0,0.0,0.0,0.0,0.0,0.0,0.0,0.0,0.0,0.0,0.0,0.0,0.0,0.0,0.0,0.0,0.0,0.0,0.0,0.0,0.0,0.0,0.0,0.0,0.0,0.0,0.0,0.0,0.0,0.0,0.0,0.0,0.0,0.0,0.0,0.0,0.0,0.0,0.0,0.0,0.0,0.0,0.0,0.0,0.0,0.0,0.0,0.0,0.0,0.0,0.0,0.0,0.0,0.0,0.0,0.0,0.0,0.0,0.0,0.0,0.0,0.0,0.0,0.0,0.0,0.0,0.0,0.0,0.0,0.0,0.0,0.0,0.0,0.0,0.0,0.0,0.0,0.0,0.0,0.0,0.0,0.0,0.0,0.0,0.0,0.0,0.0,0.0,0.0,-0.5064,-0.5125,-0.5117,-0.5074,0.0,0.0,0.0,0.0,0.0,0.0,0.0,0.0,0.0,0.0,0.0,0.0,0.0,0.0,0.0,0.0,0.0,0.0,0.0,0.0,0.0,0.0,0.0,0.0,0.0,0.0,0.0,0.0,0.0,0.0,0.0,0.0,0.0,0.0,0.0,0.0,0.0,0.0,0.0,0.0,0.0,0.0,0.0,0.0,0.0,0.0,0.0,0.0,0.0,0.0,0.0,0.0,0.0,0.0,0.0,0.0,0.0,0.0,0.0,0.0,0.0,0.0,0.0,0.0,0.0,0.0,0.0,0.0,0.0,0.0,0.0,0.0,0.0,0.0,0.0,0.0,0.0,0.0,0.0,0.0,0.0,0.0,0.0,0.0,0.0,0.0,0.0,0.0,0.0,0.0,0.0,0.0,0.0,0.0,0.0,0.0,0.0,0.0,0.0,0.0,0.0,0.0,0.0,0.0,0.0,0.0,0.0,0.0,0.0,0.0,-0.5178,-0.5321,-0.5406,-0.5372,-0.5274,-0.5099,0.0,0.0,0.0,0.0,0.0,0.0,0.0,0.0,0.0,0.0,0.0,0.0,0.0,0.0,0.0,0.0,0.0,0.0,0.0,0.0,0.0,0.0,0.0,0.0,0.0,0.0,0.0,0.0,0.0,0.0,0.0,0.0,0.0,0.0,0.0,0.0,0.0,0.0,0.0,0.0,0.0,0.0,0.0,0.0,0.0,0.0,0.0,0.0,0.0,0.0,0.0,0.0,0.0,0.0,0.0,0.0,0.0,0.0,0.0,0.0,0.0,0.0,0.0,0.0,0.0,0.0,0.0,0.0,0.0,0.0,0.0,0.0,0.0,0.0,0.0,0.0,0.0,0.0,0.0,0.0,0.0,0.0,0.0,0.0,0.0,0.0,0.0,0.0,0.0,0.0,0.0,0.0,0.0,0.0,0.0,0.0,0.0,0.0,0.0,0.0,0.0,0.0,0.0,0.0,0.0,0.0,0.0,0.0,-0.5186,-0.5219,-0.5227,-0.5233,-0.5217,-0.5184,0.0,0.0,0.0,0.0,0.0,0.0,0.0,0.0,0.0,0.0,0.0,0.0,0.0,0.0,0.0,0.0,0.0,0.0,0.0,0.0,0.0,0.0,0.0,0.0,0.0,0.0,0.0,0.0,0.0,0.0,0.0,0.0,0.0,0.0,0.0,0.0,0.0,0.0,0.0,0.0,0.0,0.0,0.0,0.0,0.0,0.0,0.0,0.0,0.0,0.0,0.0,0.0,0.0,0.0,0.0,0.0,0.0,0.0,0.0,0.0,0.0,0.0,0.0,0.0,0.0,0.0,0.0,0.0,0.0,0.0,0.0,0.0,0.0,0.0,0.0,0.0,0.0,0.0,0.0,0.0,0.0,0.0,0.0,0.0,0.0,0.0,0.0,0.0,0.0,0.0,0.0,0.0,0.0,0.0,0.0,0.0,0.0,0.0,0.0,0.0,0.0,0.0,0.0,0.0,0.0,0.0,0.0,0.0,0.0,-0.5902,-0.5881,-0.5787,-0.5728,-0.5678,-0.5542,0.0,0.0,0.0,0.0,0.0,0.0,0.0,0.0,0.0,0.0,0.0,0.0,0.0,0.0,0.0,0.0,0.0,0.0,0.0,0.0,0.0,0.0,0.0,0.0,0.0,0.0,0.0,0.0,0.0,0.0,0.0,0.0,0.0,0.0,0.0,0.0,0.0,0.0,0.0,0.0,0.0,0.0,0.0,0.0,0.0,0.0,0.0,0.0,0.0,0.0,0.0,0.0,0.0,0.0,0.0,0.0,0.0,0.0,0.0,0.0,0.0,0.0,0.0,0.0,0.0,0.0,0.0,0.0,0.0,0.0,0.0,0.0,0.0,0.0,0.0,0.0,0.0,0.0,0.0,0.0,0.0,0.0,0.0,0.0,0.0,0.0,0.0,0.0,0.0,0.0,0.0,0.0,0.0,0.0,0.0,0.0,0.0,0.0,0.0,0.0,0.0,0.0,0.0,0.0,0.0,0.0,0.0,0.0,0.0,-0.6253,0.0,-0.6075,-0.5974,-0.5912,-0.5808,0.0,0.0,0.0,0.0,0.0,0.0,0.0,0.0,0.0,0.0,0.0,0.0,0.0,0.0,0.0,0.0,0.0,0.0,0.0,0.0,0.0,0.0,0.0,0.0,0.0,0.0,0.0,0.0,0.0,0.0,0.0,0.0,0.0,0.0,0.0,0.0,0.0,0.0,0.0,0.0,0.0,0.0,0.0,0.0,0.0,0.0,0.0,0.0,0.0,0.0,0.0,0.0,0.0,0.0,0.0,0.0,0.0,0.0,0.0,0.0,0.0,0.0,0.0,0.0,0.0,0.0,0.0,0.0,0.0,0.0,0.0,0.0,0.0,0.0,0.0,0.0,0.0,0.0,0.0,0.0,0.0,0.0,0.0,0.0,0.0,0.0,0.0,0.0,0.0,0.0,0.0,0.0,0.0,0.0,0.0,0.0,0.0,0.0,0.0,0.0,0.0,0.0,0.0,0.0,0.0,0.0,0.0,0.0,-0.6269,-0.6215,-0.609,-0.6005,-0.5903,-0.5903,-0.5857,0.0,0.0,0.0,0.0,0.0,0.0,0.0,0.0,0.0,0.0,0.0,0.0,0.0,0.0,0.0,0.0,0.0,0.0,0.0,0.0,0.0,0.0,0.0,0.0,0.0,0.0,0.0,0.0,0.0,0.0,0.0,0.0,0.0,0.0,0.0,0.0,0.0,0.0,0.0,0.0,0.0,0.0,0.0,0.0,0.0,0.0,0.0,0.0,0.0,0.0,0.0,0.0,0.0,0.0,0.0,0.0,0.0,0.0,0.0,0.0,0.0,0.0,0.0,0.0,0.0,0.0,0.0,0.0,0.0,0.0,0.0,0.0,0.0,0.0,0.0,0.0,0.0,0.0,0.0,0.0,0.0,0.0,0.0,0.0,0.0,0.0,0.0,0.0,0.0,0.0,0.0,0.0,0.0,0.0,0.0,0.0,0.0,0.0,0.0,0.0,0.0,0.0,0.0,0.0,0.0,0.0,0.0,0.0,0.0,-0.6339,-0.6533,-0.6473,-0.6205,-0.619,-0.6014,0.0,0.0,0.0,0.0,0.0,0.0,0.0,0.0,0.0,0.0,0.0,0.0,0.0,0.0,0.0,0.0,0.0,0.0,0.0,0.0,0.0,0.0,0.0,0.0,0.0,0.0,0.0,0.0,0.0,0.0,0.0,0.0,0.0,0.0,0.0,0.0,0.0,0.0,0.0,0.0,0.0,0.0,0.0,0.0,0.0,0.0,0.0,0.0,0.0,0.0,0.0,0.0,0.0,0.0,0.0,0.0,0.0,0.0,0.0,0.0,0.0,0.0,0.0,0.0,0.0,0.0,0.0,0.0,0.0,0.0,0.0,0.0,0.0,0.0,0.0,0.0,0.0,0.0,0.0,0.0,0.0,0.0,0.0,0.0,0.0,0.0,0.0,0.0,0.0,0.0,0.0,0.0,0.0,0.0,0.0,0.0,0.0,0.0,0.0,0.0,0.0,0.0,0.0,0.0,0.0,0.0,0.0,0.0,0.0,-0.7085,-0.7048,-0.69,-0.6665,-0.6512,-0.6258,-0.5863,0.0,0.0,0.0,0.0,0.0,0.0,0.0,0.0,0.0,0.0,0.0,0.0,0.0,0.0,0.0,0.0,0.0,0.0,0.0,0.0,0.0,0.0,0.0,0.0,0.0,0.0,0.0,0.0,0.0,0.0,0.0,0.0,0.0,0.0,0.0,0.0,0.0,0.0,0.0,0.0,0.0,0.0,0.0,0.0,0.0,0.0,0.0,0.0,0.0,0.0,0.0,0.0,0.0,0.0,0.0,0.0,0.0,0.0,0.0,0.0,0.0,0.0,0.0,0.0,0.0,0.0,0.0,0.0,0.0,0.0,0.0,0.0,0.0,0.0,0.0,0.0,0.0,0.0,0.0,0.0,0.0,0.0,0.0,0.0,0.0,0.0,0.0,0.0,0.0,0.0,0.0,0.0,0.0,0.0,0.0,0.0,0.0,0.0,0.0,0.0,0.0,0.0,0.0,0.0,0.0,0.0,0.0,0.0,-0.8282,-0.7655,-0.735,-0.7306,-0.6979,-0.6601,0.0,0.0,0.0,0.0,0.0,0.0,0.0,0.0,0.0,0.0,0.0,0.0,0.0,0.0,0.0,0.0,0.0,0.0,0.0,0.0,0.0,0.0,0.0,0.0,0.0,0.0,0.0,0.0,0.0,0.0,0.0,0.0,0.0,0.0,0.0,0.0,0.0,0.0,0.0,0.0,0.0,0.0,0.0,0.0,0.0,0.0,0.0,0.0,0.0,0.0,0.0,0.0,0.0,0.0,0.0,0.0,0.0,0.0,0.0,0.0,0.0,0.0,0.0,0.0,0.0,0.0,0.0,0.0,0.0,0.0,0.0,0.0,0.0,0.0,0.0,0.0,0.0,0.0,0.0,0.0,0.0,0.0,0.0,0.0,0.0,0.0,0.0,0.0,0.0,0.0,0.0,0.0,0.0,0.0,0.0,0.0,0.0,0.0,0.0,0.0,0.0,0.0,0.0,0.0,0.0,0.0,0.0,0.0,0.0,-0.9211,-0.9314,-0.9131,-0.8677,-0.8114,-0.7476,0.0,0.0,0.0,0.0,0.0,0.0,0.0,0.0,0.0,0.0,0.0,0.0,0.0,0.0,0.0,0.0,0.0,0.0,0.0,0.0,0.0,0.0,0.0,0.0,0.0,0.0,0.0,0.0,0.0,0.0,0.0,0.0,0.0,0.0,0.0,0.0,0.0,0.0,0.0,0.0,0.0,0.0,0.0,0.0,0.0,0.0,0.0,0.0,0.0,0.0,0.0,0.0,0.0,0.0,0.0,0.0,0.0,0.0,0.0,0.0,0.0,0.0,0.0,0.0,0.0,0.0,0.0,0.0,0.0,0.0,0.0,0.0,0.0,0.0,0.0,0.0,0.0,0.0,0.0,0.0,0.0,0.0,0.0,0.0,0.0,0.0,0.0,0.0,0.0,0.0,0.0,0.0,0.0,0.0,0.0,0.0,0.0,0.0,0.0,0.0,0.0,0.0,0.0,0.0,0.0,0.0,0.0,0.0,-0.9131,-0.9804,-1.0411,-1.0543,-1.0185,-0.916,-0.8214,0.0,0.0,0.0,0.0,0.0,0.0,0.0,0.0,0.0,0.0,0.0,0.0,0.0,0.0,0.0,0.0,0.0,0.0,0.0,0.0,0.0,0.0,0.0,0.0,0.0,0.0,0.0,0.0,0.0,0.0,0.0,0.0,0.0,0.0,0.0,0.0,0.0,0.0,0.0,0.0,0.0,0.0,0.0,0.0,0.0,0.0,0.0,0.0,0.0,0.0,0.0,0.0,0.0,0.0,0.0,0.0,0.0,0.0,0.0,0.0,0.0,0.0,0.0,0.0,0.0,0.0,0.0,0.0,0.0,0.0,0.0,0.0,0.0,0.0,0.0,0.0,0.0,0.0,0.0,0.0,0.0,0.0,0.0,0.0,0.0,0.0,0.0,0.0,0.0,0.0,0.0,0.0,0.0,0.0,0.0,0.0,0.0,0.0,0.0,0.0,0.0,0.0,0.0,0.0,0.0,0.0,0.0,0.0,-0.9788,-1.0207,-1.1152,-1.1622,-1.1578,-1.0075,-0.8873,0.0,0.0,0.0,0.0,0.0,0.0,0.0,0.0,0.0,0.0,0.0,0.0,0.0,0.0,0.0,0.0,0.0,0.0,0.0,0.0,0.0,0.0,0.0,0.0,0.0,0.0,0.0,0.0,0.0,0.0,0.0,0.0,0.0,0.0,0.0,0.0,0.0,0.0,0.0,0.0,0.0,0.0,0.0,0.0,0.0,0.0,0.0,0.0,0.0,0.0,0.0,0.0,0.0,0.0,0.0,0.0,0.0,0.0,0.0,0.0,0.0,0.0,0.0,0.0,0.0,0.0,0.0,0.0,0.0,0.0,0.0,0.0,0.0,0.0,0.0,0.0,0.0,0.0,0.0,0.0,0.0,0.0,0.0,0.0,0.0,0.0,0.0,0.0,0.0,0.0,0.0,0.0,0.0,0.0,0.0,0.0,0.0,0.0,0.0,0.0,0.0,0.0,0.0,0.0,0.0,0.0,0.0,0.0,-1.0169,-1.0858,-1.1319,-1.1622,-1.1622,-1.0378,-0.9406,0.0,0.0,0.0,0.0,0.0,0.0,0.0,0.0,0.0,0.0,0.0,0.0,0.0,0.0,0.0,0.0,0.0,0.0,0.0,0.0,0.0,0.0,0.0,0.0,0.0,0.0,0.0,0.0,0.0,0.0,0.0,0.0,0.0,0.0,0.0,0.0,0.0,0.0,0.0,0.0,0.0,0.0,0.0,0.0,0.0,0.0,0.0,0.0,-0.2549,0.0,0.0,0.0,0.0,0.0,0.0,0.0,0.0,0.0,0.0,0.0,0.0,0.0,0.0,0.0,0.0,0.0,0.0,0.0,0.0,0.0,0.0,0.0,0.0,0.0,0.0,0.0,0.0,0.0,0.0,0.0,0.0,0.0,0.0,0.0,0.0,0.0,0.0,0.0,0.0,0.0,0.0,0.0,0.0,0.0,0.0,0.0,0.0,0.0,0.0,0.0,0.0,0.0,0.0,0.0,0.0,0.0,0.0,0.0,-1.0306,-1.1055,-1.1453,-1.1622,-1.16,-1.0798,-0.9916,0.0,0.0,0.0,0.0,0.0,0.0,0.0,0.0,0.0,0.0,0.0,0.0,0.0,0.0,0.0,0.0,0.0,0.0,0.0,0.0,0.0,0.0,0.0,0.0,0.0,0.0,0.0,0.0,0.0,0.0,0.0,0.0,0.0,0.0,0.0,0.0,0.0,0.0,0.0,0.0,0.0,0.0,0.0,0.0,0.0,0.0,0.0,0.0,0.0,0.0,0.0,0.0,0.0,0.0,0.0,0.0,0.0,0.0,0.0,0.0,0.0,0.0,0.0,0.0,0.0,0.0,0.0,0.0,0.0,0.0,0.0,0.0,0.0,0.0,0.0,0.0,0.0,0.0,0.0,0.0,0.0,0.0,0.0,0.0,0.0,0.0,0.0,0.0,0.0,0.0,0.0,0.0,0.0,0.0,0.0,0.0,0.0,0.0,0.0,0.0,0.0,0.0,0.0,0.0,0.0,0.0,0.0,-0.9589,-1.0322,-1.1128,-1.1352,-1.1498,-1.1553,-1.1002,-1.0235,-0.9097,0.0,0.0,0.0,0.0,0.0,0.0,0.0,0.0,0.0,0.0,0.0,0.0,0.0,0.0,0.0,0.0,0.0,0.0,0.0,0.0,0.0,0.0,0.0,0.0,0.0,0.0,0.0,0.0,0.0,0.0,0.0,0.0,0.0,0.0,0.0,0.0,0.0,0.0,-0.2774,-0.2727,0.0,0.0,0.0,0.0,0.0,0.0,0.0,0.0,-0.2185,0.0,0.0,0.0,0.0,0.0,0.0,0.0,0.0,0.0,0.0,0.0,0.0,0.0,0.0,0.0,0.0,0.0,0.0,0.0,0.0,0.0,0.0,0.0,0.0,0.0,0.0,0.0,0.0,0.0,0.0,0.0,0.0,0.0,0.0,0.0,0.0,0.0,0.0,0.0,0.0,0.0,0.0,0.0,0.0,0.0,0.0,0.0,0.0,0.0,0.0,0.0,0.0,0.0,0.0,0.0,0.0,-0.9193,-0.9805,-1.0601,-1.1458,-1.0961,-1.0863,-1.1296,-1.0431,-0.9617,-0.8965,0.0,0.0,0.0,0.0,0.0,0.0,0.0,0.0,0.0,0.0,0.0,0.0,0.0,0.0,0.0,0.0,0.0,0.0,0.0,0.0,0.0,0.0,0.0,0.0,0.0,0.0,0.0,0.0,0.0,0.0,0.0,0.0,0.0,0.0,0.0,0.0,0.0,0.0,0.0,-0.2947,-0.2934,0.0,0.0,0.0,0.0,0.0,0.0,0.0,0.0,-0.2195,0.0,0.0,0.0,0.0,0.0,0.0,0.0,0.0,0.0,0.0,0.0,0.0,0.0,0.0,0.0,0.0,0.0,0.0,0.0,0.0,0.0,0.0,0.0,0.0,0.0,0.0,0.0,0.0,0.0,0.0,0.0,0.0,0.0,0.0,0.0,0.0,0.0,0.0,0.0,0.0,0.0,0.0,0.0,0.0,0.0,0.0,0.0,0.0,0.0,0.0,0.0,0.0,0.0,0.0,0.0,-0.951,-1.0179,-1.0905,-1.1538,-1.1247,-1.1178,-1.1428,-1.0751,-1.0078,0.0,0.0,0.0,0.0,0.0,0.0,0.0,0.0,0.0,0.0,0.0,0.0,0.0,0.0,0.0,0.0,0.0,0.0,0.0,0.0,0.0,0.0,0.0,0.0,0.0,0.0,0.0,0.0,0.0,0.0,0.0,0.0,0.0,0.0,0.0,0.0,0.0,0.0,0.0,0.0,-0.3113,-0.3127,-0.3425,0.0,0.0,0.0,0.0,0.0,0.0,-0.2943,-0.2544,0.0,0.0,0.0,0.0,0.0,0.0,0.0,0.0,0.0,0.0,0.0,0.0,0.0,0.0,0.0,0.0,0.0,0.0,0.0,0.0,0.0,0.0,0.0,0.0,0.0,0.0,0.0,0.0,0.0,0.0,0.0,0.0,0.0,0.0,0.0,0.0,0.0,0.0,0.0,0.0,0.0,0.0,0.0,0.0,0.0,0.0,0.0,0.0,0.0,0.0,0.0,0.0,0.0,0.0,0.0,-0.9673,-1.0464,-1.1117,-1.1608,-1.1435,-1.1435,-1.1553,-1.0884,-1.0262,0.0,0.0,0.0,0.0,0.0,0.0,0.0,0.0,0.0,0.0,0.0,0.0,0.0,0.0,0.0,0.0,0.0,0.0,0.0,0.0,0.0,0.0,0.0,0.0,0.0,0.0,0.0,0.0,0.0,0.0,0.0,0.0,0.0,0.0,0.0,0.0,0.0,0.0,0.0,0.0,0.0,-0.3364,-0.3818,-0.343,0.0,0.0,0.0,0.0,-0.3399,-0.3283,0.0,0.0,0.0,0.0,0.0,0.0,0.0,0.0,0.0,0.0,0.0,0.0,0.0,0.0,0.0,0.0,0.0,0.0,0.0,0.0,0.0,0.0,0.0,0.0,0.0,0.0,0.0,0.0,0.0,0.0,0.0,0.0,0.0,0.0,0.0,0.0,0.0,0.0,0.0,0.0,0.0,0.0,0.0,0.0,0.0,0.0,0.0,0.0,0.0,0.0,0.0,0.0,0.0,0.0,0.0,0.0,-0.9522,-1.0406,-1.1117,-1.1545,-1.0989,-1.0863,-1.1296,-1.006,-0.935,0.0,0.0,0.0,0.0,0.0,0.0,0.0,0.0,0.0,0.0,0.0,0.0,0.0,0.0,0.0,0.0,0.0,0.0,0.0,0.0,0.0,0.0,0.0,0.0,0.0,0.0,0.0,0.0,0.0,0.0,0.0,0.0,0.0,0.0,0.0,0.0,0.0,0.0,0.0,0.0,0.0,-0.3726,-0.4188,-0.3802,-0.3466,0.0,0.0,-0.3683,-0.3804,-0.3928,0.0,0.0,0.0,0.0,0.0,0.0,0.0,0.0,0.0,0.0,0.0,0.0,0.0,0.0,0.0,0.0,0.0,0.0,0.0,0.0,0.0,0.0,0.0,0.0,0.0,0.0,0.0,0.0,0.0,0.0,0.0,0.0,0.0,0.0,0.0,0.0,0.0,0.0,0.0,0.0,0.0,0.0,0.0,0.0,0.0,0.0,0.0,0.0,0.0,0.0,0.0,0.0,0.0,0.0,0.0,-0.935,-0.979,-1.0795,-1.1359,-1.1615,-1.131,-1.124,-1.1435,-1.0497,-0.9833,0.0,0.0,0.0,0.0,0.0,0.0,0.0,0.0,0.0,0.0,0.0,0.0,0.0,0.0,0.0,0.0,0.0,0.0,0.0,0.0,0.0,0.0,0.0,0.0,0.0,0.0,0.0,0.0,0.0,0.0,0.0,0.0,0.0,0.0,0.0,0.0,0.0,0.0,0.0,0.0,0.0,0.0,-0.4219,-0.4087,0.0,0.0,0.0,-0.3999,-0.3875,0.0,0.0,0.0,0.0,0.0,0.0,0.0,0.0,0.0,0.0,0.0,0.0,0.0,0.0,0.0,0.0,0.0,0.0,0.0,0.0,0.0,0.0,0.0,0.0,0.0,0.0,0.0,0.0,0.0,0.0,0.0,0.0,0.0,0.0,0.0,0.0,0.0,0.0,0.0,0.0,0.0,0.0,0.0,0.0,0.0,0.0,0.0,0.0,0.0,0.0,0.0,0.0,0.0,0.0,0.0,0.0,0.0,-1.0034,-1.1099,-1.1622,-1.1622,-1.1622,-1.1622,-1.1553,-1.1002,0.0,0.0,0.0,0.0,0.0,0.0,0.0,0.0,0.0,0.0,0.0,0.0,0.0,0.0,0.0,0.0,0.0,0.0,0.0,0.0,0.0,0.0,0.0,0.0,0.0,0.0,0.0,-0.4519,0.0,0.0,0.0,0.0,0.0,0.0,0.0,0.0,0.0,0.0,0.0,0.0,0.0,0.0,-0.4448,-0.4495,-0.4462,-0.4419,0.0,0.0,-0.4274,-0.4036,-0.4457,-0.4464,0.0,0.0,0.0,0.0,0.0,0.0,0.0,0.0,0.0,0.0,0.0,0.0,0.0,0.0,0.0,0.0,0.0,0.0,0.0,0.0,0.0,0.0,0.0,0.0,0.0,0.0,0.0,0.0,0.0,0.0,0.0,0.0,0.0,0.0,0.0,0.0,0.0,0.0,0.0,0.0,0.0,0.0,0.0,0.0,0.0,0.0,0.0,0.0,0.0,0.0,0.0,0.0,0.0,0.0,0.0,-1.0214,-1.1145,-1.163,-1.1622,-1.1622,-1.1622,-1.1615,-1.1124,-1.059,0.0,0.0,0.0,0.0,0.0,0.0,0.0,0.0,0.0,0.0,0.0,0.0,0.0,0.0,0.0,0.0,0.0,0.0,0.0,0.0,0.0,0.0,0.0,0.0,0.0,0.0,0.0,0.0,0.0,0.0,0.0,0.0,0.0,0.0,0.0,0.0,0.0,0.0,0.0,0.0,0.0,-0.482,-0.5254,-0.5009,-0.4886,0.0,0.0,-0.4539,-0.4606,-0.4998,-0.4998,-0.391,0.0,0.0,0.0,0.0,0.0,0.0,0.0,0.0,0.0,0.0,0.0,0.0,0.0,0.0,0.0,0.0,0.0,0.0,0.0,0.0,0.0,0.0,0.0,0.0,0.0,0.0,0.0,0.0,0.0,0.0,0.0,0.0,0.0,0.0,0.0,0.0,0.0,0.0,0.0,0.0,0.0,0.0,0.0,0.0,0.0,0.0,0.0,0.0,0.0,0.0,0.0,0.0,0.0,-1.0151,-1.0643,-1.1439,-1.1948,-1.2145,-1.2145,-1.2153,-1.2153,-1.171,-1.1136,0.0,0.0,0.0,0.0,0.0,0.0,0.0,0.0,0.0,0.0,0.0,0.0,0.0,0.0,0.0,0.0,0.0,0.0,0.0,0.0,0.0,0.0,0.0,0.0,0.0,0.0,0.0,0.0,-0.6462,-0.6644,-0.626,0.0,0.0,0.0,0.0,0.0,0.0,0.0,0.0,0.0,0.0,-0.5223,-0.5399,-0.5251,0.0,0.0,-0.4987,-0.4756,-0.4723,-0.4961,-0.4954,-0.4094,-0.3588,0.0,0.0,0.0,0.0,0.0,0.0,0.0,0.0,0.0,0.0,0.0,0.0,0.0,0.0,0.0,0.0,0.0,0.0,0.0,0.0,0.0,0.0,0.0,0.0,0.0,0.0,0.0,0.0,0.0,0.0,0.0,0.0,0.0,0.0,0.0,0.0,0.0,0.0,0.0,0.0,0.0,0.0,0.0,0.0,0.0,0.0,0.0,0.0,0.0,0.0,0.0,0.0,-1.0499,-1.1008,-1.1761,-1.2284,-1.2511,-1.2526,-1.2526,-1.2519,-1.2166,-1.1753,0.0,0.0,0.0,0.0,0.0,0.0,0.0,0.0,0.0,0.0,0.0,0.0,0.0,0.0,0.0,0.0,0.0,0.0,0.0,0.0,0.0,0.0,0.0,0.0,0.0,0.0,0.0,0.0,-0.6997,-0.7069,-0.6132,0.0,0.0,0.0,0.0,0.0,0.0,0.0,0.0,0.0,0.0,-0.5569,-0.557,-0.5525,-0.5461,-0.5279,-0.5058,-0.4872,-0.4707,-0.4863,-0.4783,-0.4331,0.0,0.0,0.0,0.0,0.0,0.0,0.0,0.0,0.0,0.0,0.0,0.0,0.0,0.0,0.0,0.0,0.0,0.0,0.0,0.0,0.0,0.0,0.0,0.0,0.0,0.0,0.0,0.0,0.0,0.0,-0.6899,0.0,0.0,0.0,0.0,0.0,0.0,0.0,0.0,0.0,0.0,0.0,0.0,0.0,0.0,0.0,0.0,0.0,0.0,0.0,0.0,0.0,0.0,-1.1001,-1.1311,-1.2083,-1.2519,-1.2541,-1.2526,-1.2548,-1.2548,-1.2519,-1.2308,-1.1948,0.0,0.0,0.0,0.0,0.0,0.0,0.0,0.0,0.0,0.0,0.0,0.0,0.0,0.0,0.0,0.0,0.0,0.0,0.0,0.0,0.0,0.0,0.0,0.0,0.0,0.0,-0.6292,-0.6289,-0.6063,0.0,0.0,0.0,0.0,0.0,0.0,0.0,0.0,0.0,0.0,-0.5595,-0.588,-0.5888,-0.5763,-0.5582,-0.5407,-0.5096,-0.4875,-0.4697,-0.4697,-0.4704,0.0,0.0,0.0,0.0,0.0,0.0,0.0,0.0,0.0,0.0,0.0,0.0,0.0,0.0,0.0,0.0,0.0,0.0,0.0,0.0,0.0,0.0,0.0,0.0,0.0,0.0,0.0,-0.9028,-0.8929,0.0,0.0,0.0,0.0,0.0,0.0,0.0,0.0,0.0,0.0,0.0,-0.9737,-0.9901,0.0,0.0,0.0,0.0,0.0,0.0,0.0,0.0,0.0,0.0,0.0,0.0,-1.1447,-1.1956,-1.2542,-1.295,-1.3162,-1.3162,-1.317,-1.317,-1.2958,-1.2539,-1.1983,0.0,0.0,0.0,0.0,0.0,0.0,0.0,0.0,0.0,0.0,0.0,0.0,0.0,0.0,0.0,0.0,0.0,0.0,0.0,0.0,0.0,0.0,0.0,0.0,0.0,-0.6753,0.0,0.0,0.0,0.0,0.0,0.0,0.0,0.0,0.0,0.0,0.0,-0.5214,-0.5446,-0.557,-0.575,-0.5868,-0.5763,-0.5677,0.0,0.0,0.0,0.0,0.0,0.0,0.0,0.0,0.0,0.0,0.0,0.0,0.0,0.0,-0.2845,-0.2527,-0.2417,-0.2263,-0.1872,0.0,0.0,0.0,0.0,0.0,0.0,0.0,0.0,0.0,0.0,0.0,0.0,0.0,0.0,-1.0218,0.0,-1.005,0.0,0.0,0.0,0.0,0.0,0.0,0.0,0.0,-1.0163,-1.0514,-1.0624,-1.0938,-1.0923,0.0,-1.1095,-1.0804,0.0,0.0,0.0,0.0,0.0,0.0,0.0,0.0,-1.197,-1.2481,-1.2938,-1.3279,-1.3477,-1.3492,-1.3492,-1.3492,-1.3287,-1.2883,-1.2358,-1.222,-1.1936,0.0,0.0,0.0,0.0,0.0,0.0,0.0,0.0,0.0,0.0,0.0,0.0,0.0,0.0,0.0,0.0,0.0,0.0,0.0,0.0,0.0,0.0,0.0,-0.6986,0.0,0.0,0.0,0.0,0.0,0.0,0.0,0.0,0.0,-0.5295,-0.5478,-0.5649,-0.5701,-0.5815,-0.5868,-0.5799,0.0,0.0,0.0,0.0,0.0,0.0,0.0,-0.5061,-0.5121,-0.5061,-0.5005,-0.4945,-0.4532,-0.4276,-0.4394,0.0,0.0,-0.334,-0.3235,-0.3154,-0.2797,-0.216,-0.1631,-0.1613,-0.1623,-0.163,0.0,0.0,0.0,0.0,0.0,0.0,0.0,0.0,-1.1478,-1.1368,0.0,-1.0958,0.0,0.0,0.0,0.0,0.0,-1.0316,0.0,0.0,-1.1428,-1.1875,-1.1619,-1.1889,-1.2043,-1.1978,-1.1985,-1.1992,-1.1956,-1.144,0.0,0.0,0.0,0.0,0.0,0.0,-1.2488,-1.2791,-1.3251,-1.3492,-1.3492,-1.3492,-1.3492,-1.3492,-1.3484,-1.3338,-1.3045,-1.289,-1.2668,-1.2351,-1.1843,0.0,0.0,0.0,0.0,0.0,0.0,0.0,0.0,0.0,0.0,0.0,0.0,0.0,0.0,0.0,0.0,0.0,0.0,0.0,0.0,-0.662,0.0,0.0,0.0,0.0,0.0,0.0,0.0,0.0,0.0,0.0,-0.5681,-0.5925,-0.6145,-0.5917,0.0,0.0,0.0,0.0,-0.5779,-0.5514,-0.5268,-0.5166,-0.5289,-0.5238,-0.5399,-0.5911,0.0,0.0,-0.5911,-0.5286,-0.489,-0.5189,-0.5067,-0.4709,-0.4026,-0.3784,-0.3663,-0.3503,-0.3342,-0.3156,-0.3044,-0.2906,-0.2923,-1.3162,0.0,0.0,0.0,0.0,-1.2198,-1.234,-1.2577,-1.2631,-1.2583,-1.2496,-1.2488,0.0,0.0,0.0,0.0,0.0,0.0,-1.1355,-1.1494,-1.1867,-1.2109,-1.2248,-1.2343,-1.2387,-1.2387,-1.2621,-1.2731,-1.2738,-1.28,-1.2571,-1.213,0.0,0.0,0.0,0.0,-1.2774,-1.2798,-1.3251,-1.3492,-1.3492,-1.3492,-1.3492,-1.3492,-1.3492,-1.3448,-1.3353,-1.3281,-1.3142,-1.2815,-1.2637,0.0,0.0,0.0,0.0,0.0,0.0,0.0,0.0,0.0,0.0,0.0,0.0,0.0,0.0,0.0,0.0,0.0,0.0,0.0,-0.6894,-0.6961,-0.683,0.0,0.0,0.0,0.0,0.0,0.0,0.0,0.0,0.0,-0.618,-0.616,-0.6191,0.0,0.0,-0.5986,-0.5831,-0.5957,-0.6037,-0.6117,-0.5972,0.0,0.0,-0.6093,-0.6013,-0.6242,-0.6378,-0.6463,-0.6475,-0.626,-0.6173,-0.6238,-0.6069,-0.5841,-0.5514,-0.5114,-0.4858,-0.4785,-0.4402,-0.4019,-0.3893,-0.3509,-0.3198,-1.4482,-1.4045,-1.329,-1.2973,-1.2965,-1.3028,-1.3092,-1.329,-1.3282,-1.329,-1.3282,-1.3225,-1.305,-1.2845,-1.2526,0.0,0.0,0.0,-1.2043,-1.2226,-1.2365,-1.2526,-1.2709,-1.2848,-1.2906,-1.2914,-1.3111,-1.3199,-1.3199,-1.3404,-1.3301,-1.2906,0.0,0.0,-1.2723,-1.2914,-1.2997,-1.3113,-1.3317,-1.3492,-1.3492,-1.3492,-1.3492,-1.3492,-1.3492,-1.3492,-1.3492,-1.3492,-1.3404,-1.3206,-1.3075,-1.2851,0.0,0.0,0.0,0.0,0.0,0.0,0.0,0.0,0.0,0.0,0.0,-0.9065,0.0,0.0,0.0,0.0,-0.7516,-0.7173,-0.7242,-0.7269,0.0,0.0,0.0,0.0,0.0,0.0,0.0,-0.6298,-0.6531,-0.6639,-0.6615,-0.6668,-0.6568,-0.6437,-0.6396,-0.6262,-0.612,0.0,-0.64,-0.6513,-0.6371,-0.6379,-0.6725,-0.6675,-0.6597,-0.6708,-0.6822,-0.6863,-0.681,-0.675,-0.6746,-0.6674,-0.6527,-0.6376,-0.6237,-0.6003,-0.574,-0.5603,-0.5189,-0.4912,-0.4912,-0.4565,-0.4219,-1.5674,-1.5562,-1.4291,-1.3759,-1.3751,-1.3751,-1.3751,-1.3751,-1.3751,-1.3751,-1.3743,-1.3564,-1.3497,-1.3429,-1.3157,0.0,-1.2672,-1.268,-1.2694,-1.2687,-1.2987,-1.3126,-1.314,-1.344,-1.3572,-1.3565,-1.3572,-1.3572,-1.3579,-1.3579,-1.3572,-1.3558,-1.3272,-1.3097,-1.3053,-1.3045,-1.3199,-1.3484,-1.3492,-1.3492,-1.3492,-1.3492,-1.3492,-1.3492,-1.3492,-1.3492,-1.3492,-1.3492,-1.3492,-1.3484,-1.3206,-1.2975,-1.2827,0.0,0.0,0.0,0.0,0.0,0.0,0.0,0.0,0.0,0.0,0.0,0.0,0.0,0.0,0.0,-0.8077,0.0,-0.7763,-0.7632,0.0,0.0,0.0,-0.6988,-0.6785,-0.6785,-0.6847,-0.7003,0.0,0.0,-0.7115,-0.7183,-0.7199,-0.6847,-0.6941,-0.6834,-0.6505,-0.6619,-0.6741,-0.6749,-0.6611,-0.6627,-0.6956,-0.7064,-0.7029,-0.7183,-0.7244,-0.7179,-0.7041,-0.6937,-0.6793,-0.6809,-0.6641,-0.6497,-0.6493,-0.6497,-0.6342,-0.5978,-0.5878,-0.5864,-0.5779,-0.5776,-0.5701,-1.5674,-1.5642,-1.5316,-1.5181,-1.5181,-1.5181,-1.5181,-1.5173,-1.5173,-1.5173,-1.5181,-1.5181,-1.4965,-1.4666,-1.4599,-1.4381,-1.4004,-1.4004,-1.4004,-1.4011,-1.4084,-1.4128,-1.4128,-1.4201,-1.4238,-1.4238,-1.4238,-1.4238,-1.4238,-1.4238,-1.4238,-1.4238,-1.4157,-1.3872,-1.3404,-1.3375,-1.3411,-1.3492,-1.3492,-1.3492,-1.3492,-1.3492,-1.3492,-1.3492,-1.3492,-1.3492,-1.3492,-1.3492,-1.3492,-1.3492,-1.3418,-1.3382,-1.3302,-1.3004,0.0,0.0,0.0,0.0,0.0,0.0,0.0,0.0,0.0,-1.0165,-1.1737,0.0,-1.0802,0.0,-0.9405,-0.8652,-0.7709,-0.7909,0.0,0.0,-0.7526,-0.746,-0.7394,-0.739,-0.7407,-0.7451,-0.7526,-0.7579,-0.7574,-0.7518,-0.7487,-0.7509,-0.7244,-0.6991,-0.6838,-0.6985,-0.7102,-0.7098,-0.7155,-0.7257,-0.7322,-0.7358,-0.7366,-0.7415,-0.7419,-0.7407,-0.7362,-0.7358,-0.7362,-0.7283,-0.7283,-0.7203,-0.7048,-0.6984,-0.6897,-0.6655,-0.6478,-0.6233,-0.6233,-0.6237,-0.6237,-1.6603,-1.6611,-1.6611,-1.6611,-1.6555,-1.5944,-1.5674,-1.5674,-1.5674,-1.5674,-1.5674,-1.5605,-1.5381,-1.515,-1.5072,-1.4995,-1.4777,-1.4769,-1.4691,-1.4613,-1.4613,-1.4613,-1.4465,-1.4465,-1.4465,-1.4465,-1.4465,-1.4465,-1.4465,-1.4465,-1.4465,-1.4465,-1.4465,-1.4289,-1.3945,-1.3931,-1.3775,-1.3534,-1.3484,-1.3492,-1.3492,-1.3492,-1.3492,-1.3492,-1.3492,-1.3492,-1.3492,-1.3492,-1.3492,-1.3492,-1.3492,-1.3492,-1.3484,-1.3323,-1.3078,0.0,0.0,0.0,0.0,0.0,0.0,0.0,0.0,0.0,0.0,0.0,-1.1723,-1.0327,-0.9839,-0.9182,-0.8253,-0.8333,-0.8377,-0.8068,-0.7947,-0.7803,-0.7721,-0.7726,-0.7761,-0.785,-0.7932,-0.7968,-0.7926,-0.7939,-0.7899,-0.7936,-0.7693,-0.7413,-0.727,-0.7277,-0.7342,-0.7346,-0.7423,-0.748,-0.748,-0.748,-0.748,-0.748,-0.748,-0.748,-0.748,-0.748,-0.748,-0.748,-0.748,-0.7484,-0.7334,-0.733,-0.7257,-0.7149,-0.7025,-0.683,-0.6667,-0.6593,-0.6596,-1.7763,-1.7763,-1.7763,-1.7763,-1.7676,-1.646,-1.5944,-1.5944,-1.5944,-1.5944,-1.5944,-1.5803,-1.5575,-1.541,-1.541,-1.541,-1.5332,-1.5332,-1.5245,-1.508,-1.5087,-1.5016,-1.4793,-1.4872,-1.4872,-1.4793,-1.4835,-1.4734,-1.4813,-1.469,-1.4668,-1.4668,-1.4668,-1.4747,-1.4668,-1.4668,-1.4399,-1.3611,-1.3666,-1.3675,-1.3631,-1.3631,-1.3609,-1.3564,-1.3564,-1.3564,-1.3564,-1.3572,-1.3564,-1.3572,-1.3572,-1.3492,-1.3492,-1.3492,-1.3411,0.0,-1.32,0.0,0.0,0.0,0.0,0.0,0.0,0.0,0.0,-1.2524,-1.2165,-1.0439,-0.9945,-0.9542,-0.9249,-0.8978,-0.8773,-0.8586,-0.837,-0.8069,-0.7912,-0.7912,-0.7983,-0.8156,-0.8327,-0.8403,-0.8246,-0.8331,-0.8327,-0.8178,-0.8089,-0.7927,-0.7658,-0.7565,-0.7544,-0.748,-0.748,-0.748,-0.748,-0.748,-0.748,-0.748,-0.748,-0.748,-0.748,-0.748,-0.748,-0.748,-0.748,-0.748,-0.748,-0.748,-0.748,-0.748,-0.7464,-0.7375,-0.7073,-0.6988,-0.6942,-1.7763,-1.7763,-1.7763,-1.7763,-1.7747,-1.7493,-1.7374,-1.7374,-1.7374,-1.7374,-1.7374,-1.7374,-1.7219,-1.7056,-1.7056,-1.6962,-1.6698,-1.669,-1.669,-1.669,-1.669,-1.6612,-1.6604,-1.6612,-1.6612,-1.6597,-1.6354,-1.6225,-1.6217,-1.5951,-1.5822,-1.5822,-1.5815,-1.5822,-1.5815,0.0,0.0,0.0,-1.4451,-1.4448,-1.4209,-1.4328,-1.4266,-1.4,-1.3992,0.0,-1.3992,-1.3985,-1.392,-1.379,-1.3725,0.0,0.0,0.0,0.0,0.0,0.0,0.0,0.0,0.0,0.0,0.0,-1.2005,-1.217,-1.2676,-1.2508,-1.2123,-1.1436,-1.1049,-1.0724,-1.0479,-0.9841,-0.949,-0.96,-0.9025,-0.8571,-0.8566,-0.8491,-0.8585,-0.8623,-0.8627,-0.8627,-0.856,-0.8475,-0.8408,-0.8354,-0.8178,-0.8163,-0.8234,-0.7974,-0.7727,-0.7561,-0.759,-0.7492,-0.748,-0.7488,-0.7496,-0.748,-0.748,-0.748,-0.748,-0.748,-0.748,-0.748,-0.748,-0.748,-0.748,-0.748,-0.748,-0.748,-0.748,-0.748,-0.7403,-0.7403,-0.7407,-1.8287,0.0,-1.8287,-1.8295,0.0,-1.8287,-1.8295,-1.8271,-1.7914,-1.7763,-1.7763,-1.7763,-1.7771,-1.7604,-1.7612,-1.7604,-1.7422,-1.7414,-1.743,-1.7255,-1.7262,-1.7247,-1.7064,-1.7064,-1.7064,-1.7064,-1.6911,-1.6827,-1.682,-1.6659,-1.6568,-1.6576,-1.6568,-1.6492,-1.6339,-1.6171,-1.5754,-1.5016,-1.5008,-1.4834,-1.4683,-1.482,-1.4652,-1.4398,0.0,0.0,0.0,0.0,0.0,0.0,0.0,0.0,0.0,0.0,0.0,-1.3346,-1.3346,-1.3273,-1.3046,-1.3046,-1.3039,-1.2886,-1.2879,-1.2973,-1.3155,-1.2476,-1.186,-1.1417,-1.0827,-1.0313,-0.9791,-0.9352,-0.918,-0.9296,-0.8932,-0.8703,-0.8703,-0.8703,-0.8703,-0.8718,-0.8798,-0.8859,-0.8864,-0.888,-0.8848,-0.8853,-0.8774,-0.8648,-0.8649,-0.8365,-0.8034,-0.7974,-0.7911,-0.7874,-0.7717,-0.7618,-0.7577,-0.7512,-0.748,-0.748,-0.748,-0.748,-0.748,-0.748,-0.748,-0.748,-0.748,-0.748,-0.748,-0.748,-0.748,-0.748,-0.748,-0.748,-0.748,-1.8978,-1.8923,-1.8923,-1.8891,-1.8827,-1.8827,-1.8827,-1.8788,0.0,0.0,0.0,-1.7962,-1.7954,-1.7962,-1.7962,-1.7962,-1.7954,-1.7962,-1.7873,-1.7713,-1.7713,-1.7617,-1.7424,-1.7424,-1.7424,-1.7416,-1.7363,-1.7339,-1.7332,-1.727,-1.7239,-1.7247,-1.7239,-1.7108,-1.6846,-1.6514,-1.6206,-1.5921,-1.5495,-1.5295,-1.5242,-1.5242,-1.5158,-1.4811,-1.4803,-1.4649,-1.4309,-1.4294,-1.4206,-1.3943,-1.3863,-1.379,-1.3637,-1.3637,-1.3572,-1.3564,-1.3572,-1.3572,-1.3492,-1.3492,-1.3492,-1.3492,-1.3492,-1.3499,-1.3521,-1.2604,-1.1965,-1.1539,-1.0887,-1.0282,-0.9599,-0.9301,-0.9155,-0.9155,-0.8851,-0.8713,-0.8751,-0.876,-0.8784,-0.8822,-0.8973,-0.9077,-0.9082,-0.9204,-0.9322,-0.9318,-0.9208,-0.9269,-0.9105,-0.872,-0.8408,-0.8453,-0.8388,-0.8208,-0.8015,-0.7805,-0.774,-0.763,-0.7594,-0.7577,-0.7573,-0.7553,-0.7533,-0.7545,-0.7512,-0.7484,-0.748,-0.748,-0.748,-0.748,-0.748,-0.748,-0.748,-0.748,-0.748,-1.955,-1.9296,-1.9296,-1.9113,-1.8827,-1.8827,-1.8827,-1.8819,-1.8724,-1.8684,-1.8676,-1.8676,-1.8684,-1.8684,-1.8676,-1.8684,-1.8676,-1.8676,-1.8684,-1.8593,-1.8601,-1.8593,-1.8585,-1.8585,-1.8585,-1.8561,-1.8277,-1.8134,-1.8103,-1.7834,-1.7684,-1.7692,-1.7684,-1.766,-1.7589,-1.7288,-1.7091,-1.7036,-1.6515,-1.6121,-1.5769,-1.5984,-1.5881,-1.5549,-1.5526,-1.5375,-1.5051,-1.5028,-1.482,-1.4377,-1.4289,-1.4209,-1.4065,-1.3992,-1.3928,-1.379,-1.3797,-1.3645,-1.3492,-1.3492,-1.3492,-1.3492,-1.3492,-1.3499,-1.3499,-1.3382,-1.323,-1.3119,-1.29,-1.2973,-1.2746,-1.149,-1.0605,-1.0599,-0.9463,-0.877,-0.8954,-0.8978,-0.9034,-0.9185,-0.9256,-0.928,-0.9289,-0.9322,-0.936,-0.9337,-0.9389,-0.9325,-0.9447,-0.9013,-0.8664,-0.8595,-0.8522,-0.8431,-0.8328,-0.8147,-0.8037,-0.7943,-0.7914,-0.7894,-0.7894,-0.7797,-0.7724,-0.7799,-0.7602,-0.7512,-0.7496,-0.748,-0.748,-0.748,-0.748,-0.748,-0.748,-0.748,-0.748,-1.9781,-1.9646,-1.9638,-1.955,-1.9391,-1.9391,-1.9288,-1.9129,-1.9121,-1.901,-1.8835,-1.8827,-1.8827,-1.8827,-1.8827,-1.8827,-1.8827,-1.8827,-1.8827,-1.8827,-1.8827,-1.8827,-1.8827,-1.8827,-1.8827,-1.8819,-1.8661,-1.8589,-1.8565,-1.8422,-1.8343,-1.8335,-1.8152,-1.8057,-1.8041,-1.7715,-1.7548,-1.7533,-1.6925,-1.6495,-1.6354,-1.6419,-1.6317,-1.5975,-1.5968,-1.5801,-1.5467,-1.5451,-1.5217,-1.4731,-1.4715,-1.4475,-1.4145,-1.4137,-1.4065,-1.4,-1.3863,-1.3797,-1.3645,-1.3572,-1.3492,-1.3492,-1.3492,-1.366,-1.4015,-1.3307,-1.282,-1.2826,-1.2452,-1.2297,-1.2443,-1.1323,-1.0687,-1.0907,-0.9739,-0.9082,-0.9162,-0.9185,-0.9223,-0.9318,-0.9426,-0.9493,-0.9414,-0.9597,-0.9663,-0.9663,-0.9663,-0.9705,-0.9795,-0.9563,-0.9329,-0.9244,-0.9079,-0.8945,-0.8778,-0.866,-0.8455,-0.8292,-0.8185,-0.818,-0.8012,-0.7935,-0.791,-0.7886,-0.7752,-0.765,-0.763,-0.7545,-0.7496,-0.748,-0.748,-0.748,-0.748,-0.748,-0.748,-2.0051,-1.9987,-1.9987,-1.994,-1.986,-1.986,-1.9717,-1.9495,-1.9479,-1.932,-1.9066,-1.8907,-1.8827,-1.8827,-1.8827,-1.8827,-1.8827,-1.8827,-1.8827,-1.8827,-1.8827,-1.8827,-1.8827,-1.8827,-1.8827,-1.8827,-1.8827,-1.8827,-1.8827,-1.8827,-1.8827,-1.8796,-1.8549,-1.8422,-1.8406,-1.8065,-1.789,-1.785,-1.7286,-1.6929,-1.6857,-1.6778,-1.6595,-1.6357,-1.6325,-1.6158,-1.5817,-1.5801,-1.5557,-1.5091,-1.5059,-1.4852,-1.4522,-1.4433,-1.4433,-1.4359,-1.4228,-1.4088,-1.4007,-1.3697,-1.346,-1.3534,-1.3623,-1.391,-1.4305,-1.3497,-1.273,-1.2423,-1.1765,-1.1389,-1.1558,-1.0813,-1.0412,-1.0589,-0.9806,-0.9332,-0.9384,-0.9393,-0.9417,-0.9469,-0.9615,-0.971,-0.9743,-0.9852,-1.0014,-1.0009,-1.0038,-1.0038,-1.0038,-1.0038,-0.9864,-0.9777,-0.9602,-0.9447,-0.9222,-0.9114,-0.8887,-0.8664,-0.8581,-0.8514,-0.8409,-0.8288,-0.816,-0.8139,-0.7931,-0.7833,-0.7805,-0.7715,-0.7638,-0.7638,-0.7646,-0.7626,-0.7634,-0.763,-0.7565,-2.0631,-2.0361,-2.0345,-2.0154,-1.99,-1.9884,-1.9868,-1.9828,-1.982,-1.9805,-1.9677,-1.9113,-1.8851,-1.8827,-1.8835,-1.8827,-1.8827,-1.8827,-1.8827,-1.8827,-1.8827,-1.8827,-1.8827,-1.8827,-1.8827,-1.8827,-1.8827,-1.8827,-1.8827,-1.8827,-1.8827,-1.8827,-1.8796,-1.8764,-1.8732,-1.8422,-1.8247,-1.824,-1.7866,-1.7525,-1.7231,-1.6905,-1.6714,-1.669,-1.6683,-1.6516,-1.6174,-1.615,-1.5999,-1.5674,-1.5634,-1.561,-1.5494,-1.557,-1.5425,-1.528,-1.5203,-1.5065,-1.4727,-1.398,-1.3543,-1.3564,-1.3994,-1.4285,-1.4428,-1.4321,-1.3896,-1.3008,-1.2141,-1.1726,-1.1626,-1.098,-1.0514,-1.0578,-0.9851,-0.9398,-0.9578,-0.9531,-0.9686,-0.988,-0.9966,-1.0005,-0.9904,-1.0019,-1.0033,-1.0038,-1.0038,-1.0038,-1.0038,-1.0038,-1.0033,-0.9951,-0.9777,-0.9593,-0.9557,-0.9401,-0.9269,-0.9174,-0.9196,-0.9161,-0.9026,-0.8768,-0.8514,-0.8497,-0.8193,-0.8004,-0.7992,-0.7963,-0.7943,-0.7886,-0.7898,-0.7943,-0.7959,-0.7931,-0.7825,-2.0837,-2.071,-2.0702,-2.0631,-2.0496,-2.0488,-2.0369,-2.0186,-2.0178,-2.0067,-1.9844,-1.9558,-1.9344,-1.9137,-1.8931,-1.8827,-1.8827,-1.8827,-1.8827,-1.8827,-1.8827,-1.8827,-1.8827,-1.8827,-1.8827,-1.8827,-1.8827,-1.8827,-1.8827,-1.8827,-1.8827,-1.8827,-1.8827,-1.8827,-1.8819,-1.8684,-1.8613,-1.8597,-1.8263,-1.8009,-1.7842,-1.7342,-1.7056,-1.7032,-1.6849,-1.6675,-1.654,-1.6516,-1.6357,-1.6023,-1.5991,-1.5896,-1.5682,-1.5674,-1.5682,-1.5613,-1.5381,-1.5072,-1.4839,-1.4316,-1.4102,-1.4102,-1.3643,-1.3473,-1.338,-1.2794,-1.2192,-1.2135,-1.2326,-1.2437,-1.1944,-1.115,-1.0709,-1.0826,-1.0194,-0.9729,-0.9809,-0.9823,-0.9866,-1.0028,-1.0038,-1.0038,-1.0038,-1.0038,-1.0038,-1.0038,-1.0038,-1.0038,-1.0038,-1.0038,-1.0038,-0.9951,-0.9864,-0.9864,-0.9777,-0.9777,-0.9689,-0.9519,-0.9519,-0.9432,-0.9331,-0.9213,-0.8966,-0.8789,-0.8547,-0.8354,-0.8178,-0.8073,-0.8012,-0.8028,-0.8016,-0.8012,-0.8012,-0.8012,-0.7927,-2.1121,-2.1121,-2.0917,-2.0925,-2.0925,-2.0925,-2.0774,-2.0551,-2.0535,-2.0392,-2.0162,-2.0059,-1.9876,-1.9622,-1.9272,-1.9066,-1.8986,-1.8978,-1.8923,-1.8835,-1.8827,-1.8827,-1.8827,-1.8827,-1.8827,-1.8827,-1.8827,-1.8827,-1.8827,-1.8827,-1.8827,-1.8827,-1.8827,-1.8827,-1.8827,-1.8827,-1.8827,-1.8804,-1.8565,-1.8438,-1.8367,-1.7866,-1.7509,-1.7397,-1.7072,-1.6881,-1.6881,-1.6786,-1.6619,-1.6365,-1.6357,-1.623,-1.5991,-1.5968,-1.5968,-1.5968,-1.5654,-1.5347,-1.5189,-1.4931,-1.4561,-1.3964,-1.2775,-1.1916,-1.191,-1.155,-1.1308,-1.1337,-1.2082,-1.2298,-1.1611,-1.0984,-1.0724,-1.0875,-1.0381,-1.0038,-1.0033,-1.0038,-1.0028,-1.0038,-1.0038,-1.0038,-1.0038,-1.0038,-1.0038,-1.0038,-1.0038,-1.0038,-1.0038,-1.0038,-1.0038,-1.0038,-1.0033,-1.0038,-1.0038,-0.9951,-0.9864,-0.9777,-0.9689,-0.9689,-0.9519,-0.9428,-0.934,-0.9187,-0.8923,-0.8717,-0.8537,-0.8328,-0.8242,-0.8162,-0.8162,-0.8162,-0.8215,-0.8174,-0.8174,-2.1623,-2.1623,-2.1121,-2.0925,-2.0925,-2.0925,-2.0909,-2.0861,-2.0885,-2.0869,-2.0782,-2.0504,-2.0361,-2.0305,-1.9963,-1.9638,-1.9376,-1.9344,-1.9185,-1.8907,-1.8859,-1.8835,-1.8827,-1.8827,-1.8827,-1.8827,-1.8827,-1.8827,-1.8827,-1.8827,-1.8827,-1.8827,-1.8827,-1.8827,-1.8827,-1.8827,-1.8827,-1.8819,-1.8788,-1.878,-1.8748,-1.843,-1.8081,-1.7787,-1.7437,-1.7254,-1.7223,-1.6921,-1.6738,-1.6714,-1.6706,-1.669,-1.6667,-1.6659,-1.6635,-1.6569,-1.6406,-1.625,-1.5996,-1.5554,-1.4684,-1.3027,-1.1377,-1.0174,-1.0508,-1.1448,-1.1872,-1.1322,-1.1273,-1.1091,-1.0423,-1.024,-1.0086,-1.0111,-1.012,-1.0038,-1.0038,-1.0038,-1.0038,-1.0038,-1.0038,-1.0038,-1.0038,-1.0038,-1.0038,-1.0038,-1.0038,-1.0038,-1.0038,-1.0038,-1.0038,-1.0038,-1.0038,-1.0038,-1.0038,-1.0038,-0.9951,-0.9951,-0.9864,-0.9951,-0.9864,-0.9777,-0.9602,-0.9515,-0.9305,-0.9122,-0.8973,-0.879,-0.8661,-0.8645,-0.8541,-0.8459,-0.8406,-0.8503,-0.8483,-2.2224,-2.2123,-2.1615,-2.142,-2.142,-2.1027,-2.0925,-2.0925,-2.0925,-2.0925,-2.0901,-2.0782,-2.0726,-2.0726,-2.0599,-2.0234,-1.9717,-1.9685,-1.9614,-1.9471,-1.928,-1.9177,-1.9153,-1.8947,-1.8827,-1.8827,-1.8827,-1.8827,-1.8827,-1.8827,-1.8827,-1.8827,-1.8827,-1.8827,-1.8827,-1.8827,-1.8827,-1.8827,-1.8827,-1.8827,-1.8819,-1.87,-1.8573,-1.843,-1.789,-1.7588,-1.7596,-1.7461,-1.7302,-1.7096,-1.7088,-1.6976,-1.6762,-1.673,-1.673,-1.6648,-1.6476,-1.6394,-1.6245,-1.5762,-1.5127,-1.4318,-1.1616,-1.0029,-1.0134,-1.0605,-1.0809,-1.0559,-1.0472,-1.0294,-1.012,-1.0038,-1.0038,-1.0038,-1.0038,-1.0052,-1.0038,-1.0038,-1.0038,-1.0038,-1.0038,-1.0038,-1.0062,-1.0038,-1.0038,-1.0038,-1.0038,-1.0038,-1.0038,-1.0038,-1.0038,-1.0038,-1.0038,-1.0038,-1.0038,-1.0038,-1.0038,-1.0038,-1.0038,-0.9951,-0.9951,-0.9951,-0.9777,-0.9602,-0.9519,-0.9432,-0.9248,-0.899,-0.8911,-0.8828,-0.874,-0.8652,-0.8568,-0.8656,-0.8568,-2.2636,-2.2426,-2.2131,-2.192,-2.192,-2.1522,-2.1318,-2.1232,-2.1121,-2.1027,-2.0925,-2.0925,-2.0925,-2.0925,-2.0925,-2.0686,-2.0218,-2.0098,-1.9979,-1.9852,-1.963,-1.9534,-1.9479,-1.9169,-1.9002,-1.8978,-1.8875,-1.8827,-1.8827,-1.8827,-1.8827,-1.8827,-1.8827,-1.8827,-1.8827,-1.8827,-1.8827,-1.8827,-1.8827,-1.8827,-1.8827,-1.8827,-1.8827,-1.8764,-1.8351,-1.8049,-1.7946,-1.7834,-1.7676,-1.7477,-1.7336,-1.7217,-1.6988,-1.6972,-1.7064,-1.7064,-1.6896,-1.6813,-1.6653,-1.6244,-1.5526,-1.4542,-1.2458,-1.075,-1.0322,-1.0243,-1.0154,-1.0154,-1.0149,-1.0149,-1.0149,-1.0159,-1.0126,-1.0176,-1.0112,-1.0149,-1.0238,-1.0248,-1.0168,-1.0173,-1.0182,-1.0164,-1.014,-1.0093,-1.0069,-1.0055,-1.0008,-1.0038,-1.0038,-1.0038,-1.0038,-1.0038,-1.0038,-1.0038,-1.0038,-1.0038,-1.0038,-1.0038,-1.0038,-1.0038,-1.0038,-1.0038,-0.9951,-0.9777,-0.9689,-0.9602,-0.9428,-0.917,-0.9082,-0.8999,-0.8915,-0.874,-0.8744,-0.8656,-0.8656,-2.302,-2.2627,-2.2535,-2.2518,-2.2526,-2.2426,-2.2131,-2.1725,-2.1632,-2.142,-2.1027,-2.0925,-2.0925,-2.0925,-2.0925,-2.0893,-2.0782,-2.0527,-2.0249,-1.9987,-1.99,-1.9876,-1.9852,-1.9526,-1.9344,-1.9296,-1.8994,-1.8827,-1.8827,-1.8827,-1.8827,-1.8827,-1.8827,-1.8827,-1.8827,-1.8827,-1.8827,-1.8827,-1.8827,-1.8827,-1.8827,-1.8827,-1.8827,-1.8827,-1.8764,-1.8605,-1.8311,-1.8001,-1.7842,-1.7779,-1.7565,-1.7454,-1.7479,-1.7573,-1.7723,-1.7683,-1.7723,-1.766,-1.7478,-1.7098,-1.5708,-1.397,-1.2829,-1.2015,-1.0842,-1.0596,-1.0508,-1.0499,-1.0508,-1.0532,-1.0523,-1.0537,-1.0471,-1.0329,-1.0405,-1.0494,-1.0523,-1.0551,-1.056,-1.0527,-1.0504,-1.0556,-1.0523,-1.0386,-1.0277,-1.0239,-1.0229,-1.0129,-1.0133,-1.0119,-1.0057,-1.0052,-1.0047,-1.0038,-1.0038,-1.0038,-1.0038,-1.0038,-1.0038,-1.0038,-1.0038,-1.0038,-1.0038,-0.9864,-0.9864,-0.9777,-0.9689,-0.9428,-0.9257,-0.917,-0.8999,-0.8828,-0.874,-0.8656,-0.8656,-2.3845,-2.3646,-2.3229,-2.3029,-2.3029,-2.2627,-2.2426,-2.2224,-2.1818,-2.1632,-2.1428,-2.1027,-2.0925,-2.0925,-2.0925,-2.0925,-2.0909,-2.0798,-2.0694,-2.0551,-2.0337,-2.0226,-2.0162,-1.9876,-1.959,-1.9344,-1.9002,-1.8827,-1.8827,-1.8827,-1.8827,-1.8827,-1.8827,-1.8827,-1.8827,-1.8827,-1.8827,-1.8827,-1.8827,-1.8827,-1.8827,-1.8827,-1.8827,-1.8827,-1.8827,-1.8772,-1.8661,-1.8557,-1.839,-1.8152,-1.8024,-1.7921,-1.7922,-1.7858,-1.7763,-1.7763,-1.7763,-1.7779,-1.7707,-1.7715,-1.712,-1.5617,-1.4153,-1.2569,-1.1263,-1.075,-1.0677,-1.0584,-1.0575,-1.057,-1.0594,-1.0712,-1.0697,-1.0504,-1.0537,-1.0594,-1.0608,-1.0594,-1.057,-1.057,-1.057,-1.057,-1.057,-1.0499,-1.0485,-1.048,-1.0405,-1.0353,-1.0348,-1.0234,-1.0178,-1.0173,-1.0078,-1.0095,-1.0133,-1.0133,-1.01,-1.0081,-1.0067,-1.0038,-1.0038,-1.0038,-1.0038,-1.0038,-1.0038,-0.9951,-0.9864,-0.9689,-0.9515,-0.9257,-0.9082,-0.8911,-0.8744,-0.8656,-0.8656,-2.4161,-2.4161,-2.3737,-2.3637,-2.3637,-2.3229,-2.3038,-2.2828,-2.2417,-2.2224,-2.192,-2.1623,-2.1522,-2.142,-2.1318,-2.1216,-2.1121,-2.1019,-2.0925,-2.0893,-2.071,-2.0591,-2.0535,-2.0226,-1.9797,-1.9407,-1.9145,-1.8955,-1.8827,-1.8827,-1.8827,-1.8827,-1.8827,-1.8827,-1.8827,-1.8827,-1.8827,-1.8827,-1.8827,-1.8827,-1.8827,-1.8827,-1.8827,-1.8827,-1.8827,-1.8827,-1.8827,-1.8827,-1.8724,-1.8533,-1.8387,-1.8375,-1.8386,-1.8273,-1.816,-1.8168,-1.8168,-1.8176,-1.8176,-1.8213,-1.8088,-1.7341,-1.562,-1.3403,-1.1853,-1.113,-1.1263,-1.0896,-1.0816,-1.0806,-1.083,-1.092,-1.0934,-1.0825,-1.0816,-1.0806,-1.0801,-1.0801,-1.0811,-1.0825,-1.082,-1.0806,-1.0801,-1.0716,-1.0702,-1.0693,-1.0627,-1.057,-1.0546,-1.0456,-1.0414,-1.0376,-1.0319,-1.0258,-1.0206,-1.0154,-1.0176,-1.0138,-1.0022,-1.0067,-1.0038,-1.0038,-1.0038,-1.0038,-1.0038,-1.0038,-0.9864,-0.9864,-0.9694,-0.9432,-0.917,-0.8999,-0.8915,-0.8652,-0.8568,-2.4251,-2.4152,-2.4161,-2.4152,-2.4152,-2.4152,-2.3845,-2.3429,-2.322,-2.2929,-2.2627,-2.2426,-2.2434,-2.2325,-2.1928,-2.1717,-2.1623,-2.1216,-2.0917,-2.0925,-2.0877,-2.0861,-2.0805,-2.0496,-2.0043,-1.9582,-1.9431,-1.9209,-1.8931,-1.8915,-1.8843,-1.8835,-1.8827,-1.8827,-1.8827,-1.8827,-1.8827,-1.8827,-1.8827,-1.8827,-1.8827,-1.8827,-1.8827,-1.8827,-1.8827,-1.8827,-1.8827,-1.8827,-1.8827,-1.8819,-1.878,-1.8756,-1.8796,-1.8819,-1.8756,-1.8732,-1.8804,-1.8764,-1.8703,-1.8556,-1.8542,-1.8435,-1.6915,-1.5,-1.2672,-1.24,-1.2159,-1.1502,-1.123,-1.1151,-1.1151,-1.1165,-1.1161,-1.1179,-1.1118,-1.1127,-1.1175,-1.1161,-1.1118,-1.1142,-1.1184,-1.1179,-1.1127,-1.0995,-1.0934,-1.0886,-1.0773,-1.0712,-1.0669,-1.066,-1.0608,-1.0565,-1.0523,-1.0447,-1.0371,-1.0338,-1.0282,-1.0263,-1.0192,-1.0097,-1.0076,-1.0043,-1.0038,-1.0038,-1.0038,-1.0038,-1.0038,-0.9951,-0.9781,-0.9607,-0.9345,-0.9174,-0.8999,-0.874,-0.8652,-2.4726,-2.4251,-2.4161,-2.4161,-2.4161,-2.4161,-2.4152,-2.3945,-2.3429,-2.3229,-2.3029,-2.2627,-2.2526,-2.2526,-2.2434,-2.2131,-2.1827,-2.1522,-2.1224,-2.0925,-2.0925,-2.0925,-2.0853,-2.0575,-2.0313,-2.0083,-1.9836,-1.9558,-1.9248,-1.9209,-1.909,-1.8835,-1.8835,-1.8827,-1.8827,-1.8827,-1.8827,-1.8827,-1.8827,-1.8827,-1.8827,-1.8827,-1.8827,-1.8827,-1.8827,-1.8827,-1.8827,-1.8827,-1.8827,-1.8827,-1.8827,-1.8827,-1.8827,-1.8827,-1.8827,-1.8827,-1.8827,-1.8827,-1.8827,-1.8743,-1.8775,-1.8652,-1.7463,-1.6285,-1.5838,-1.3794,-1.2834,-1.2155,-1.1673,-1.1194,-1.1194,-1.1194,-1.1194,-1.1194,-1.1194,-1.1194,-1.1194,-1.1194,-1.1194,-1.1194,-1.1194,-1.1194,-1.1179,-1.1146,-1.1099,-1.1085,-1.1042,-1.0986,-1.0929,-1.0863,-1.0806,-1.0749,-1.0693,-1.0608,-1.0542,-1.0513,-1.0494,-1.049,-1.0409,-1.0282,-1.0126,-1.0062,-1.0047,-1.0038,-1.0038,-1.0038,-1.0038,-0.9951,-0.9777,-0.9607,-0.9519,-0.9345,-0.9087,-0.8823,-0.874,-2.5596,-2.5216,-2.5206,-2.5216,-2.5109,-2.4815,-2.4637,-2.4529,-2.3935,-2.3637,-2.3637,-2.3338,-2.3238,-2.3238,-2.2937,-2.2736,-2.2333,-2.2123,-2.1725,-2.1224,-2.1027,-2.0925,-2.0869,-2.0686,-2.0543,-2.0377,-2.0186,-1.9908,-1.9598,-1.9447,-1.9248,-1.9066,-1.8899,-1.8827,-1.8827,-1.8827,-1.8827,-1.8827,-1.8827,-1.8827,-1.8827,-1.8827,-1.8827,-1.8827,-1.8827,-1.8827,-1.8827,-1.8827,-1.8827,-1.8827,-1.8827,-1.8827,-1.8827,-1.8827,-1.8827,-1.8827,-1.8827,-1.8827,-1.8827,-1.8827,-1.8843,-1.8674,-1.78,-1.6943,-1.6008,-1.4472,-1.3619,-1.2058,-1.1482,-1.1292,-1.1194,-1.1194,-1.1194,-1.1194,-1.1194,-1.1194,-1.1194,-1.1194,-1.1194,-1.1194,-1.1194,-1.1194,-1.1194,-1.1194,-1.1194,-1.1189,-1.117,-1.1161,-1.1146,-1.1071,-1.1005,-1.0938,-1.092,-1.0872,-1.0801,-1.0764,-1.0712,-1.0702,-1.0627,-1.0494,-1.0301,-1.0186,-1.0119,-1.0105,-1.0067,-1.0038,-1.0038,-0.9951,-0.9864,-0.9689,-0.9694,-0.9519,-0.9257,-0.8999,-0.8823,-2.6552,-2.6456,-2.6456,-2.6456,-2.636,-2.5781,-2.5392,-2.5294,-2.4824,-2.4538,-2.443,-2.4341,-2.4233,-2.4251,-2.3637,-2.3329,-2.322,-2.2728,-2.2224,-2.1623,-2.1224,-2.0925,-2.0917,-2.0885,-2.0726,-2.0527,-2.0456,-2.0241,-1.9955,-1.9646,-1.9447,-1.9304,-1.9034,-1.8875,-1.8843,-1.8827,-1.8827,-1.8827,-1.8827,-1.8827,-1.8827,-1.8827,-1.8827,-1.8827,-1.8827,-1.8827,-1.8827,-1.8827,-1.8827,-1.8827,-1.8827,-1.8827,-1.8827,-1.8827,-1.8827,-1.8827,-1.8827,-1.8827,-1.8827,-1.8827,-1.8827,-1.8735,-1.845,-1.7475,-1.5853,-1.5222,-1.419,-1.2349,-1.1482,-1.1385,-1.1194,-1.1194,-1.1194,-1.1194,-1.1194,-1.1194,-1.1194,-1.1194,-1.1194,-1.1194,-1.1194,-1.1194,-1.1194,-1.1194,-1.1194,-1.1194,-1.1194,-1.1194,-1.1194,-1.1146,-1.1123,-1.1123,-1.1132,-1.1161,-1.109,-1.1028,-1.0962,-1.091,-1.0825,-1.0697,-1.0518,-1.0334,-1.0286,-1.021,-1.0186,-1.0119,-1.0038,-0.9951,-0.9873,-0.9777,-0.9777,-0.9607,-0.9349,-0.917,-0.8999,-2.702,-2.6456,-2.6456,-2.6456,-2.6456,-2.636,-2.6264,-2.6264,-2.6071,-2.5877,-2.5877,-2.5304,-2.5099,-2.5001,-2.4421,-2.3737,-2.352,-2.3229,-2.2627,-2.1725,-2.1121,-2.0925,-2.0925,-2.0925,-2.0877,-2.079,-2.0798,-2.0615,-2.0313,-2.013,-1.9884,-1.9431,-1.9304,-1.9113,-1.8883,-1.8843,-1.8827,-1.8827,-1.8827,-1.8827,-1.8827,-1.8827,-1.8827,-1.8827,-1.8827,-1.8827,-1.8827,-1.8827,-1.8827,-1.8827,-1.8827,-1.8827,-1.8827,-1.8827,-1.8827,-1.8827,-1.8827,-1.8827,-1.8827,-1.8827,-1.8827,-1.8735,-1.8542,-1.8179,-1.7908,-1.6149,-1.5108,-1.3776,-1.3017,-1.2058,-1.1287,-1.1194,-1.1194,-1.1194,-1.1194,-1.1194,-1.1194,-1.1194,-1.1194,-1.1194,-1.1194,-1.1194,-1.1194,-1.1194,-1.1194,-1.1194,-1.1194,-1.1194,-1.1194,-1.1194,-1.1194,-1.1194,-1.1194,-1.1194,-1.117,-1.1118,-1.109,-1.1052,-1.0986,-1.0929,-1.0745,-1.0608,-1.0475,-1.0343,-1.0225,-1.0149,-1.0186,-1.0076,-1.0003,-0.9979,-0.9873,-0.9781,-0.9607,-0.9345,-0.917,-2.7882,-2.76,-2.76,-2.76,-2.7515,-2.722,-2.703,-2.6935,-2.6638,-2.6456,-2.6456,-2.5964,-2.5868,-2.5877,-2.5489,-2.5099,-2.4796,-2.4304,-2.3311,-2.2123,-2.1632,-2.1428,-2.0925,-2.0925,-2.0925,-2.0925,-2.0917,-2.079,-2.0647,-2.0456,-2.0194,-1.9836,-1.955,-1.9288,-1.9058,-1.8907,-1.8835,-1.8827,-1.8827,-1.8827,-1.8827,-1.8827,-1.8827,-1.8827,-1.8827,-1.8827,-1.8827,-1.8827,-1.8827,-1.8827,-1.8827,-1.8827,-1.8827,-1.8827,-1.8827,-1.8827,-1.8827,-1.8827,-1.8827,-1.8827,-1.8827,-1.8827,-1.8643,-1.8706,-1.8668,-1.75,-1.6204,-1.4854,-1.3499,-1.2446,-1.1385,-1.1194,-1.1194,-1.1194,-1.1194,-1.1194,-1.1194,-1.1194,-1.1194,-1.1194,-1.1194,-1.1194,-1.1194,-1.1194,-1.1194,-1.1194,-1.1194,-1.1194,-1.1194,-1.1194,-1.1194,-1.1194,-1.1194,-1.1194,-1.1194,-1.1179,-1.1175,-1.1151,-1.1123,-1.109,-1.1009,-1.0886,-1.0778,-1.0603,-1.0414,-1.0395,-1.0329,-1.0201,-1.0093,-1.0107,-1.0088,-0.992,-0.9786,-0.9625,-0.9446,-2.885,-2.885,-2.885,-2.885,-2.8664,-2.8081,-2.7788,-2.7683,-2.7115,-2.703,-2.6839,-2.6744,-2.6638,-2.6648,-2.6456,-2.6456,-2.6157,-2.547,-2.3998,-2.2811,-2.2325,-2.2021,-2.1412,-2.1113,-2.0925,-2.0925,-2.0925,-2.0893,-2.0813,-2.0639,-2.0448,-2.0273,-1.9765,-1.9439,-1.9304,-1.9018,-1.8827,-1.8827,-1.8827,-1.8827,-1.8827,-1.8827,-1.8827,-1.8827,-1.8827,-1.8827,-1.8827,-1.8827,-1.8827,-1.8827,-1.8827,-1.8827,-1.8827,-1.8827,-1.8827,-1.8827,-1.8827,-1.8827,-1.8827,-1.8827,-1.8827,-1.8827,-1.8827,-1.879,-1.8707,-1.8535,-1.7327,-1.5445,-1.3884,-1.2543,-1.158,-1.1292,-1.1194,-1.1194,-1.1194,-1.1194,-1.1194,-1.1194,-1.1194,-1.1194,-1.1194,-1.1194,-1.1194,-1.1194,-1.1194,-1.1194,-1.1194,-1.1194,-1.1194,-1.1194,-1.1194,-1.1194,-1.1194,-1.1194,-1.1194,-1.1194,-1.1194,-1.1194,-1.1194,-1.1184,-1.117,-1.1085,-1.0938,-1.0759,-1.0622,-1.0594,-1.0527,-1.0395,-1.0315,-1.0291,-1.0249,-1.0201,-1.0028,-0.9846,-0.9745,-2.885,-2.885,-2.885,-2.885,-2.8757,-2.8653,-2.856,-2.856,-2.8362,-2.8373,-2.8269,-2.7694,-2.74,-2.7305,-2.6744,-2.637,-2.6071,-2.5586,-2.4884,-2.4097,-2.3311,-2.2417,-2.2198,-2.131,-2.0925,-2.0925,-2.0925,-2.0925,-2.0917,-2.0845,-2.0662,-2.0369,-1.9995,-1.9685,-1.9368,-1.9034,-1.8859,-1.8827,-1.8827,-1.8827,-1.8827,-1.8827,-1.8827,-1.8827,-1.8827,-1.8827,-1.8827,-1.8827,-1.8827,-1.8827,-1.8827,-1.8827,-1.8827,-1.8827,-1.8827,-1.8827,-1.8827,-1.8827,-1.8827,-1.8827,-1.8827,-1.8827,-1.8827,-1.8827,-1.879,-1.8721,-1.7759,-1.6204,-1.4166,-1.2732,-1.2446,-1.1678,-1.1292,-1.1194,-1.1194,-1.1194,-1.1194,-1.1194,-1.1194,-1.1194,-1.1194,-1.1194,-1.1194,-1.1194,-1.1194,-1.1194,-1.1194,-1.1194,-1.1194,-1.1194,-1.1194,-1.1194,-1.1194,-1.1194,-1.1194,-1.1194,-1.1194,-1.1194,-1.1194,-1.1194,-1.1184,-1.1189,-1.108,-1.091,-1.0816,-1.0783,-1.0693,-1.0589,-1.0537,-1.0513,-1.0461,-1.04,-1.0215,-1.0121,-0.9869,-2.885,-2.885,-2.885,-2.885,-2.885,-2.885,-2.885,-2.885,-2.885,-2.885,-2.8653,-2.8362,-2.8258,-2.807,-2.7715,-2.704,-2.6264,-2.637,-2.5674,-2.4786,-2.3809,-2.3011,-2.2702,-2.1522,-2.1019,-2.0925,-2.0925,-2.0925,-2.0925,-2.0917,-2.0821,-2.0647,-2.0313,-1.9963,-1.963,-1.9304,-1.9018,-1.8899,-1.8827,-1.8827,-1.8827,-1.8827,-1.8827,-1.8827,-1.8827,-1.8827,-1.8827,-1.8827,-1.8827,-1.8827,-1.8827,-1.8827,-1.8827,-1.8827,-1.8827,-1.8827,-1.8827,-1.8827,-1.8827,-1.8827,-1.8827,-1.8827,-1.8827,-1.8827,-1.8827,-1.8658,-1.8001,-1.6372,-1.493,-1.3307,-1.2355,-1.1678,-1.1292,-1.1194,-1.1194,-1.1194,-1.1194,-1.1194,-1.1194,-1.1292,-1.1287,-1.1292,-1.1194,-1.1194,-1.1194,-1.1194,-1.1194,-1.1194,-1.1194,-1.1194,-1.1194,-1.1194,-1.1194,-1.1194,-1.1194,-1.1194,-1.1194,-1.1194,-1.1194,-1.1194,-1.1194,-1.1194,-1.1175,-1.1085,-1.1019,-1.0953,-1.0934,-1.0858,-1.0801,-1.0726,-1.0631,-1.0546,-1.048,-1.0313,-1.0153,-2.885,-2.885,-2.885,-2.885,-2.885,-2.885,-2.885,-2.885,-2.885,-2.885,-2.885,-2.8757,-2.8757,-2.8664,-2.8279,-2.761,-2.6542,-2.7231,-2.6456,-2.5266,-2.4295,-2.3601,-2.282,-2.1623,-2.0925,-2.0925,-2.0925,-2.0925,-2.0925,-2.0925,-2.0925,-2.0782,-2.0551,-2.021,-1.9844,-1.9479,-1.9185,-1.8939,-1.8827,-1.8827,-1.8827,-1.8827,-1.8827,-1.8827,-1.8827,-1.8827,-1.8827,-1.8827,-1.8827,-1.8827,-1.8827,-1.8827,-1.8827,-1.8827,-1.8827,-1.8827,-1.8827,-1.8827,-1.8827,-1.8827,-1.8827,-1.8827,-1.8827,-1.8827,-1.8735,-1.8643,-1.8079,-1.656,-1.5419,-1.4268,-1.3028,-1.1965,-1.1482,-1.1194,-1.1194,-1.1194,-1.1287,-1.1385,-1.1482,-1.1482,-1.1385,-1.1287,-1.1292,-1.1194,-1.1194,-1.1194,-1.1194,-1.1194,-1.1194,-1.1194,-1.1194,-1.1194,-1.1194,-1.1194,-1.1194,-1.1194,-1.1194,-1.1194,-1.1194,-1.1194,-1.1194,-1.1194,-1.117,-1.1156,-1.1156,-1.1099,-1.1109,-1.1099,-1.1009,-1.0905,-1.0783,-1.0702,-1.0669,-1.0631,-1.0482,-2.885,-2.885,-2.885,-2.885,-2.885,-2.885,-2.885,-2.885,-2.885,-2.885,-2.885,-2.8757,-2.8757,-2.8664,-2.8279,-2.7893,-2.7704,-2.7336,-2.7146,-2.6456,-2.4973,-2.4097,-2.38,-2.181,-2.1019,-2.0925,-2.0925,-2.0925,-2.0925,-2.0925,-2.0925,-2.0845,-2.0599,-2.0234,-1.994,-1.9622,-1.9193,-1.8907,-1.8835,-1.8827,-1.8827,-1.8827,-1.8827,-1.8827,-1.8827,-1.8827,-1.8827,-1.8827,-1.8827,-1.8827,-1.8827,-1.8827,-1.8827,-1.8827,-1.8827,-1.8827,-1.8827,-1.8827,-1.8827,-1.8827,-1.8827,-1.8827,-1.8827,-1.8827,-1.8735,-1.8651,-1.8373,-1.8288,-1.6857,-1.5514,-1.4172,-1.321,-1.2252,-1.1678,-1.1482,-1.1292,-1.1292,-1.1482,-1.158,-1.1575,-1.1477,-1.1385,-1.1385,-1.1292,-1.1194,-1.1194,-1.1194,-1.1194,-1.1194,-1.1194,-1.1194,-1.1194,-1.1194,-1.1194,-1.1194,-1.1194,-1.1194,-1.1194,-1.1194,-1.1194,-1.1194,-1.1194,-1.1194,-1.1184,-1.1194,-1.1194,-1.1165,-1.1151,-1.1151,-1.1094,-1.0986,-1.0924,-1.0882,-1.0844,-1.0801,-2.885,-2.885,-2.885,-2.885,-2.885,-2.885,-2.885,-2.885,-2.885,-2.885,-2.885,-2.885,-2.8757,-2.8571,-2.8186,-2.7904,-2.7726,-2.7441,-2.7357,-2.6955,-2.5275,-2.4187,-2.3692,-2.2106,-2.0925,-2.1019,-2.0925,-2.0925,-2.0925,-2.0925,-2.0925,-2.0893,-2.0758,-2.0535,-2.0122,-1.9812,-1.9487,-1.9185,-1.8962,-1.8835,-1.8827,-1.8827,-1.8827,-1.8827,-1.8827,-1.8827,-1.8827,-1.8827,-1.8827,-1.8827,-1.8827,-1.8827,-1.8827,-1.8827,-1.8827,-1.8827,-1.8827,-1.8827,-1.8827,-1.8827,-1.8827,-1.8827,-1.8827,-1.8827,-1.8743,-1.8743,-1.8458,-1.7986,-1.703,-1.6082,-1.5317,-1.4268,-1.3307,-1.2538,-1.2155,-1.1673,-1.158,-1.1482,-1.1575,-1.1575,-1.1575,-1.158,-1.1482,-1.1292,-1.1194,-1.1194,-1.1194,-1.1194,-1.1194,-1.1194,-1.1194,-1.1194,-1.1194,-1.1194,-1.1194,-1.1194,-1.1194,-1.1194,-1.1194,-1.1194,-1.1194,-1.1194,-1.1194,-1.1194,-1.1194,-1.1194,-1.1194,-1.1189,-1.1175,-1.1179,-1.1189,-1.1109,-1.1033,-1.1057,-1.0995,-2.885,-2.885,-2.885,-2.885,-2.885,-2.885,-2.885,-2.885,-2.885,-2.885,-2.885,-2.8757,-2.8664,-2.8488,-2.8301,-2.8008,-2.782,-2.7536,-2.7251,-2.6456,-2.5373,-2.4295,-2.3502,-2.2123,-2.1318,-2.1318,-2.142,-2.1326,-2.1224,-2.1121,-2.1121,-2.0925,-2.0885,-2.0686,-2.0377,-1.9995,-1.9614,-1.9153,-1.8939,-1.8843,-1.8827,-1.8827,-1.8827,-1.8827,-1.8827,-1.8827,-1.8827,-1.8827,-1.8827,-1.8827,-1.8827,-1.8827,-1.8827,-1.8827,-1.8827,-1.8827,-1.8827,-1.8827,-1.8827,-1.8827,-1.8827,-1.8827,-1.8827,-1.8827,-1.8827,-1.8827,-1.8635,-1.8164,-1.7606,-1.6842,-1.6075,-1.5222,-1.4459,-1.3788,-1.321,-1.2635,-1.2247,-1.2538,-1.2441,-1.2155,-1.2155,-1.1873,-1.1678,-1.1292,-1.1194,-1.1194,-1.1194,-1.1194,-1.1194,-1.1194,-1.1194,-1.1194,-1.1194,-1.1194,-1.1194,-1.1194,-1.1194,-1.1194,-1.1194,-1.1194,-1.1194,-1.1194,-1.1194,-1.1194,-1.1194,-1.1194,-1.1194,-1.1194,-1.1194,-1.1194,-1.1194,-1.1194,-1.1175,-1.1194,-1.117,-2.885,-2.885,-2.885,-2.885,-2.885,-2.885,-2.885,-2.885,-2.885,-2.885,-2.885,-2.8757,-2.8757,-2.8675,-2.8488,-2.8312,-2.8312,-2.8092,-2.7326,-2.6456,-2.5479,-2.4501,-2.3619,-2.2728,-2.2224,-2.2224,-2.2123,-2.1928,-2.1725,-2.1522,-2.1326,-2.1027,-2.0925,-2.0694,-2.0408,-2.0067,-1.9526,-1.909,-1.8851,-1.8835,-1.8827,-1.8827,-1.8827,-1.8827,-1.8827,-1.8827,-1.8827,-1.8827,-1.8827,-1.8827,-1.8827,-1.8827,-1.8827,-1.8827,-1.8827,-1.8827,-1.8827,-1.8827,-1.8827,-1.8827,-1.8827,-1.8827,-1.8827,-1.8827,-1.8827,-1.8827,-1.8735,-1.8643,-1.8187,-1.78,-1.7037,-1.6365,-1.5609,-1.4937,-1.4358,-1.3884,-1.3782,-1.4262,-1.3974,-1.321,-1.2635,-1.2349,-1.1873,-1.1482,-1.1194,-1.1194,-1.1194,-1.1194,-1.1194,-1.1194,-1.1194,-1.1194,-1.1194,-1.1194,-1.1194,-1.1194,-1.1194,-1.1194,-1.1194,-1.1194,-1.1194,-1.1194,-1.1194,-1.1194,-1.1194,-1.1194,-1.1194,-1.1194,-1.1194,-1.1194,-1.1194,-1.1194,-1.1194,-1.1194,-1.1194,-2.885,-2.885,-2.885,-2.885,-2.885,-2.885,-2.885,-2.885,-2.885,-2.885,-2.885,-2.885,-2.885,-2.8757,-2.8581,-2.8405,-2.8405,-2.8092,-2.7421,-2.6552,-2.5684,-2.4707,-2.3827,-2.3029,-2.2426,-2.2526,-2.2526,-2.2426,-2.2224,-2.192,-2.1623,-2.1326,-2.1019,-2.0869,-2.0591,-2.0122,-1.9503,-1.9018,-1.8827,-1.8827,-1.8827,-1.8827,-1.8827,-1.8827,-1.8827,-1.8827,-1.8827,-1.8827,-1.8827,-1.8827,-1.8827,-1.8827,-1.8827,-1.8827,-1.8827,-1.8827,-1.8827,-1.8827,-1.8827,-1.8827,-1.8827,-1.8827,-1.8827,-1.8827,-1.8827,-1.8827,-1.8827,-1.8743,-1.8666,-1.8187,-1.8172,-1.7606,-1.7037,-1.6177,-1.5507,-1.5127,-1.5032,-1.5412,-1.5127,-1.407,-1.3307,-1.2732,-1.216,-1.158,-1.1389,-1.1194,-1.1194,-1.1194,-1.1194,-1.1194,-1.1194,-1.1194,-1.1194,-1.1194,-1.1194,-1.1194,-1.1194,-1.1194,-1.1194,-1.1194,-1.1194,-1.1194,-1.1194,-1.1194,-1.1194,-1.1194,-1.1194,-1.1194,-1.1194,-1.1194,-1.1194,-1.1194,-1.1194,-1.1194,-1.1194,-2.885,-2.885,-2.885,-2.885,-2.885,-2.885,-2.885,-2.885,-2.885,-2.885,-2.885,-2.885,-2.885,-2.8757,-2.8664,-2.8581,-2.8477,-2.8279,-2.7505,-2.6638,-2.5868,-2.4894,-2.4016,-2.3438,-2.3138,-2.3038,-2.3029,-2.3029,-2.2719,-2.2224,-2.1928,-2.1522,-2.1224,-2.0909,-2.075,-2.0218,-1.9526,-1.8994,-1.8827,-1.8827,-1.8827,-1.8827,-1.8827,-1.8827,-1.8827,-1.8827,-1.8827,-1.8827,-1.8827,-1.8827,-1.8827,-1.8827,-1.8827,-1.8827,-1.8827,-1.8827,-1.8827,-1.8827,-1.8827,-1.8827,-1.8827,-1.8827,-1.8827,-1.8827,-1.8827,-1.8827,-1.8827,-1.8827,-1.8658,-1.8658,-1.8827,-1.8272,-1.7893,-1.703,-1.6756,-1.6379,-1.5893,-1.5988,-1.5507,-1.4841,-1.4262,-1.3692,-1.2349,-1.1775,-1.1482,-1.1292,-1.1194,-1.1194,-1.1194,-1.1194,-1.1194,-1.1194,-1.1194,-1.1194,-1.1194,-1.1194,-1.1194,-1.1194,-1.1194,-1.1194,-1.1194,-1.1194,-1.1194,-1.1194,-1.1194,-1.1194,-1.1194,-1.1194,-1.1194,-1.1194,-1.1194,-1.1194,-1.1194,-1.1194,-1.1194,-2.885,-2.885,-2.885,-2.885,-2.885,-2.885,-2.885,-2.885,-2.885,-2.885,-2.885,-2.885,-2.885,-2.8757,-2.8757,-2.8757,-2.8757,-2.8653,-2.7872,-2.6532,-2.6254,-2.5178,-2.4313,-2.3836,-2.3854,-2.4053,-2.3945,-2.3637,-2.3329,-2.2627,-2.2224,-2.1725,-2.1224,-2.0885,-2.0837,-2.0218,-1.9519,-1.8939,-1.8875,-1.8827,-1.8827,-1.8827,-1.8827,-1.8827,-1.8827,-1.8827,-1.8827,-1.8827,-1.8827,-1.8827,-1.8827,-1.8827,-1.8827,-1.8827,-1.8827,-1.8827,-1.8827,-1.8827,-1.8827,-1.8827,-1.8827,-1.8827,-1.8827,-1.8827,-1.8827,-1.8827,-1.8827,-1.8827,-1.8735,-1.8735,-1.8735,-1.8651,-1.8272,-1.79,-1.7621,-1.7239,-1.6756,-1.656,-1.6082,-1.5704,-1.5507,-1.5026,-1.3307,-1.2063,-1.158,-1.1287,-1.1194,-1.1194,-1.1194,-1.1194,-1.1194,-1.1194,-1.1194,-1.1194,-1.1194,-1.1194,-1.1194,-1.1194,-1.1194,-1.1194,-1.1194,-1.1194,-1.1194,-1.1194,-1.1194,-1.1194,-1.1194,-1.1194,-1.1194,-1.1194,-1.1194,-1.1194,-1.1194,-1.1194,-1.1194,-2.885,-2.885,-2.885,-2.885,-2.885,-2.885,-2.885,-2.885,-2.885,-2.885,-2.885,-2.885,-2.885,-2.885,-2.885,-2.885,-2.885,-2.8757,-2.7882,-2.7105,-2.6733,-2.5771,-2.4913,-2.443,-2.435,-2.4251,-2.4152,-2.4143,-2.3836,-2.3029,-2.2526,-2.2131,-2.1302,-2.0782,-2.0519,-2.0067,-1.9606,-1.9217,-1.8994,-1.8827,-1.8827,-1.8827,-1.8827,-1.8827,-1.8827,-1.8827,-1.8827,-1.8827,-1.8827,-1.8827,-1.8827,-1.8827,-1.8827,-1.8827,-1.8827,-1.8827,-1.8827,-1.8827,-1.8827,-1.8827,-1.8827,-1.8827,-1.8827,-1.8827,-1.8827,-1.8827,-1.8827,-1.8827,-1.8827,-1.8827,-1.8735,-1.8735,-1.8458,-1.8179,-1.7807,-1.7613,-1.7232,-1.7138,-1.6951,-1.6567,-1.6278,-1.5412,-1.398,-1.2926,-1.2252,-1.177,-1.1673,-1.1292,-1.1194,-1.1194,-1.1194,-1.1194,-1.1194,-1.1194,-1.1194,-1.1194,-1.1194,-1.1194,-1.1194,-1.1194,-1.1194,-1.1194,-1.1194,-1.1194,-1.1194,-1.1194,-1.1194,-1.1194,-1.1194,-1.1194,-1.1194,-1.1194,-1.1194,-1.1194,-1.1194,-2.885,-2.885,-2.885,-2.885,-2.885,-2.885,-2.885,-2.885,-2.885,-2.885,-2.885,-2.885,-2.885,-2.885,-2.885,-2.885,-2.885,-2.8757,-2.8362,-2.7589,-2.7115,-2.6446,-2.5781,-2.5206,-2.5206,-2.4922,-2.4627,-2.4529,-2.4529,-2.3129,-2.2325,-2.1725,-2.1318,-2.0923,-2.0527,-2.017,-1.9693,-1.9328,-1.9042,-1.8827,-1.8827,-1.8827,-1.8827,-1.8827,-1.8827,-1.8827,-1.8827,-1.8827,-1.8827,-1.8827,-1.8827,-1.8827,-1.8827,-1.8827,-1.8827,-1.8827,-1.8827,-1.8827,-1.8827,-1.8827,-1.8827,-1.8827,-1.8827,-1.8827,-1.8827,-1.8827,-1.8827,-1.8827,-1.8827,-1.8827,-1.8827,-1.8827,-1.8643,-1.8272,-1.7994,-1.78,-1.7426,-1.7333,-1.7239,-1.7044,-1.6756,-1.5798,-1.4937,-1.3974,-1.3113,-1.263,-1.2155,-1.177,-1.1292,-1.1194,-1.1194,-1.1194,-1.1194,-1.1194,-1.1194,-1.1194,-1.1194,-1.1194,-1.1194,-1.1194,-1.1194,-1.1194,-1.1194,-1.1194,-1.1194,-1.1194,-1.1194,-1.1194,-1.1194,-1.1194,-1.1194,-1.1194,-1.1194,-1.1194,-1.1194,-2.885,-2.885,-2.885,-2.885,-2.885,-2.885,-2.885,-2.885,-2.885,-2.885,-2.885,-2.885,-2.885,-2.885,-2.885,-2.885,-2.885,-2.885,-2.8373,-2.7882,-2.7494,-2.702,-2.6638,-2.636,-2.6071,-2.5974,-2.5684,-2.5011,-2.5001,-2.342,-2.2021,-2.1216,-2.1019,-2.0869,-2.0655,-2.0289,-1.982,-1.9479,-1.9058,-1.8875,-1.8827,-1.8827,-1.8827,-1.8827,-1.8827,-1.8827,-1.8827,-1.8827,-1.8827,-1.8827,-1.8827,-1.8827,-1.8827,-1.8827,-1.8827,-1.8827,-1.8827,-1.8827,-1.8827,-1.8827,-1.8827,-1.8827,-1.8827,-1.8827,-1.8827,-1.8827,-1.8827,-1.8827,-1.8827,-1.8827,-1.8827,-1.8735,-1.8643,-1.8365,-1.8087,-1.78,-1.7426,-1.7333,-1.7333,-1.7239,-1.7239,-1.6662,-1.5893,-1.5026,-1.407,-1.3686,-1.3113,-1.2344,-1.1868,-1.1296,-1.1194,-1.1194,-1.1194,-1.1194,-1.1194,-1.1194,-1.1194,-1.1194,-1.1194,-1.1194,-1.1194,-1.1194,-1.1194,-1.1194,-1.1194,-1.1194,-1.1194,-1.1194,-1.1194,-1.1194,-1.1194,-1.1194,-1.1194,-1.1194,-1.1194,-2.885,-2.885,-2.885,-2.885,-2.885,-2.885,-2.885,-2.885,-2.885,-2.885,-2.885,-2.885,-2.885,-2.885,-2.885,-2.885,-2.885,-2.8757,-2.8664,-2.8362,-2.7882,-2.7589,-2.721,-2.6935,-2.6648,-2.6264,-2.5877,-2.5294,-2.4903,-2.342,-2.192,-2.1121,-2.0917,-2.0917,-2.0766,-2.0464,-2.0075,-1.9662,-1.9169,-1.8923,-1.8835,-1.8827,-1.8827,-1.8827,-1.8827,-1.8827,-1.8827,-1.8827,-1.8827,-1.8827,-1.8827,-1.8827,-1.8827,-1.8827,-1.8827,-1.8827,-1.8827,-1.8827,-1.8827,-1.8827,-1.8827,-1.8827,-1.8827,-1.8827,-1.8827,-1.8827,-1.8827,-1.8827,-1.8827,-1.8827,-1.8827,-1.8735,-1.855,-1.8272,-1.8087,-1.78,-1.752,-1.7333,-1.7333,-1.7333,-1.7333,-1.7138,-1.6466,-1.5988,-1.5222,-1.4835,-1.4166,-1.3403,-1.2543,-1.1868,-1.1292,-1.1194,-1.1194,-1.1194,-1.1194,-1.1194,-1.1194,-1.1194,-1.1194,-1.1194,-1.1194,-1.1194,-1.1194,-1.1194,-1.1194,-1.1194,-1.1194,-1.1194,-1.1194,-1.1194,-1.1194,-1.1194,-1.1194,-1.1194,-1.1194,-2.885,-2.885,-2.885,-2.885,-2.885,-2.885,-2.885,-2.885,-2.885,-2.885,-2.885,-2.885,-2.885,-2.885,-2.885,-2.885,-2.885,-2.885,-2.8757,-2.8653,-2.8269,-2.8175,-2.7893,-2.76,-2.7305,-2.6829,-2.6157,-2.5684,-2.4903,-2.352,-2.203,-2.1326,-2.1019,-2.0917,-2.0805,-2.0559,-2.0305,-1.99,-1.9479,-1.9058,-1.8891,-1.8835,-1.8827,-1.8827,-1.8827,-1.8827,-1.8827,-1.8827,-1.8827,-1.8827,-1.8827,-1.8827,-1.8827,-1.8827,-1.8827,-1.8827,-1.8827,-1.8827,-1.8827,-1.8827,-1.8827,-1.8827,-1.8827,-1.8827,-1.8827,-1.8827,-1.8827,-1.8827,-1.8827,-1.8827,-1.8827,-1.8735,-1.8458,-1.8179,-1.7986,-1.78,-1.7613,-1.7333,-1.7333,-1.7333,-1.7333,-1.7333,-1.7044,-1.6567,-1.6183,-1.5602,-1.5032,-1.4453,-1.3499,-1.2635,-1.1775,-1.1292,-1.1194,-1.1194,-1.1194,-1.1194,-1.1194,-1.1194,-1.1194,-1.1194,-1.1194,-1.1194,-1.1194,-1.1194,-1.1194,-1.1194,-1.1194,-1.1194,-1.1194,-1.1194,-1.1194,-1.1194,-1.1194,-1.1194,-1.1194,-2.885,-2.885,-2.885,-2.885,-2.885,-2.885,-2.885,-2.885,-2.885,-2.885,-2.885,-2.885,-2.885,-2.885,-2.885,-2.885,-2.885,-2.885,-2.885,-2.885,-2.8664,-2.8653,-2.8664,-2.8757,-2.8175,-2.76,-2.6733,-2.5771,-2.4698,-2.3411,-2.2224,-2.1733,-2.1121,-2.0925,-2.0869,-2.067,-2.0448,-2.021,-1.9797,-1.9383,-1.9002,-1.8875,-1.8827,-1.8827,-1.8827,-1.8827,-1.8827,-1.8827,-1.8827,-1.8827,-1.8827,-1.8827,-1.8827,-1.8827,-1.8827,-1.8827,-1.8827,-1.8827,-1.8827,-1.8827,-1.8827,-1.8827,-1.8827,-1.8827,-1.8827,-1.8827,-1.8827,-1.8827,-1.8827,-1.8827,-1.8827,-1.8735,-1.855,-1.8272,-1.8087,-1.79,-1.7621,-1.7426,-1.7333,-1.7333,-1.7333,-1.7333,-1.7239,-1.6857,-1.6756,-1.6183,-1.5893,-1.5412,-1.4644,-1.3596,-1.2635,-1.1775,-1.1292,-1.1292,-1.1194,-1.1194,-1.1194,-1.1194,-1.1194,-1.1194,-1.1194,-1.1194,-1.1194,-1.1194,-1.1194,-1.1194,-1.1194,-1.1194,-1.1194,-1.1194,-1.1194,-1.1194,-1.1194,-1.1194,-1.1194,-2.885,-2.885,-2.885,-2.885,-2.885,-2.885,-2.885,-2.885,-2.885,-2.885,-2.885,-2.885,-2.885,-2.885,-2.885,-2.885,-2.885,-2.885,-2.885,-2.885,-2.885,-2.885,-2.885,-2.8757,-2.856,-2.8186,-2.7125,-2.5674,-2.4393,-2.3211,-2.2325,-2.1725,-2.1318,-2.1113,-2.0917,-2.075,-2.0647,-2.0456,-2.0186,-1.9757,-1.9352,-1.8994,-1.8827,-1.8827,-1.8827,-1.8827,-1.8827,-1.8827,-1.8827,-1.8827,-1.8827,-1.8827,-1.8827,-1.8827,-1.8827,-1.8827,-1.8827,-1.8827,-1.8827,-1.8827,-1.8827,-1.8827,-1.8827,-1.8827,-1.8827,-1.8827,-1.8827,-1.8827,-1.8827,-1.8827,-1.8827,-1.8735,-1.8735,-1.8465,-1.8187,-1.7908,-1.7621,-1.7434,-1.7333,-1.7333,-1.7333,-1.7333,-1.7333,-1.7239,-1.7138,-1.7044,-1.7044,-1.6655,-1.5893,-1.4937,-1.398,-1.2926,-1.158,-1.1389,-1.1292,-1.1194,-1.1194,-1.1194,-1.1194,-1.1194,-1.1194,-1.1194,-1.1194,-1.1194,-1.1194,-1.1194,-1.1194,-1.1194,-1.1194,-1.1194,-1.1194,-1.1194,-1.1194,-1.1194,-1.1194,-2.885,-2.885,-2.885,-2.885,-2.885,-2.885,-2.885,-2.885,-2.885,-2.885,-2.885,-2.885,-2.885,-2.885,-2.885,-2.885,-2.885,-2.885,-2.885,-2.885,-2.885,-2.885,-2.885,-2.8757,-2.8466,-2.8081,-2.7115,-2.5761,-2.459,-2.4187,-2.3692,-2.271,-2.2106,-2.1514,-2.1113,-2.0901,-2.0923,-2.0639,-2.0596,-2.017,-1.9725,-1.9368,-1.8978,-1.8915,-1.8827,-1.8827,-1.8827,-1.8827,-1.8827,-1.8827,-1.8827,-1.8827,-1.8827,-1.8827,-1.8827,-1.8827,-1.8827,-1.8827,-1.8827,-1.8827,-1.8827,-1.8827,-1.8827,-1.8827,-1.8827,-1.8827,-1.8827,-1.8827,-1.8827,-1.8827,-1.8827,-1.8735,-1.8651,-1.8473,-1.8187,-1.79,-1.7621,-1.7333,-1.7333,-1.7333,-1.7333,-1.7333,-1.7333,-1.7333,-1.7239,-1.7239,-1.7239,-1.7333,-1.6662,-1.6089,-1.5127,-1.4268,-1.2926,-1.2058,-1.2058,-1.1673,-1.1194,-1.1194,-1.1292,-1.1194,-1.1194,-1.1194,-1.1194,-1.1194,-1.1194,-1.1194,-1.1194,-1.1194,-1.1194,-1.1194,-1.1194,-1.1194,-1.1194,-1.1194,-1.1194,-2.885,-2.885,-2.885,-2.885,-2.885,-2.885,-2.885,-2.885,-2.885,-2.885,-2.885,-2.885,-2.885,-2.885,-2.885,-2.885,-2.885,-2.885,-2.885,-2.885,-2.885,-2.885,-2.885,-2.8757,-2.8362,-2.7788,-2.702,-2.6638,-2.6061,-2.5557,-2.4767,-2.398,-2.3294,-2.2601,-2.1717,-2.1318,-2.1464,-2.129,-2.1059,-2.0672,-2.0221,-1.9749,-1.9288,-1.9002,-1.8851,-1.8835,-1.8827,-1.8827,-1.8827,-1.8827,-1.8827,-1.8827,-1.8827,-1.8827,-1.8827,-1.8827,-1.8827,-1.8827,-1.8827,-1.8827,-1.8827,-1.8827,-1.8827,-1.8827,-1.8827,-1.8827,-1.8827,-1.8827,-1.8827,-1.8827,-1.8827,-1.8735,-1.8651,-1.8473,-1.8179,-1.79,-1.7621,-1.7333,-1.7333,-1.7333,-1.7333,-1.7333,-1.7333,-1.7333,-1.7333,-1.7333,-1.7333,-1.7333,-1.7138,-1.6756,-1.6082,-1.5317,-1.4453,-1.3686,-1.3017,-1.2252,-1.1673,-1.1482,-1.158,-1.1389,-1.1194,-1.1194,-1.1194,-1.1194,-1.1194,-1.1194,-1.1194,-1.1194,-1.1194,-1.1194,-1.1194,-1.1194,-1.1194,-1.1194,-1.1194,-2.885,-2.885,-2.885,-2.885,-2.885,-2.885,-2.885,-2.885,-2.885,-2.885,-2.885,-2.885,-2.885,-2.885,-2.885,-2.885,-2.885,-2.885,-2.885,-2.885,-2.885,-2.885,-2.885,-2.8757,-2.8258,-2.7882,-2.7494,-2.7115,-2.703,-2.6234,-2.5644,-2.5246,-2.4482,-2.4088,-2.3899,-2.3402,-2.2702,-2.2165,-2.1634,-2.1377,-2.0373,-1.9876,-1.9455,-1.9177,-1.8978,-1.8891,-1.8827,-1.8827,-1.8827,-1.8827,-1.8827,-1.8827,-1.8827,-1.8827,-1.8827,-1.8827,-1.8827,-1.8827,-1.8827,-1.8827,-1.8827,-1.8827,-1.8827,-1.8827,-1.8827,-1.8827,-1.8827,-1.8827,-1.8827,-1.8827,-1.8827,-1.8827,-1.8743,-1.855,-1.8272,-1.7994,-1.7628,-1.7434,-1.7333,-1.7333,-1.7333,-1.7333,-1.7333,-1.7333,-1.7333,-1.7333,-1.7333,-1.7333,-1.7333,-1.7138,-1.6943,-1.6365,-1.5697,-1.4937,-1.4172,-1.3113,-1.2441,-1.2155,-1.1775,-1.1385,-1.1194,-1.1194,-1.1194,-1.1194,-1.1194,-1.1194,-1.1194,-1.1194,-1.1194,-1.1194,-1.1194,-1.1194,-1.1194,-1.1194,-1.1194]},{"header":{"parameterUnit":"m.s-1","parameterCategory":1,"la1":31.0,"la2":29.5877,"lo1":-88.7671,"lo2":-86.6584,"dy":0.0162,"dx":0.0185,"nx":115,"ny":88,"refTime":"2023-06-30T06:00:00:Z","depth":0,"parameterNumber":3,"parameterNumberName":"V-component_of_WINDS"},"data":[0.0,0.0,0.0,0.0,0.0,0.0,0.0,0.0,0.0,0.0,0.0,0.0,0.0,0.0,0.0,0.0,0.0,0.0,0.0,0.0,0.0,0.0,0.0,0.0,0.0,0.0,0.0,0.0,0.0,0.0,0.0,0.0,0.0,0.0,0.0,0.0,0.0,0.0,0.0,0.0,0.0,0.0,0.0,0.0,0.0,0.0,0.0,0.0,0.0,0.0,0.0,0.0,0.0,0.0,0.0,0.0,0.0,0.0,0.0,0.0,0.0,0.0,0.0,0.0,0.0,0.0,0.0,0.0,0.0,0.0,0.0,0.0,0.0,0.0,0.0,0.0,0.0,0.0,0.0,0.0,0.0,0.0,0.0,0.0,0.0,0.0,0.0,0.0,0.0,0.0,0.0,0.0,0.0,0.0,0.0,0.0,0.0,0.0,0.0,0.0,0.0,0.0,0.0,0.0,0.0,0.0,0.0,0.0,0.0,0.0,0.0,0.0,0.0,0.0,0.0,0.0,0.0,0.0,0.0,0.0,0.0,0.0,0.0,0.0,0.0,0.0,0.0,0.0,0.0,0.0,0.0,0.0,0.0,0.0,0.0,0.0,0.0,0.0,0.0,0.0,0.0,0.0,0.0,0.0,0.0,0.0,0.0,0.0,0.0,0.0,0.0,0.0,0.0,0.0,0.0,0.0,0.0,0.0,0.0,0.0,0.0,0.0,0.0,0.0,0.0,0.0,0.0,0.0,0.0,0.0,0.0,0.0,0.0,0.0,0.0,0.0,0.0,0.0,0.0,0.0,0.0,0.0,0.0,0.0,0.0,0.0,0.0,0.0,0.0,0.0,0.0,0.0,0.0,0.0,0.0,0.0,0.0,0.0,0.0,0.0,0.0,0.0,0.0,0.0,0.0,0.0,0.0,0.0,0.0,0.0,0.0,0.0,0.0,0.0,0.0,0.0,0.0,0.0,0.0,0.0,0.0,0.0,0.0,0.0,0.0,0.0,0.0,0.0,0.0,0.0,0.0,0.0,0.0,0.0,0.0,0.0,0.0,0.0,0.0,0.0,0.0,0.0,0.0,0.0,0.0,0.0,0.0,0.0,0.0,0.0,0.0,0.0,0.0,0.0,0.0,0.0,0.0,0.0,0.0,0.0,0.0,0.0,0.0,0.0,0.0,0.0,0.0,0.0,0.0,0.0,0.0,0.0,0.0,0.0,0.0,0.0,0.0,0.0,0.0,0.0,0.0,0.0,0.0,0.0,0.0,0.0,0.0,0.0,0.0,0.0,0.0,0.0,0.0,0.0,0.0,0.0,0.0,0.0,0.0,0.0,0.0,0.0,0.0,0.0,0.0,0.0,0.0,0.0,0.0,0.0,0.0,0.0,0.0,0.0,0.0,0.0,0.0,0.0,0.0,0.0,0.0,0.0,0.0,0.0,0.0,0.0,0.0,0.0,0.0,0.0,0.0,0.0,0.0,0.0,0.0,0.0,0.0,0.0,0.0,0.0,0.0,0.0,0.0,0.0,0.0,0.0,0.0,0.0,0.0,0.0,0.0,0.0,0.0,0.0,0.0,0.0,0.0,0.0,0.0,0.0,0.0,0.0,0.0,0.0,0.0,0.0,0.0,0.0,0.0,0.0,0.0,0.0,0.0,0.0,0.0,0.0,0.0,0.0,0.0,0.0,0.0,0.0,0.0,0.0,0.0,0.0,0.0,0.0,0.0,0.0,0.0,0.0,0.0,0.0,0.0,0.0,0.0,0.0,0.0,0.0,0.0,0.0,0.0,0.0,0.0,0.0,0.0,0.0,0.0,0.0,0.0,0.0,0.0,0.0,0.0,0.0,0.0,0.0,0.0,0.0,0.0,0.0,0.0,0.0,0.0,0.0,0.0,0.0,0.0,0.0,0.0,0.0,0.0,0.0,0.0,0.0,0.0,0.0,0.0,0.0,0.0,0.0,0.0,0.0,0.0,0.0,0.0,0.0,0.0,0.0,0.0,0.0,0.0,0.0,0.0,0.0,0.0,0.0,0.0,0.0,0.0,0.0,0.0,0.0,0.0,0.0,0.0,0.0,0.0,0.0,0.0,0.0,0.0,0.0,0.0,0.0,0.0,0.0,0.0,0.0,0.0,0.0,0.0,0.0,0.0,0.0,0.0,0.0,0.0,0.0,0.0,0.0,0.0,0.0,0.0,0.0,0.0,0.0,0.0,0.0,0.0,0.0,0.0,0.0,0.0,0.0,0.0,0.0,0.0,0.0,0.0,0.0,0.0,0.0,0.0,0.0,0.0,0.0,0.0,0.0,0.0,0.0,0.0,0.0,0.0,0.0,0.0,0.0,0.0,0.0,0.0,0.0,0.0,0.0,0.0,0.0,0.0,0.0,0.0,0.0,0.0,0.0,0.0,0.0,0.0,0.0,0.0,0.0,0.0,0.0,0.0,0.0,0.0,0.0,0.0,0.0,0.0,0.0,0.0,0.0,0.0,0.0,0.0,0.0,0.0,0.0,0.0,0.0,0.0,0.0,0.0,0.0,0.0,0.0,0.0,0.0,0.0,0.0,0.0,0.0,0.0,0.0,0.0,0.0,0.0,0.0,0.0,0.0,0.0,0.0,0.0,0.0,0.0,0.0,0.0,0.0,0.0,0.0,0.0,0.0,0.0,0.0,0.0,0.0,0.0,0.0,0.0,0.0,0.0,0.0,0.0,0.0,0.0,0.0,0.0,0.0,0.0,0.0,0.0,0.0,0.0,0.0,0.0,0.0,0.0,0.0,0.0,0.0,0.0,0.0,0.0,0.0,0.0,0.0,0.0,0.0,0.0,0.0,0.0,0.0,0.0,0.0,0.0,0.0,0.0,0.0,0.0,0.0,0.0,0.0,0.0,0.0,0.0,0.0,0.0,0.0,0.0,0.0,0.0,0.0,0.0,0.0,0.0,0.0,0.0,0.0,0.0,0.0,0.0,0.0,0.0,0.0,0.0,0.0,0.0,0.0,0.0,0.0,0.0,0.0,0.0,0.0,0.0,0.0,0.0,0.0,0.0,0.0,0.0,0.0,0.0,0.0,0.0,0.0,0.0,0.0,0.0,0.0,0.0,0.0,0.0,0.0,0.0,0.0,0.0,0.0,0.0,0.0,0.0,0.0,0.0,0.0,0.0,0.0,0.0,0.0,0.0,0.0,0.0,0.0,0.0,0.0,0.0,0.0,0.0,0.0,0.0,0.0,0.0,0.0,0.0,0.0,0.0,0.0,0.0,0.0,0.0,0.0,0.0,0.0,0.0,0.0,0.0,0.0,0.0,0.0,0.0,0.0,0.0,0.0,0.0,0.0,0.0,0.0,0.0,0.0,0.0,0.0,0.0,0.0,0.0,0.0,0.0,0.0,0.0,0.0,0.0,0.0,0.0,0.0,0.0,0.0,0.0,0.0,0.0,0.0,0.0,0.0,0.0,0.0,0.0,0.0,0.0,0.0,0.0,0.0,0.0,0.0,0.0,0.0,0.0,0.0,0.0,0.0,0.0,0.0,0.0,0.0,0.0,0.0,0.0,0.0,0.0,0.0,0.0,0.0,0.0,0.0,0.0,0.0,0.0,0.0,0.0,0.0,0.0,0.0,0.0,0.0,0.0,0.0,0.0,0.0,0.0,0.0,0.0,0.0,0.0,0.0,0.0,0.0,0.0,0.0,0.0,0.0,0.0,0.0,0.0,0.0,0.0,0.0,0.0,0.0,0.0,0.0,0.0,0.0,0.0,0.0,0.0,0.0,0.0,0.0,0.0,0.0,0.0,0.0,0.0,0.0,0.0,0.0,0.0,0.0,0.0,0.0,0.0,0.0,0.0,0.0,0.0,0.0,0.0,0.0,0.0,0.0,0.0,0.0,0.0,0.0,0.0,0.0,0.0,0.0,0.0,0.0,0.0,0.0,0.0,0.0,0.0,0.0,0.0,0.0,0.0,0.0,0.0,0.0,0.0,0.0,0.0,0.0,0.0,0.0,0.0,0.0,0.0,0.0,0.0,0.0,0.0,0.0,0.0,0.0,0.0,0.0,0.0,0.0,0.0,0.0,0.0,0.0,0.0,0.0,0.0,0.0,0.0,0.0,0.0,0.0,0.0,0.0,0.0,0.0,0.0,0.0,0.0,0.0,0.0,0.0,0.0,0.0,0.0,0.0,0.0,0.0,0.0,0.0,0.0,0.0,0.0,0.0,0.0,0.0,0.0,0.0,0.0,0.0,0.0,0.0,0.0,0.0,0.0,0.0,0.0,0.0,0.0,0.0,-0.8696,0.0,0.0,0.0,0.0,0.0,0.0,0.0,0.0,0.0,0.0,0.0,0.0,0.0,0.0,0.0,0.0,0.0,0.0,0.0,0.0,0.0,0.0,0.0,0.0,0.0,0.0,0.0,0.0,0.0,0.0,0.0,0.0,0.0,0.0,0.0,0.0,0.0,0.0,0.0,0.0,0.0,0.0,0.0,0.0,0.0,0.0,0.0,0.0,0.0,0.0,0.0,0.0,0.0,0.0,0.0,0.0,0.0,0.0,0.0,0.0,0.0,0.0,0.0,0.0,0.0,0.0,0.0,0.0,0.0,0.0,0.0,0.0,0.0,0.0,0.0,0.0,0.0,0.0,0.0,0.0,0.0,0.0,0.0,0.0,0.0,0.0,0.0,0.0,0.0,0.0,0.0,0.0,0.0,0.0,0.0,0.0,0.0,0.0,0.0,0.0,0.0,0.0,0.0,0.0,0.0,0.0,0.0,0.0,0.0,0.0,-0.8953,-0.8846,-0.8852,-0.884,-0.8812,0.0,0.0,0.0,0.0,0.0,0.0,0.0,0.0,0.0,0.0,0.0,0.0,0.0,0.0,0.0,0.0,0.0,0.0,0.0,0.0,0.0,0.0,0.0,0.0,0.0,0.0,0.0,0.0,0.0,0.0,0.0,0.0,0.0,0.0,0.0,0.0,0.0,0.0,0.0,0.0,0.0,0.0,0.0,0.0,0.0,0.0,0.0,0.0,0.0,0.0,0.0,0.0,0.0,0.0,0.0,0.0,0.0,0.0,0.0,0.0,0.0,0.0,0.0,0.0,0.0,0.0,0.0,0.0,0.0,0.0,0.0,0.0,0.0,0.0,0.0,0.0,0.0,0.0,0.0,0.0,0.0,0.0,0.0,0.0,0.0,0.0,0.0,0.0,0.0,0.0,0.0,0.0,0.0,0.0,0.0,0.0,0.0,0.0,0.0,0.0,0.0,0.0,0.0,0.0,0.0,0.0,0.0,0.0,0.0,0.0,0.0,0.0,-0.8946,-0.8918,-0.8925,0.0,0.0,0.0,0.0,0.0,0.0,0.0,0.0,0.0,0.0,0.0,0.0,0.0,0.0,0.0,0.0,0.0,0.0,0.0,0.0,0.0,0.0,0.0,0.0,0.0,0.0,0.0,0.0,0.0,0.0,0.0,0.0,0.0,0.0,0.0,0.0,0.0,0.0,0.0,0.0,0.0,0.0,0.0,0.0,0.0,0.0,0.0,0.0,0.0,0.0,0.0,0.0,0.0,0.0,0.0,0.0,0.0,0.0,0.0,0.0,0.0,0.0,0.0,0.0,0.0,0.0,0.0,0.0,0.0,0.0,0.0,0.0,0.0,0.0,0.0,0.0,0.0,0.0,0.0,0.0,0.0,0.0,0.0,0.0,0.0,0.0,0.0,0.0,0.0,0.0,0.0,0.0,0.0,0.0,0.0,0.0,0.0,0.0,0.0,0.0,0.0,0.0,0.0,0.0,0.0,0.0,0.0,0.0,0.0,0.0,-0.9174,-0.9164,-0.9133,0.0,-0.8983,0.0,0.0,0.0,0.0,0.0,0.0,0.0,0.0,0.0,0.0,0.0,0.0,0.0,0.0,0.0,0.0,0.0,0.0,0.0,0.0,0.0,0.0,0.0,0.0,0.0,0.0,0.0,0.0,0.0,0.0,0.0,0.0,0.0,0.0,0.0,0.0,0.0,0.0,0.0,0.0,0.0,0.0,0.0,0.0,0.0,0.0,0.0,0.0,0.0,0.0,0.0,0.0,0.0,0.0,0.0,0.0,0.0,0.0,0.0,0.0,0.0,0.0,0.0,0.0,0.0,0.0,0.0,0.0,0.0,0.0,0.0,0.0,0.0,0.0,0.0,0.0,0.0,0.0,0.0,0.0,0.0,0.0,0.0,0.0,0.0,0.0,0.0,0.0,0.0,0.0,0.0,0.0,0.0,0.0,0.0,0.0,0.0,0.0,0.0,0.0,0.0,0.0,0.0,0.0,0.0,0.0,0.0,0.0,0.0,0.0,-1.0676,-1.0625,-1.0608,-1.0346,0.0,0.0,0.0,0.0,0.0,0.0,0.0,0.0,0.0,0.0,0.0,0.0,0.0,0.0,0.0,0.0,0.0,0.0,0.0,0.0,0.0,0.0,0.0,0.0,0.0,0.0,0.0,0.0,0.0,0.0,0.0,0.0,0.0,0.0,0.0,0.0,0.0,0.0,0.0,0.0,0.0,0.0,0.0,0.0,0.0,0.0,0.0,0.0,0.0,0.0,0.0,0.0,0.0,0.0,0.0,0.0,0.0,0.0,0.0,0.0,0.0,0.0,0.0,0.0,0.0,0.0,0.0,0.0,0.0,0.0,0.0,0.0,0.0,0.0,0.0,0.0,0.0,0.0,0.0,0.0,0.0,0.0,0.0,0.0,0.0,0.0,0.0,0.0,0.0,0.0,0.0,0.0,0.0,0.0,0.0,0.0,0.0,0.0,0.0,0.0,0.0,0.0,0.0,0.0,0.0,0.0,0.0,0.0,0.0,0.0,-1.1698,-1.1677,-1.1659,-1.1653,-1.1376,-1.0811,0.0,0.0,0.0,0.0,0.0,0.0,0.0,0.0,0.0,0.0,0.0,0.0,0.0,0.0,0.0,0.0,0.0,0.0,0.0,0.0,0.0,0.0,0.0,0.0,0.0,0.0,0.0,0.0,0.0,0.0,0.0,0.0,0.0,0.0,0.0,0.0,0.0,0.0,0.0,0.0,0.0,0.0,0.0,0.0,0.0,0.0,0.0,0.0,0.0,0.0,0.0,0.0,0.0,0.0,0.0,0.0,0.0,0.0,0.0,0.0,0.0,0.0,0.0,0.0,0.0,0.0,0.0,0.0,0.0,0.0,0.0,0.0,0.0,0.0,0.0,0.0,0.0,0.0,0.0,0.0,0.0,0.0,0.0,0.0,0.0,0.0,0.0,0.0,0.0,0.0,0.0,0.0,0.0,0.0,0.0,0.0,0.0,0.0,0.0,0.0,0.0,0.0,0.0,0.0,0.0,0.0,0.0,0.0,-1.1716,-1.1723,-1.174,-1.1823,-1.1788,-1.1781,0.0,0.0,0.0,0.0,0.0,0.0,0.0,0.0,0.0,0.0,0.0,0.0,0.0,0.0,0.0,0.0,0.0,0.0,0.0,0.0,0.0,0.0,0.0,0.0,0.0,0.0,0.0,0.0,0.0,0.0,0.0,0.0,0.0,0.0,0.0,0.0,0.0,0.0,0.0,0.0,0.0,0.0,0.0,0.0,0.0,0.0,0.0,0.0,0.0,0.0,0.0,0.0,0.0,0.0,0.0,0.0,0.0,0.0,0.0,0.0,0.0,0.0,0.0,0.0,0.0,0.0,0.0,0.0,0.0,0.0,0.0,0.0,0.0,0.0,0.0,0.0,0.0,0.0,0.0,0.0,0.0,0.0,0.0,0.0,0.0,0.0,0.0,0.0,0.0,0.0,0.0,0.0,0.0,0.0,0.0,0.0,0.0,0.0,0.0,0.0,0.0,0.0,0.0,0.0,0.0,0.0,0.0,0.0,0.0,-1.3257,-1.3288,-1.3308,-1.3333,-1.3376,-1.3136,0.0,0.0,0.0,0.0,0.0,0.0,0.0,0.0,0.0,0.0,0.0,0.0,0.0,0.0,0.0,0.0,0.0,0.0,0.0,0.0,0.0,0.0,0.0,0.0,0.0,0.0,0.0,0.0,0.0,0.0,0.0,0.0,0.0,0.0,0.0,0.0,0.0,0.0,0.0,0.0,0.0,0.0,0.0,0.0,0.0,0.0,0.0,0.0,0.0,0.0,0.0,0.0,0.0,0.0,0.0,0.0,0.0,0.0,0.0,0.0,0.0,0.0,0.0,0.0,0.0,0.0,0.0,0.0,0.0,0.0,0.0,0.0,0.0,0.0,0.0,0.0,0.0,0.0,0.0,0.0,0.0,0.0,0.0,0.0,0.0,0.0,0.0,0.0,0.0,0.0,0.0,0.0,0.0,0.0,0.0,0.0,0.0,0.0,0.0,0.0,0.0,0.0,0.0,0.0,0.0,0.0,0.0,0.0,0.0,-1.4127,0.0,-1.4226,-1.4247,-1.4273,-1.4021,0.0,0.0,0.0,0.0,0.0,0.0,0.0,0.0,0.0,0.0,0.0,0.0,0.0,0.0,0.0,0.0,0.0,0.0,0.0,0.0,0.0,0.0,0.0,0.0,0.0,0.0,0.0,0.0,0.0,0.0,0.0,0.0,0.0,0.0,0.0,0.0,0.0,0.0,0.0,0.0,0.0,0.0,0.0,0.0,0.0,0.0,0.0,0.0,0.0,0.0,0.0,0.0,0.0,0.0,0.0,0.0,0.0,0.0,0.0,0.0,0.0,0.0,0.0,0.0,0.0,0.0,0.0,0.0,0.0,0.0,0.0,0.0,0.0,0.0,0.0,0.0,0.0,0.0,0.0,0.0,0.0,0.0,0.0,0.0,0.0,0.0,0.0,0.0,0.0,0.0,0.0,0.0,0.0,0.0,0.0,0.0,0.0,0.0,0.0,0.0,0.0,0.0,0.0,0.0,0.0,0.0,0.0,0.0,-1.4163,-1.4208,-1.4262,-1.4319,-1.434,-1.434,-1.4317,0.0,0.0,0.0,0.0,0.0,0.0,0.0,0.0,0.0,0.0,0.0,0.0,0.0,0.0,0.0,0.0,0.0,0.0,0.0,0.0,0.0,0.0,0.0,0.0,0.0,0.0,0.0,0.0,0.0,0.0,0.0,0.0,0.0,0.0,0.0,0.0,0.0,0.0,0.0,0.0,0.0,0.0,0.0,0.0,0.0,0.0,0.0,0.0,0.0,0.0,0.0,0.0,0.0,0.0,0.0,0.0,0.0,0.0,0.0,0.0,0.0,0.0,0.0,0.0,0.0,0.0,0.0,0.0,0.0,0.0,0.0,0.0,0.0,0.0,0.0,0.0,0.0,0.0,0.0,0.0,0.0,0.0,0.0,0.0,0.0,0.0,0.0,0.0,0.0,0.0,0.0,0.0,0.0,0.0,0.0,0.0,0.0,0.0,0.0,0.0,0.0,0.0,0.0,0.0,0.0,0.0,0.0,0.0,0.0,-1.5026,-1.558,-1.5627,-1.5167,-1.513,-1.4886,0.0,0.0,0.0,0.0,0.0,0.0,0.0,0.0,0.0,0.0,0.0,0.0,0.0,0.0,0.0,0.0,0.0,0.0,0.0,0.0,0.0,0.0,0.0,0.0,0.0,0.0,0.0,0.0,0.0,0.0,0.0,0.0,0.0,0.0,0.0,0.0,0.0,0.0,0.0,0.0,0.0,0.0,0.0,0.0,0.0,0.0,0.0,0.0,0.0,0.0,0.0,0.0,0.0,0.0,0.0,0.0,0.0,0.0,0.0,0.0,0.0,0.0,0.0,0.0,0.0,0.0,0.0,0.0,0.0,0.0,0.0,0.0,0.0,0.0,0.0,0.0,0.0,0.0,0.0,0.0,0.0,0.0,0.0,0.0,0.0,0.0,0.0,0.0,0.0,0.0,0.0,0.0,0.0,0.0,0.0,0.0,0.0,0.0,0.0,0.0,0.0,0.0,0.0,0.0,0.0,0.0,0.0,0.0,0.0,-1.7212,-1.7122,-1.6866,-1.6392,-1.6117,-1.5587,-1.4883,0.0,0.0,0.0,0.0,0.0,0.0,0.0,0.0,0.0,0.0,0.0,0.0,0.0,0.0,0.0,0.0,0.0,0.0,0.0,0.0,0.0,0.0,0.0,0.0,0.0,0.0,0.0,0.0,0.0,0.0,0.0,0.0,0.0,0.0,0.0,0.0,0.0,0.0,0.0,0.0,0.0,0.0,0.0,0.0,0.0,0.0,0.0,0.0,0.0,0.0,0.0,0.0,0.0,0.0,0.0,0.0,0.0,0.0,0.0,0.0,0.0,0.0,0.0,0.0,0.0,0.0,0.0,0.0,0.0,0.0,0.0,0.0,0.0,0.0,0.0,0.0,0.0,0.0,0.0,0.0,0.0,0.0,0.0,0.0,0.0,0.0,0.0,0.0,0.0,0.0,0.0,0.0,0.0,0.0,0.0,0.0,0.0,0.0,0.0,0.0,0.0,0.0,0.0,0.0,0.0,0.0,0.0,0.0,-2.0499,-1.9067,-1.8306,-1.8197,-1.7382,-1.6544,0.0,0.0,0.0,0.0,0.0,0.0,0.0,0.0,0.0,0.0,0.0,0.0,0.0,0.0,0.0,0.0,0.0,0.0,0.0,0.0,0.0,0.0,0.0,0.0,0.0,0.0,0.0,0.0,0.0,0.0,0.0,0.0,0.0,0.0,0.0,0.0,0.0,0.0,0.0,0.0,0.0,0.0,0.0,0.0,0.0,0.0,0.0,0.0,0.0,0.0,0.0,0.0,0.0,0.0,0.0,0.0,0.0,0.0,0.0,0.0,0.0,0.0,0.0,0.0,0.0,0.0,0.0,0.0,0.0,0.0,0.0,0.0,0.0,0.0,0.0,0.0,0.0,0.0,0.0,0.0,0.0,0.0,0.0,0.0,0.0,0.0,0.0,0.0,0.0,0.0,0.0,0.0,0.0,0.0,0.0,0.0,0.0,0.0,0.0,0.0,0.0,0.0,0.0,0.0,0.0,0.0,0.0,0.0,0.0,-2.2799,-2.3053,-2.26,-2.1477,-2.0083,-1.8739,0.0,0.0,0.0,0.0,0.0,0.0,0.0,0.0,0.0,0.0,0.0,0.0,0.0,0.0,0.0,0.0,0.0,0.0,0.0,0.0,0.0,0.0,0.0,0.0,0.0,0.0,0.0,0.0,0.0,0.0,0.0,0.0,0.0,0.0,0.0,0.0,0.0,0.0,0.0,0.0,0.0,0.0,0.0,0.0,0.0,0.0,0.0,0.0,0.0,0.0,0.0,0.0,0.0,0.0,0.0,0.0,0.0,0.0,0.0,0.0,0.0,0.0,0.0,0.0,0.0,0.0,0.0,0.0,0.0,0.0,0.0,0.0,0.0,0.0,0.0,0.0,0.0,0.0,0.0,0.0,0.0,0.0,0.0,0.0,0.0,0.0,0.0,0.0,0.0,0.0,0.0,0.0,0.0,0.0,0.0,0.0,0.0,0.0,0.0,0.0,0.0,0.0,0.0,0.0,0.0,0.0,0.0,0.0,-2.26,-2.4266,-2.5769,-2.6095,-2.5208,-2.2672,-2.059,0.0,0.0,0.0,0.0,0.0,0.0,0.0,0.0,0.0,0.0,0.0,0.0,0.0,0.0,0.0,0.0,0.0,0.0,0.0,0.0,0.0,0.0,0.0,0.0,0.0,0.0,0.0,0.0,0.0,0.0,0.0,0.0,0.0,0.0,0.0,0.0,0.0,0.0,0.0,0.0,0.0,0.0,0.0,0.0,0.0,0.0,0.0,0.0,0.0,0.0,0.0,0.0,0.0,0.0,0.0,0.0,0.0,0.0,0.0,0.0,0.0,0.0,0.0,0.0,0.0,0.0,0.0,0.0,0.0,0.0,0.0,0.0,0.0,0.0,0.0,0.0,0.0,0.0,0.0,0.0,0.0,0.0,0.0,0.0,0.0,0.0,0.0,0.0,0.0,0.0,0.0,0.0,0.0,0.0,0.0,0.0,0.0,0.0,0.0,0.0,0.0,0.0,0.0,0.0,0.0,0.0,0.0,0.0,-2.4378,-2.5262,-2.7429,-2.8587,-2.8478,-2.4936,-2.2241,0.0,0.0,0.0,0.0,0.0,0.0,0.0,0.0,0.0,0.0,0.0,0.0,0.0,0.0,0.0,0.0,0.0,0.0,0.0,0.0,0.0,0.0,0.0,0.0,0.0,0.0,0.0,0.0,0.0,0.0,0.0,0.0,0.0,0.0,0.0,0.0,0.0,0.0,0.0,0.0,0.0,0.0,0.0,0.0,0.0,0.0,0.0,0.0,0.0,0.0,0.0,0.0,0.0,0.0,0.0,0.0,0.0,0.0,0.0,0.0,0.0,0.0,0.0,0.0,0.0,0.0,0.0,0.0,0.0,0.0,0.0,0.0,0.0,0.0,0.0,0.0,0.0,0.0,0.0,0.0,0.0,0.0,0.0,0.0,0.0,0.0,0.0,0.0,0.0,0.0,0.0,0.0,0.0,0.0,0.0,0.0,0.0,0.0,0.0,0.0,0.0,0.0,0.0,0.0,0.0,0.0,0.0,0.0,-2.5488,-2.6874,-2.8015,-2.8587,-2.8587,-2.6014,-2.3878,0.0,0.0,0.0,0.0,0.0,0.0,0.0,0.0,0.0,0.0,0.0,0.0,0.0,0.0,0.0,0.0,0.0,0.0,0.0,0.0,0.0,0.0,0.0,0.0,0.0,0.0,0.0,0.0,0.0,0.0,0.0,0.0,0.0,0.0,0.0,0.0,0.0,0.0,0.0,0.0,0.0,0.0,0.0,0.0,0.0,0.0,0.0,0.0,-1.7057,0.0,0.0,0.0,0.0,0.0,0.0,0.0,0.0,0.0,0.0,0.0,0.0,0.0,0.0,0.0,0.0,0.0,0.0,0.0,0.0,0.0,0.0,0.0,0.0,0.0,0.0,0.0,0.0,0.0,0.0,0.0,0.0,0.0,0.0,0.0,0.0,0.0,0.0,0.0,0.0,0.0,0.0,0.0,0.0,0.0,0.0,0.0,0.0,0.0,0.0,0.0,0.0,0.0,0.0,0.0,0.0,0.0,0.0,0.0,-2.5832,-2.7363,-2.8171,-2.8587,-2.8533,-2.7066,-2.5336,0.0,0.0,0.0,0.0,0.0,0.0,0.0,0.0,0.0,0.0,0.0,0.0,0.0,0.0,0.0,0.0,0.0,0.0,0.0,0.0,0.0,0.0,0.0,0.0,0.0,0.0,0.0,0.0,0.0,0.0,0.0,0.0,0.0,0.0,0.0,0.0,0.0,0.0,0.0,0.0,0.0,0.0,0.0,0.0,0.0,0.0,0.0,0.0,0.0,0.0,0.0,0.0,0.0,0.0,0.0,0.0,0.0,0.0,0.0,0.0,0.0,0.0,0.0,0.0,0.0,0.0,0.0,0.0,0.0,0.0,0.0,0.0,0.0,0.0,0.0,0.0,0.0,0.0,0.0,0.0,0.0,0.0,0.0,0.0,0.0,0.0,0.0,0.0,0.0,0.0,0.0,0.0,0.0,0.0,0.0,0.0,0.0,0.0,0.0,0.0,0.0,0.0,0.0,0.0,0.0,0.0,0.0,-2.4499,-2.6036,-2.7544,-2.8275,-2.8637,-2.8594,-2.7931,-2.649,-2.4331,0.0,0.0,0.0,0.0,0.0,0.0,0.0,0.0,0.0,0.0,0.0,0.0,0.0,0.0,0.0,0.0,0.0,0.0,0.0,0.0,0.0,0.0,0.0,0.0,0.0,0.0,0.0,0.0,0.0,0.0,0.0,0.0,0.0,0.0,0.0,0.0,0.0,0.0,-1.5535,-1.5465,0.0,0.0,0.0,0.0,0.0,0.0,0.0,0.0,-1.7481,0.0,0.0,0.0,0.0,0.0,0.0,0.0,0.0,0.0,0.0,0.0,0.0,0.0,0.0,0.0,0.0,0.0,0.0,0.0,0.0,0.0,0.0,0.0,0.0,0.0,0.0,0.0,0.0,0.0,0.0,0.0,0.0,0.0,0.0,0.0,0.0,0.0,0.0,0.0,0.0,0.0,0.0,0.0,0.0,0.0,0.0,0.0,0.0,0.0,0.0,0.0,0.0,0.0,0.0,0.0,0.0,-2.3794,-2.5379,-2.6913,-2.8359,-2.8742,-2.8863,-2.8676,-2.8086,-2.6969,-2.5315,0.0,0.0,0.0,0.0,0.0,0.0,0.0,0.0,0.0,0.0,0.0,0.0,0.0,0.0,0.0,0.0,0.0,0.0,0.0,0.0,0.0,0.0,0.0,0.0,0.0,0.0,0.0,0.0,0.0,0.0,0.0,0.0,0.0,0.0,0.0,0.0,0.0,0.0,0.0,-1.6715,-1.6638,0.0,0.0,0.0,0.0,0.0,0.0,0.0,0.0,-1.8208,0.0,0.0,0.0,0.0,0.0,0.0,0.0,0.0,0.0,0.0,0.0,0.0,0.0,0.0,0.0,0.0,0.0,0.0,0.0,0.0,0.0,0.0,0.0,0.0,0.0,0.0,0.0,0.0,0.0,0.0,0.0,0.0,0.0,0.0,0.0,0.0,0.0,0.0,0.0,0.0,0.0,0.0,0.0,0.0,0.0,0.0,0.0,0.0,0.0,0.0,0.0,0.0,0.0,0.0,0.0,-2.4613,-2.6176,-2.7507,-2.8558,-2.8737,-2.8743,-2.8644,-2.8007,-2.7134,0.0,0.0,0.0,0.0,0.0,0.0,0.0,0.0,0.0,0.0,0.0,0.0,0.0,0.0,0.0,0.0,0.0,0.0,0.0,0.0,0.0,0.0,0.0,0.0,0.0,0.0,0.0,0.0,0.0,0.0,0.0,0.0,0.0,0.0,0.0,0.0,0.0,0.0,0.0,0.0,-1.7657,-1.7734,-1.9427,0.0,0.0,0.0,0.0,0.0,0.0,-2.0611,-1.9995,0.0,0.0,0.0,0.0,0.0,0.0,0.0,0.0,0.0,0.0,0.0,0.0,0.0,0.0,0.0,0.0,0.0,0.0,0.0,0.0,0.0,0.0,0.0,0.0,0.0,0.0,0.0,0.0,0.0,0.0,0.0,0.0,0.0,0.0,0.0,0.0,0.0,0.0,0.0,0.0,0.0,0.0,0.0,0.0,0.0,0.0,0.0,0.0,0.0,0.0,0.0,0.0,0.0,0.0,0.0,-2.5199,-2.6736,-2.7864,-2.8551,-2.8662,-2.8662,-2.8594,-2.7809,-2.7086,0.0,0.0,0.0,0.0,0.0,0.0,0.0,0.0,0.0,0.0,0.0,0.0,0.0,0.0,0.0,0.0,0.0,0.0,0.0,0.0,0.0,0.0,0.0,0.0,0.0,0.0,0.0,0.0,0.0,0.0,0.0,0.0,0.0,0.0,0.0,0.0,0.0,0.0,0.0,0.0,0.0,-1.9081,-2.138,-2.0496,0.0,0.0,0.0,0.0,-2.2084,-2.2299,0.0,0.0,0.0,0.0,0.0,0.0,0.0,0.0,0.0,0.0,0.0,0.0,0.0,0.0,0.0,0.0,0.0,0.0,0.0,0.0,0.0,0.0,0.0,0.0,0.0,0.0,0.0,0.0,0.0,0.0,0.0,0.0,0.0,0.0,0.0,0.0,0.0,0.0,0.0,0.0,0.0,0.0,0.0,0.0,0.0,0.0,0.0,0.0,0.0,0.0,0.0,0.0,0.0,0.0,0.0,0.0,-2.5299,-2.6759,-2.7864,-2.8576,-2.8815,-2.8863,-2.8676,-2.7453,-2.6774,0.0,0.0,0.0,0.0,0.0,0.0,0.0,0.0,0.0,0.0,0.0,0.0,0.0,0.0,0.0,0.0,0.0,0.0,0.0,0.0,0.0,0.0,0.0,0.0,0.0,0.0,0.0,0.0,0.0,0.0,0.0,0.0,0.0,0.0,0.0,0.0,0.0,0.0,0.0,0.0,0.0,-2.0603,-2.2325,-2.1839,-2.1282,0.0,0.0,-2.2929,-2.3681,-2.4452,0.0,0.0,0.0,0.0,0.0,0.0,0.0,0.0,0.0,0.0,0.0,0.0,0.0,0.0,0.0,0.0,0.0,0.0,0.0,0.0,0.0,0.0,0.0,0.0,0.0,0.0,0.0,0.0,0.0,0.0,0.0,0.0,0.0,0.0,0.0,0.0,0.0,0.0,0.0,0.0,0.0,0.0,0.0,0.0,0.0,0.0,0.0,0.0,0.0,0.0,0.0,0.0,0.0,0.0,0.0,-2.5175,-2.6012,-2.7404,-2.8293,-2.8569,-2.8712,-2.8718,-2.8662,-2.7707,-2.7016,0.0,0.0,0.0,0.0,0.0,0.0,0.0,0.0,0.0,0.0,0.0,0.0,0.0,0.0,0.0,0.0,0.0,0.0,0.0,0.0,0.0,0.0,0.0,0.0,0.0,0.0,0.0,0.0,0.0,0.0,0.0,0.0,0.0,0.0,0.0,0.0,0.0,0.0,0.0,0.0,0.0,0.0,-2.3332,-2.3178,0.0,0.0,0.0,-2.4223,-2.4124,0.0,0.0,0.0,0.0,0.0,0.0,0.0,0.0,0.0,0.0,0.0,0.0,0.0,0.0,0.0,0.0,0.0,0.0,0.0,0.0,0.0,0.0,0.0,0.0,0.0,0.0,0.0,0.0,0.0,0.0,0.0,0.0,0.0,0.0,0.0,0.0,0.0,0.0,0.0,0.0,0.0,0.0,0.0,0.0,0.0,0.0,0.0,0.0,0.0,0.0,0.0,0.0,0.0,0.0,0.0,0.0,0.0,-2.6838,-2.7997,-2.8587,-2.8587,-2.8587,-2.8587,-2.8594,-2.7931,0.0,0.0,0.0,0.0,0.0,0.0,0.0,0.0,0.0,0.0,0.0,0.0,0.0,0.0,0.0,0.0,0.0,0.0,0.0,0.0,0.0,0.0,0.0,0.0,0.0,0.0,0.0,-1.6866,0.0,0.0,0.0,0.0,0.0,0.0,0.0,0.0,0.0,0.0,0.0,0.0,0.0,0.0,-2.3429,-2.4553,-2.4678,-2.4745,0.0,0.0,-2.5543,-2.5127,-2.6998,-2.7412,0.0,0.0,0.0,0.0,0.0,0.0,0.0,0.0,0.0,0.0,0.0,0.0,0.0,0.0,0.0,0.0,0.0,0.0,0.0,0.0,0.0,0.0,0.0,0.0,0.0,0.0,0.0,0.0,0.0,0.0,0.0,0.0,0.0,0.0,0.0,0.0,0.0,0.0,0.0,0.0,0.0,0.0,0.0,0.0,0.0,0.0,0.0,0.0,0.0,0.0,0.0,0.0,0.0,0.0,0.0,-2.7688,-2.8294,-2.8605,-2.8587,-2.8587,-2.8587,-2.8569,-2.7882,-2.7588,0.0,0.0,0.0,0.0,0.0,0.0,0.0,0.0,0.0,0.0,0.0,0.0,0.0,0.0,0.0,0.0,0.0,0.0,0.0,0.0,0.0,0.0,0.0,0.0,0.0,0.0,0.0,0.0,0.0,0.0,0.0,0.0,0.0,0.0,0.0,0.0,0.0,0.0,0.0,0.0,0.0,-2.4511,-2.6117,-2.6384,-2.6685,0.0,0.0,-2.6766,-2.7527,-2.9085,-2.9085,-2.5779,0.0,0.0,0.0,0.0,0.0,0.0,0.0,0.0,0.0,0.0,0.0,0.0,0.0,0.0,0.0,0.0,0.0,0.0,0.0,0.0,0.0,0.0,0.0,0.0,0.0,0.0,0.0,0.0,0.0,0.0,0.0,0.0,0.0,0.0,0.0,0.0,0.0,0.0,0.0,0.0,0.0,0.0,0.0,0.0,0.0,0.0,0.0,0.0,0.0,0.0,0.0,0.0,0.0,-2.7149,-2.8466,-2.9039,-2.9572,-3.0061,-3.0061,-3.0079,-3.0079,-2.9352,-2.8822,0.0,0.0,0.0,0.0,0.0,0.0,0.0,0.0,0.0,0.0,0.0,0.0,0.0,0.0,0.0,0.0,0.0,0.0,0.0,0.0,0.0,0.0,0.0,0.0,0.0,0.0,0.0,0.0,-2.33,-2.4162,-2.4425,0.0,0.0,0.0,0.0,0.0,0.0,0.0,0.0,0.0,0.0,-2.5964,-2.7144,-2.7332,0.0,0.0,-2.758,-2.7323,-2.7131,-2.8497,-2.8459,-2.5138,-2.3655,0.0,0.0,0.0,0.0,0.0,0.0,0.0,0.0,0.0,0.0,0.0,0.0,0.0,0.0,0.0,0.0,0.0,0.0,0.0,0.0,0.0,0.0,0.0,0.0,0.0,0.0,0.0,0.0,0.0,0.0,0.0,0.0,0.0,0.0,0.0,0.0,0.0,0.0,0.0,0.0,0.0,0.0,0.0,0.0,0.0,0.0,0.0,0.0,0.0,0.0,0.0,0.0,-2.7894,-2.9247,-2.9857,-3.0405,-3.0966,-3.1003,-3.1003,-3.0985,-3.0495,-3.0028,0.0,0.0,0.0,0.0,0.0,0.0,0.0,0.0,0.0,0.0,0.0,0.0,0.0,0.0,0.0,0.0,0.0,0.0,0.0,0.0,0.0,0.0,0.0,0.0,0.0,0.0,0.0,0.0,-2.5017,-2.5706,-2.5061,0.0,0.0,0.0,0.0,0.0,0.0,0.0,0.0,0.0,0.0,-2.707,-2.7687,-2.7776,-2.7769,-2.7804,-2.7627,-2.7283,-2.6697,-2.7582,-2.7477,-2.488,0.0,0.0,0.0,0.0,0.0,0.0,0.0,0.0,0.0,0.0,0.0,0.0,0.0,0.0,0.0,0.0,0.0,0.0,0.0,0.0,0.0,0.0,0.0,0.0,0.0,0.0,0.0,0.0,0.0,0.0,-1.6655,0.0,0.0,0.0,0.0,0.0,0.0,0.0,0.0,0.0,0.0,0.0,0.0,0.0,0.0,0.0,0.0,0.0,0.0,0.0,0.0,0.0,0.0,-2.9229,-3.0051,-3.0675,-3.0985,-3.1039,-3.1003,-3.1057,-3.1057,-3.0985,-3.1048,-3.1125,0.0,0.0,0.0,0.0,0.0,0.0,0.0,0.0,0.0,0.0,0.0,0.0,0.0,0.0,0.0,0.0,0.0,0.0,0.0,0.0,0.0,0.0,0.0,0.0,0.0,0.0,-2.369,-2.5224,-2.6002,0.0,0.0,0.0,0.0,0.0,0.0,0.0,0.0,0.0,0.0,-2.6606,-2.7663,-2.7701,-2.7708,-2.7745,-2.7819,-2.7163,-2.6628,-2.664,-2.664,-2.6341,0.0,0.0,0.0,0.0,0.0,0.0,0.0,0.0,0.0,0.0,0.0,0.0,0.0,0.0,0.0,0.0,0.0,0.0,0.0,0.0,0.0,0.0,0.0,0.0,0.0,0.0,0.0,-2.1141,-2.0908,0.0,0.0,0.0,0.0,0.0,0.0,0.0,0.0,0.0,0.0,0.0,-2.4251,-2.4817,0.0,0.0,0.0,0.0,0.0,0.0,0.0,0.0,0.0,0.0,0.0,0.0,-2.9435,-3.0745,-3.1438,-3.2053,-3.2578,-3.2578,-3.2596,-3.2596,-3.2071,-3.1629,-3.1217,0.0,0.0,0.0,0.0,0.0,0.0,0.0,0.0,0.0,0.0,0.0,0.0,0.0,0.0,0.0,0.0,0.0,0.0,0.0,0.0,0.0,0.0,0.0,0.0,0.0,-2.6113,0.0,0.0,0.0,0.0,0.0,0.0,0.0,0.0,0.0,0.0,0.0,-2.5069,-2.5898,-2.6491,-2.7052,-2.7606,-2.7708,-2.7905,0.0,0.0,0.0,0.0,0.0,0.0,0.0,0.0,0.0,0.0,0.0,0.0,0.0,0.0,-2.161,-2.0214,-2.0424,-2.109,-2.1952,0.0,0.0,0.0,0.0,0.0,0.0,0.0,0.0,0.0,0.0,0.0,0.0,0.0,0.0,-2.35,0.0,-2.3253,0.0,0.0,0.0,0.0,0.0,0.0,0.0,0.0,-2.5153,-2.6023,-2.6294,-2.7073,-2.7206,0.0,-2.781,-2.7253,0.0,0.0,0.0,0.0,0.0,0.0,0.0,0.0,-3.0194,-3.1483,-3.2226,-3.2868,-3.3357,-3.3393,-3.3393,-3.3393,-3.2886,-3.2291,-3.1574,-3.1628,-3.1297,0.0,0.0,0.0,0.0,0.0,0.0,0.0,0.0,0.0,0.0,0.0,0.0,0.0,0.0,0.0,0.0,0.0,0.0,0.0,0.0,0.0,0.0,0.0,-2.7506,0.0,0.0,0.0,0.0,0.0,0.0,0.0,0.0,0.0,-2.4912,-2.5772,-2.6574,-2.6823,-2.7358,-2.7606,-2.7281,0.0,0.0,0.0,0.0,0.0,0.0,0.0,-2.5738,-2.5746,-2.5738,-2.5748,-2.574,-2.6034,-2.6256,-2.6256,0.0,0.0,-2.3396,-2.3391,-2.3953,-2.4548,-2.4691,-2.4888,-2.5457,-2.5613,-2.573,0.0,0.0,0.0,0.0,0.0,0.0,0.0,0.0,-2.5933,-2.5533,0.0,-2.4903,0.0,0.0,0.0,0.0,0.0,-2.5534,0.0,0.0,-2.8286,-2.9391,-2.8757,-2.9427,-2.9807,-2.9834,-2.9852,-2.987,-2.9779,-2.9228,0.0,0.0,0.0,0.0,0.0,0.0,-3.1502,-3.2264,-3.3006,-3.3393,-3.3393,-3.3393,-3.3393,-3.3393,-3.3375,-3.3013,-3.2288,-3.2309,-3.1955,-3.1157,-3.0454,0.0,0.0,0.0,0.0,0.0,0.0,0.0,0.0,0.0,0.0,0.0,0.0,0.0,0.0,0.0,0.0,0.0,0.0,0.0,0.0,-2.7576,0.0,0.0,0.0,0.0,0.0,0.0,0.0,0.0,0.0,0.0,-2.6727,-2.7873,-2.8605,-2.7835,0.0,0.0,0.0,0.0,-2.7485,-2.6802,-2.5895,-2.5677,-2.6588,-2.6638,-2.7144,-2.8734,0.0,0.0,-2.9053,-2.8518,-2.8093,-2.8,-2.8736,-2.852,-2.6157,-2.5699,-2.5658,-2.5739,-2.582,-2.5705,-2.5719,-2.601,-2.6165,-2.9737,0.0,0.0,0.0,0.0,-2.7558,-2.7879,-2.8415,-2.837,-2.8263,-2.8066,-2.8049,0.0,0.0,0.0,0.0,0.0,0.0,-2.8105,-2.8449,-2.9373,-2.997,-3.0314,-3.055,-3.0659,-3.0659,-3.1238,-3.151,-3.1528,-3.1882,-3.1511,-3.0404,0.0,0.0,0.0,0.0,-3.2018,-3.2282,-3.3006,-3.3393,-3.3393,-3.3393,-3.3393,-3.3393,-3.3393,-3.3284,-3.3049,-3.3078,-3.2734,-3.1918,-3.1674,0.0,0.0,0.0,0.0,0.0,0.0,0.0,0.0,0.0,0.0,0.0,0.0,0.0,0.0,0.0,0.0,0.0,0.0,0.0,-2.9277,-2.8719,-2.8449,0.0,0.0,0.0,0.0,0.0,0.0,0.0,0.0,0.0,-2.9077,-2.8981,-2.8815,0.0,0.0,-2.816,-2.7434,-2.8026,-2.8708,-2.909,-2.8402,0.0,0.0,-2.8976,-2.8593,-2.9683,-3.0333,-3.0734,-3.0791,-3.1115,-3.1391,-3.1358,-3.159,-3.1514,-3.0879,-2.9759,-2.903,-2.8983,-2.9023,-2.9059,-2.9076,-2.9106,-2.92,-3.2527,-3.1546,-2.9851,-2.9137,-2.9119,-2.9091,-2.9405,-2.9851,-2.9833,-2.9851,-2.9833,-2.988,-2.9658,-2.9193,-2.9332,0.0,0.0,0.0,-2.9807,-3.026,-3.0604,-3.1003,-3.1455,-3.1799,-3.1944,-3.1962,-3.2451,-3.2669,-3.2669,-3.3176,-3.2922,-3.1944,0.0,0.0,-3.1492,-3.1962,-3.2371,-3.2661,-3.3169,-3.3393,-3.3393,-3.3393,-3.3393,-3.3393,-3.3393,-3.3393,-3.3393,-3.3393,-3.3176,-3.2687,-3.2361,-3.2009,0.0,0.0,0.0,0.0,0.0,0.0,0.0,0.0,0.0,0.0,0.0,-2.79,0.0,0.0,0.0,0.0,-2.8801,-2.9592,-3.0459,-2.9991,0.0,0.0,0.0,0.0,0.0,0.0,0.0,-2.9631,-3.008,-3.0577,-3.1121,-3.071,-3.0252,-2.9961,-2.977,-2.9459,-2.879,0.0,-3.0109,-3.0643,-2.9975,-3.0013,-3.1637,-3.1068,-3.0706,-3.156,-3.2095,-3.2286,-3.2038,-3.245,-3.279,-3.2804,-3.2814,-3.2804,-3.2851,-3.2,-3.1354,-3.1379,-3.143,-3.1455,-3.1455,-3.1487,-3.1516,-3.5204,-3.4954,-3.2099,-3.0903,-3.0886,-3.0886,-3.0886,-3.0886,-3.0886,-3.0886,-3.0868,-3.1011,-3.104,-3.107,-3.1186,0.0,-3.1365,-3.1383,-3.1419,-3.1401,-3.2144,-3.2488,-3.2524,-3.3266,-3.3592,-3.3574,-3.3592,-3.3592,-3.361,-3.361,-3.3592,-3.3556,-3.285,-3.2415,-3.2306,-3.2288,-3.2669,-3.3375,-3.3393,-3.3393,-3.3393,-3.3393,-3.3393,-3.3393,-3.3393,-3.3393,-3.3393,-3.3393,-3.3393,-3.3375,-3.2687,-3.2317,-3.2355,0.0,0.0,0.0,0.0,0.0,0.0,0.0,0.0,0.0,0.0,0.0,0.0,0.0,0.0,0.0,-2.9885,0.0,-3.1137,-3.1189,0.0,0.0,0.0,-3.152,-3.1584,-3.1584,-3.187,-3.2596,0.0,0.0,-3.2772,-3.2737,-3.2473,-3.187,-3.231,-3.2153,-3.0605,-3.114,-3.1713,-3.1752,-3.1102,-3.1178,-3.2726,-3.2882,-3.307,-3.3796,-3.4082,-3.3777,-3.3127,-3.2989,-3.3019,-3.3096,-3.301,-3.3039,-3.302,-3.3039,-3.301,-3.3058,-3.2917,-3.284,-3.2776,-3.2756,-3.275,-3.5204,-3.5132,-3.4401,-3.4097,-3.4097,-3.4097,-3.4097,-3.4079,-3.4079,-3.4079,-3.4097,-3.4097,-3.4214,-3.4343,-3.4393,-3.4506,-3.4661,-3.4661,-3.4661,-3.4679,-3.486,-3.4969,-3.4969,-3.515,-3.524,-3.524,-3.524,-3.524,-3.524,-3.524,-3.524,-3.524,-3.5041,-3.4335,-3.3176,-3.3103,-3.3194,-3.3393,-3.3393,-3.3393,-3.3393,-3.3393,-3.3393,-3.3393,-3.3393,-3.3393,-3.3393,-3.3393,-3.3393,-3.3393,-3.3212,-3.3121,-3.3132,-3.2389,0.0,0.0,0.0,0.0,0.0,0.0,0.0,0.0,0.0,-3.1054,-3.1185,0.0,-3.1149,0.0,-3.0762,-3.0678,-3.121,-3.114,0.0,0.0,-3.2279,-3.2314,-3.2349,-3.233,-3.2406,-3.2597,-3.2599,-3.2828,-3.347,-3.3563,-3.377,-3.4225,-3.3363,-3.2539,-3.2172,-3.286,-3.3414,-3.3394,-3.3662,-3.414,-3.4445,-3.4617,-3.4655,-3.4885,-3.4904,-3.4846,-3.4636,-3.4617,-3.4636,-3.4633,-3.4633,-3.463,-3.4642,-3.4715,-3.4672,-3.464,-3.3719,-3.2831,-3.2831,-3.2851,-3.2851,-3.7291,-3.7309,-3.7309,-3.7309,-3.7184,-3.581,-3.5204,-3.5204,-3.5204,-3.5204,-3.5204,-3.5256,-3.5375,-3.5475,-3.5508,-3.554,-3.5674,-3.5656,-3.5688,-3.572,-3.572,-3.572,-3.5802,-3.5802,-3.5802,-3.5802,-3.5802,-3.5802,-3.5802,-3.5802,-3.5802,-3.5802,-3.5802,-3.5367,-3.4516,-3.448,-3.4311,-3.3923,-3.3586,-3.3393,-3.3393,-3.3393,-3.3393,-3.3393,-3.3393,-3.3393,-3.3393,-3.3393,-3.3393,-3.3393,-3.3393,-3.3393,-3.3375,-3.2977,-3.278,0.0,0.0,0.0,0.0,0.0,0.0,0.0,0.0,0.0,0.0,0.0,-3.1565,-3.1782,-3.1446,-3.1502,-3.2201,-3.2221,-3.2391,-3.2972,-3.3102,-3.3137,-3.3116,-3.3135,-3.3287,-3.3667,-3.3688,-3.384,-3.4331,-3.4388,-3.4558,-3.507,-3.4344,-3.3786,-3.3837,-3.4235,-3.4541,-3.456,-3.4923,-3.519,-3.519,-3.519,-3.519,-3.519,-3.519,-3.519,-3.519,-3.519,-3.519,-3.519,-3.519,-3.5209,-3.5261,-3.5242,-3.5277,-3.5139,-3.4527,-3.3949,-3.3901,-3.3916,-3.3935,-3.9896,-3.9896,-3.9896,-3.9896,-3.97,-3.697,-3.581,-3.581,-3.581,-3.581,-3.581,-3.5915,-3.6036,-3.6085,-3.6085,-3.6085,-3.6119,-3.6119,-3.6134,-3.6182,-3.62,-3.6251,-3.6385,-3.6353,-3.6353,-3.6385,-3.6262,-3.624,-3.6208,-3.6132,-3.6077,-3.6077,-3.6077,-3.6045,-3.6077,-3.6077,-3.5639,-3.4775,-3.4039,-3.3635,-3.3526,-3.3526,-3.3472,-3.3364,-3.3364,-3.3364,-3.3364,-3.3382,-3.3364,-3.3382,-3.3382,-3.3393,-3.3393,-3.3393,-3.3404,0.0,-3.3509,0.0,0.0,0.0,0.0,0.0,0.0,0.0,0.0,-3.1193,-3.1691,-3.189,-3.2027,-3.2475,-3.3351,-3.3505,-3.362,-3.3809,-3.3884,-3.3937,-3.3933,-3.3933,-3.4238,-3.498,-3.502,-3.5001,-3.5019,-3.5039,-3.502,-3.5075,-3.5035,-3.5032,-3.5272,-3.5212,-3.5117,-3.519,-3.519,-3.519,-3.519,-3.519,-3.519,-3.519,-3.519,-3.519,-3.519,-3.519,-3.519,-3.519,-3.519,-3.519,-3.519,-3.519,-3.519,-3.519,-3.5114,-3.5073,-3.5155,-3.5132,-3.53,-3.9896,-3.9896,-3.9896,-3.9896,-3.986,-3.9289,-3.9022,-3.9022,-3.9022,-3.9022,-3.9022,-3.9022,-3.9133,-3.9226,-3.9226,-3.9245,-3.9337,-3.9319,-3.9319,-3.9319,-3.9319,-3.9373,-3.9355,-3.9373,-3.9373,-3.9337,-3.8762,-3.8456,-3.8438,-3.7808,-3.7502,-3.7502,-3.7484,-3.7502,-3.7484,0.0,0.0,0.0,-3.5322,-3.488,-3.4303,-3.4168,-3.3813,-3.3183,-3.3165,0.0,-3.3165,-3.3147,-3.3196,-3.3292,-3.334,0.0,0.0,0.0,0.0,0.0,0.0,0.0,0.0,0.0,0.0,0.0,-3.3437,-3.3211,-3.3022,-3.3232,-3.3083,-3.252,-3.2551,-3.2762,-3.2985,-3.3222,-3.3648,-3.4327,-3.4584,-3.4699,-3.468,-3.4699,-3.4756,-3.4908,-3.4927,-3.4927,-3.4983,-3.4964,-3.502,-3.5134,-3.5075,-3.5359,-3.6024,-3.5602,-3.5217,-3.5193,-3.5327,-3.5248,-3.519,-3.5229,-3.5267,-3.519,-3.519,-3.519,-3.519,-3.519,-3.519,-3.519,-3.519,-3.519,-3.519,-3.519,-3.519,-3.519,-3.519,-3.519,-3.5207,-3.5207,-3.5226,-4.1074,0.0,-4.1074,-4.1092,0.0,-4.1074,-4.1092,-4.1038,-4.0235,-3.9896,-3.9896,-3.9896,-3.9914,-4.0009,-4.0027,-4.0009,-4.0068,-4.005,-4.0085,-4.0161,-4.0179,-4.0143,-4.02,-4.02,-4.02,-4.02,-3.9841,-3.9643,-3.9625,-3.9247,-3.9031,-3.9049,-3.9031,-3.8852,-3.8492,-3.8097,-3.734,-3.6251,-3.5789,-3.5375,-3.5015,-3.4914,-3.4519,-3.3714,0.0,0.0,0.0,0.0,0.0,0.0,0.0,0.0,0.0,0.0,0.0,-3.3452,-3.3452,-3.3481,-3.3549,-3.3549,-3.353,-3.3569,-3.355,-3.3577,-3.3611,-3.3369,-3.3261,-3.3395,-3.3571,-3.3732,-3.3867,-3.4011,-3.426,-3.4694,-3.485,-3.4908,-3.4908,-3.4908,-3.4908,-3.4965,-3.5287,-3.5533,-3.5552,-3.5951,-3.616,-3.6179,-3.6198,-3.6369,-3.673,-3.6234,-3.5869,-3.6342,-3.6436,-3.6264,-3.5919,-3.584,-3.5649,-3.5343,-3.519,-3.519,-3.519,-3.519,-3.519,-3.519,-3.519,-3.519,-3.519,-3.519,-3.519,-3.519,-3.519,-3.519,-3.519,-3.519,-3.519,-4.2626,-4.2501,-4.2501,-4.243,-4.2287,-4.2287,-4.2287,-4.2198,0.0,0.0,0.0,-4.0342,-4.0324,-4.0342,-4.0342,-4.0342,-4.0324,-4.0342,-4.0381,-4.0495,-4.0495,-4.0515,-4.0556,-4.0556,-4.0556,-4.0538,-4.0412,-4.0359,-4.0341,-4.0197,-4.0125,-4.0143,-4.0125,-3.982,-3.921,-3.8438,-3.7721,-3.7057,-3.6283,-3.5816,-3.569,-3.569,-3.528,-3.4473,-3.4455,-3.4096,-3.3306,-3.327,-3.3265,-3.325,-3.3262,-3.3292,-3.3334,-3.3334,-3.3382,-3.3364,-3.3382,-3.3382,-3.3393,-3.3393,-3.3393,-3.3393,-3.3393,-3.3411,-3.3465,-3.3049,-3.3099,-3.3993,-3.4269,-3.4435,-3.4612,-3.4713,-3.4772,-3.4772,-3.4851,-3.4946,-3.5097,-3.5135,-3.523,-3.5382,-3.5988,-3.6405,-3.6424,-3.6917,-3.739,-3.7371,-3.7278,-3.7524,-3.7565,-3.7034,-3.6786,-3.7356,-3.7451,-3.7411,-3.6913,-3.6719,-3.6413,-3.5897,-3.5725,-3.5649,-3.563,-3.5534,-3.5439,-3.5496,-3.5343,-3.5209,-3.519,-3.519,-3.519,-3.519,-3.519,-3.519,-3.519,-3.519,-3.519,-4.3911,-4.334,-4.334,-4.2929,-4.2287,-4.2287,-4.2287,-4.2269,-4.2055,-4.1966,-4.1948,-4.1948,-4.1966,-4.1966,-4.1948,-4.1966,-4.1948,-4.1948,-4.1966,-4.2007,-4.2024,-4.2007,-4.1989,-4.1989,-4.1989,-4.1935,-4.1292,-4.0971,-4.0899,-4.0292,-3.9953,-3.9971,-3.9953,-3.9899,-3.9738,-3.906,-3.8613,-3.8488,-3.7757,-3.7076,-3.6484,-3.6326,-3.5881,-3.513,-3.5077,-3.4738,-3.4005,-3.3952,-3.3681,-3.3064,-3.306,-3.3073,-3.3135,-3.3165,-3.3214,-3.3292,-3.331,-3.3352,-3.3393,-3.3393,-3.3393,-3.3393,-3.3393,-3.3411,-3.3411,-3.3332,-3.3372,-3.352,-3.3605,-3.3577,-3.3643,-3.4092,-3.4419,-3.44,-3.471,-3.5173,-3.5912,-3.6007,-3.6234,-3.6841,-3.7125,-3.722,-3.7258,-3.739,-3.7542,-3.7447,-3.7656,-3.7752,-3.8245,-3.7908,-3.7528,-3.7604,-3.7661,-3.7641,-3.7564,-3.7524,-3.7408,-3.7368,-3.7234,-3.7139,-3.7139,-3.668,-3.6337,-3.6301,-3.5763,-3.5343,-3.5267,-3.519,-3.519,-3.519,-3.519,-3.519,-3.519,-3.519,-3.519,-4.4428,-4.4125,-4.4107,-4.3911,-4.3554,-4.3554,-4.3322,-4.2965,-4.2947,-4.2697,-4.2305,-4.2287,-4.2287,-4.2287,-4.2287,-4.2287,-4.2287,-4.2287,-4.2287,-4.2287,-4.2287,-4.2287,-4.2287,-4.2287,-4.2287,-4.2269,-4.1912,-4.1752,-4.1698,-4.1377,-4.1199,-4.1181,-4.077,-4.0556,-4.0521,-3.9789,-3.9414,-3.9379,-3.8238,-3.7488,-3.7167,-3.7095,-3.6649,-3.5882,-3.5864,-3.5489,-3.474,-3.4704,-3.438,-3.3677,-3.3641,-3.349,-3.3122,-3.3104,-3.3135,-3.3183,-3.3262,-3.331,-3.3352,-3.3382,-3.3393,-3.3393,-3.3393,-3.3599,-3.4045,-3.3782,-3.3615,-3.3633,-3.3753,-3.4017,-3.4421,-3.4847,-3.5231,-3.5675,-3.6031,-3.6424,-3.6746,-3.6841,-3.6992,-3.7371,-3.7807,-3.8073,-3.8112,-3.849,-3.8755,-3.8755,-3.8755,-3.8925,-3.9286,-3.9081,-3.8857,-3.8877,-3.8936,-3.8746,-3.8404,-3.8271,-3.8136,-3.7792,-3.7696,-3.7677,-3.7693,-3.733,-3.7215,-3.7101,-3.647,-3.5993,-3.5897,-3.5496,-3.5267,-3.519,-3.519,-3.519,-3.519,-3.519,-3.519,-4.5035,-4.4892,-4.4892,-4.4785,-4.4607,-4.4607,-4.4285,-4.3786,-4.375,-4.3393,-4.2822,-4.2465,-4.2287,-4.2287,-4.2287,-4.2287,-4.2287,-4.2287,-4.2287,-4.2287,-4.2287,-4.2287,-4.2287,-4.2287,-4.2287,-4.2287,-4.2287,-4.2287,-4.2287,-4.2287,-4.2287,-4.2216,-4.1663,-4.1377,-4.1341,-4.0574,-4.0182,-4.0092,-3.8826,-3.8023,-3.7862,-3.7684,-3.7273,-3.6738,-3.6667,-3.6292,-3.5525,-3.5489,-3.5148,-3.45,-3.4429,-3.4157,-3.3598,-3.3593,-3.3593,-3.3625,-3.3723,-3.3803,-3.3815,-3.39,-3.3953,-3.3923,-3.393,-3.4214,-3.4749,-3.4484,-3.4275,-3.4366,-3.4659,-3.5052,-3.5572,-3.5928,-3.631,-3.693,-3.7246,-3.7428,-3.7637,-3.7675,-3.7769,-3.7978,-3.8565,-3.8944,-3.9077,-3.9513,-3.9794,-3.9775,-3.9889,-3.9889,-3.9889,-3.9889,-3.9933,-3.9954,-3.9996,-3.9732,-3.9163,-3.9088,-3.888,-3.829,-3.8309,-3.8403,-3.8327,-3.8173,-3.7981,-3.7885,-3.7311,-3.6852,-3.6719,-3.6298,-3.5935,-3.5935,-3.5974,-3.5878,-3.5916,-3.5897,-3.5592,-4.6337,-4.5731,-4.5695,-4.5267,-4.4696,-4.466,-4.4624,-4.4535,-4.4517,-4.4482,-4.4196,-4.2929,-4.2341,-4.2287,-4.2305,-4.2287,-4.2287,-4.2287,-4.2287,-4.2287,-4.2287,-4.2287,-4.2287,-4.2287,-4.2287,-4.2287,-4.2287,-4.2287,-4.2287,-4.2287,-4.2287,-4.2287,-4.2216,-4.2144,-4.2073,-4.1377,-4.0985,-4.0967,-4.0128,-3.9361,-3.8701,-3.7969,-3.7541,-3.7487,-3.747,-3.7095,-3.6328,-3.6274,-3.5935,-3.5204,-3.5114,-3.5061,-3.5005,-3.4972,-3.5057,-3.5142,-3.5175,-3.5277,-3.5335,-3.549,-3.5513,-3.5568,-3.5527,-3.5579,-3.5711,-3.567,-3.5733,-3.5983,-3.6284,-3.6359,-3.6596,-3.6774,-3.6971,-3.7197,-3.7416,-3.7694,-3.8414,-3.8586,-3.885,-3.9627,-3.9605,-3.9757,-3.9721,-3.9813,-3.987,-3.9889,-3.9889,-3.9889,-3.9889,-3.9889,-3.987,-3.9911,-3.9954,-3.9958,-3.9806,-3.9924,-3.9754,-3.9736,-3.9831,-3.9679,-3.9489,-3.9147,-3.8803,-3.8727,-3.8134,-3.7655,-3.7597,-3.7464,-3.7368,-3.7101,-3.7158,-3.7368,-3.7445,-3.7311,-3.6814,-4.6801,-4.6516,-4.6498,-4.6337,-4.6034,-4.6016,-4.5749,-4.5338,-4.532,-4.5071,-4.4571,-4.3929,-4.3447,-4.2983,-4.2519,-4.2287,-4.2287,-4.2287,-4.2287,-4.2287,-4.2287,-4.2287,-4.2287,-4.2287,-4.2287,-4.2287,-4.2287,-4.2287,-4.2287,-4.2287,-4.2287,-4.2287,-4.2287,-4.2287,-4.2269,-4.1966,-4.1805,-4.177,-4.102,-4.0449,-4.0075,-3.895,-3.8308,-3.8255,-3.7844,-3.7452,-3.7148,-3.7095,-3.6738,-3.5989,-3.5917,-3.5703,-3.5221,-3.5204,-3.5221,-3.5273,-3.5375,-3.5508,-3.5606,-3.5882,-3.603,-3.603,-3.6248,-3.652,-3.7011,-3.7156,-3.7522,-3.791,-3.7108,-3.6638,-3.7314,-3.7641,-3.7972,-3.8385,-3.872,-3.902,-3.9342,-3.9399,-3.957,-3.9851,-3.9889,-3.9889,-3.9889,-3.9889,-3.9889,-3.9889,-3.9889,-3.9889,-3.9889,-3.9889,-3.9889,-3.9911,-3.9933,-3.9933,-3.9954,-3.9954,-3.9975,-4.0036,-4.0036,-4.0057,-4.002,-3.9907,-3.9623,-3.9643,-3.8956,-3.8478,-3.8476,-3.798,-3.7693,-3.7769,-3.7712,-3.7693,-3.7693,-3.7693,-3.7292,-4.6888,-4.6888,-4.698,-4.6998,-4.6998,-4.6998,-4.6659,-4.6159,-4.6123,-4.5802,-4.5285,-4.5053,-4.4642,-4.4071,-4.3286,-4.2822,-4.2644,-4.2626,-4.2501,-4.2305,-4.2287,-4.2287,-4.2287,-4.2287,-4.2287,-4.2287,-4.2287,-4.2287,-4.2287,-4.2287,-4.2287,-4.2287,-4.2287,-4.2287,-4.2287,-4.2287,-4.2287,-4.2234,-4.1698,-4.1413,-4.1252,-4.0128,-3.9325,-3.9075,-3.8344,-3.7916,-3.7916,-3.7702,-3.7327,-3.6756,-3.6738,-3.6453,-3.5917,-3.5864,-3.5864,-3.5864,-3.6002,-3.6155,-3.6222,-3.6497,-3.6731,-3.6857,-3.71,-3.7508,-3.8063,-3.8378,-3.8796,-3.9214,-3.8029,-3.757,-3.8278,-3.8625,-3.9001,-3.9548,-3.9781,-3.9889,-3.987,-3.9889,-3.9851,-3.9889,-3.9889,-3.9889,-3.9889,-3.9889,-3.9889,-3.9889,-3.9889,-3.9889,-3.9889,-3.9889,-3.9889,-3.9889,-3.987,-3.9889,-3.9889,-3.9911,-3.9933,-3.9954,-3.9975,-3.9975,-4.0036,-4.0038,-4.0058,-3.9793,-3.9433,-3.9319,-3.9318,-3.8764,-3.8363,-3.84,-3.84,-3.84,-3.8648,-3.8457,-3.8457,-4.6637,-4.6637,-4.6888,-4.6998,-4.6998,-4.6998,-4.6962,-4.6855,-4.6908,-4.6873,-4.6676,-4.6052,-4.5731,-4.5606,-4.4839,-4.4107,-4.3518,-4.3447,-4.309,-4.2465,-4.2358,-4.2305,-4.2287,-4.2287,-4.2287,-4.2287,-4.2287,-4.2287,-4.2287,-4.2287,-4.2287,-4.2287,-4.2287,-4.2287,-4.2287,-4.2287,-4.2287,-4.2269,-4.2198,-4.218,-4.2109,-4.1395,-4.061,-3.995,-3.9165,-3.8754,-3.8683,-3.8005,-3.7594,-3.7541,-3.7523,-3.7487,-3.7434,-3.7416,-3.7362,-3.7434,-3.7506,-3.7596,-3.7683,-3.7783,-3.8004,-3.8376,-3.8409,-3.8644,-3.8878,-3.8958,-3.9137,-3.9483,-3.9314,-3.9325,-3.9588,-3.9596,-3.9716,-3.981,-3.9848,-3.9889,-3.9889,-3.9889,-3.9889,-3.9889,-3.9889,-3.9889,-3.9889,-3.9889,-3.9889,-3.9889,-3.9889,-3.9889,-3.9889,-3.9889,-3.9889,-3.9889,-3.9889,-3.9889,-3.9889,-3.9889,-3.9911,-3.9911,-3.9933,-3.9911,-3.9933,-3.9954,-3.9996,-4.0017,-3.9906,-3.9908,-4.0062,-4.0063,-3.9891,-3.9814,-3.9757,-3.9794,-3.9546,-4.0005,-3.9909,-4.6332,-4.6381,-4.6619,-4.6731,-4.6731,-4.6952,-4.6998,-4.6998,-4.6998,-4.6998,-4.6944,-4.6676,-4.6551,-4.6551,-4.6266,-4.5445,-4.4285,-4.4214,-4.4053,-4.3732,-4.3304,-4.3072,-4.3019,-4.2555,-4.2287,-4.2287,-4.2287,-4.2287,-4.2287,-4.2287,-4.2287,-4.2287,-4.2287,-4.2287,-4.2287,-4.2287,-4.2287,-4.2287,-4.2287,-4.2287,-4.2269,-4.2002,-4.1716,-4.1395,-4.0182,-3.9504,-3.9521,-3.9218,-3.8861,-3.8397,-3.838,-3.813,-3.7648,-3.7577,-3.7577,-3.7613,-3.7667,-3.7703,-3.781,-3.8289,-3.8649,-3.881,-3.9214,-3.9488,-3.9542,-3.958,-3.9647,-3.9754,-3.9777,-3.9804,-3.9848,-3.9889,-3.9889,-3.9889,-3.9889,-3.9946,-3.9889,-3.9889,-3.9889,-3.9889,-3.9889,-3.9889,-3.9984,-3.9889,-3.9889,-3.9889,-3.9889,-3.9889,-3.9889,-3.9889,-3.9889,-3.9889,-3.9889,-3.9889,-3.9889,-3.9889,-3.9889,-3.9889,-3.9889,-3.9911,-3.9911,-3.9911,-3.9954,-3.9996,-4.0036,-4.0057,-4.0059,-4.0138,-4.0196,-4.0234,-4.0253,-4.0272,-4.031,-4.0291,-4.031,-4.6154,-4.6235,-4.6398,-4.6477,-4.6477,-4.6684,-4.6778,-4.686,-4.6888,-4.6952,-4.6998,-4.6998,-4.6998,-4.6998,-4.6998,-4.6462,-4.541,-4.5142,-4.4874,-4.4589,-4.4089,-4.3875,-4.375,-4.3054,-4.268,-4.2626,-4.2394,-4.2287,-4.2287,-4.2287,-4.2287,-4.2287,-4.2287,-4.2287,-4.2287,-4.2287,-4.2287,-4.2287,-4.2287,-4.2287,-4.2287,-4.2287,-4.2287,-4.2144,-4.1217,-4.0538,-4.0307,-4.0057,-3.97,-3.9254,-3.9167,-3.8899,-3.8381,-3.8345,-3.8326,-3.8326,-3.84,-3.8437,-3.8528,-3.8977,-3.9415,-3.9685,-4.0122,-4.0472,-4.0643,-4.0704,-4.0726,-4.0726,-4.0707,-4.0707,-4.0707,-4.0745,-4.0612,-4.0438,-4.0555,-4.0707,-4.0685,-4.0722,-4.0783,-4.0802,-4.084,-4.0764,-4.0669,-4.0479,-4.0385,-4.0328,-4.0138,-3.9889,-3.9889,-3.9889,-3.9889,-3.9889,-3.9889,-3.9889,-3.9889,-3.9889,-3.9889,-3.9889,-3.9889,-3.9889,-3.9889,-3.9889,-3.9911,-3.9954,-3.9975,-3.9996,-4.0038,-4.0118,-4.0138,-4.0176,-4.0215,-4.0253,-4.0273,-4.0291,-4.0291,-4.592,-4.6137,-4.6204,-4.6168,-4.6186,-4.6235,-4.6398,-4.659,-4.6655,-4.6731,-4.6952,-4.6998,-4.6998,-4.6998,-4.6998,-4.6926,-4.6676,-4.6105,-4.5481,-4.4892,-4.4696,-4.4642,-4.4589,-4.3857,-4.3447,-4.334,-4.2662,-4.2287,-4.2287,-4.2287,-4.2287,-4.2287,-4.2287,-4.2287,-4.2287,-4.2287,-4.2287,-4.2287,-4.2287,-4.2287,-4.2287,-4.2287,-4.2287,-4.2287,-4.2144,-4.1787,-4.1127,-4.0431,-4.0075,-3.9932,-3.992,-3.9904,-3.9723,-3.9703,-3.9807,-3.9718,-3.9807,-3.9899,-3.9958,-4.0037,-4.0393,-4.0861,-4.1316,-4.156,-4.1921,-4.2105,-4.2147,-4.2109,-4.2147,-4.2242,-4.2204,-4.2261,-4.1996,-4.1427,-4.173,-4.209,-4.2204,-4.2318,-4.2356,-4.2223,-4.2128,-4.2337,-4.2204,-4.1654,-4.1219,-4.1067,-4.0647,-4.0249,-4.0268,-4.0211,-3.9965,-3.9946,-3.9927,-3.9889,-3.9889,-3.9889,-3.9889,-3.9889,-3.9889,-3.9889,-3.9889,-3.9889,-3.9889,-3.9933,-3.9933,-3.9954,-3.9975,-4.0038,-4.0098,-4.0118,-4.0176,-4.0234,-4.0253,-4.0291,-4.0291,-4.5563,-4.5667,-4.5837,-4.5938,-4.5938,-4.6137,-4.6235,-4.6332,-4.6525,-4.6655,-4.6749,-4.6952,-4.6998,-4.6998,-4.6998,-4.6998,-4.6962,-4.6712,-4.648,-4.6159,-4.5677,-4.5427,-4.5285,-4.4642,-4.4,-4.3447,-4.268,-4.2287,-4.2287,-4.2287,-4.2287,-4.2287,-4.2287,-4.2287,-4.2287,-4.2287,-4.2287,-4.2287,-4.2287,-4.2287,-4.2287,-4.2287,-4.2287,-4.2287,-4.2287,-4.2162,-4.1912,-4.168,-4.1306,-4.077,-4.0721,-4.0488,-4.0018,-3.9875,-3.9896,-3.9896,-3.9896,-3.9932,-4.0006,-4.0259,-4.0579,-4.0951,-4.1397,-4.1763,-4.2033,-4.2328,-4.2427,-4.245,-4.2412,-4.2393,-4.2488,-4.2962,-4.2905,-4.2128,-4.2261,-4.2488,-4.2545,-4.2488,-4.2393,-4.2393,-4.2393,-4.2393,-4.2393,-4.2109,-4.2052,-4.2033,-4.173,-4.1522,-4.1503,-4.1048,-4.0821,-4.0802,-4.0423,-4.0116,-4.0268,-4.0268,-4.0135,-4.006,-4.0003,-3.9889,-3.9889,-3.9889,-3.9889,-3.9889,-3.9889,-3.9911,-3.9933,-3.9975,-4.0017,-4.0098,-4.0138,-4.0196,-4.0273,-4.0291,-4.0291,-4.5441,-4.5441,-4.5598,-4.5649,-4.5649,-4.5837,-4.5955,-4.6038,-4.6217,-4.6332,-4.6477,-4.6637,-4.6684,-4.6731,-4.6778,-4.6824,-4.6888,-4.6934,-4.6998,-4.6926,-4.6516,-4.6248,-4.6123,-4.5427,-4.4464,-4.359,-4.3001,-4.2573,-4.2287,-4.2287,-4.2287,-4.2287,-4.2287,-4.2287,-4.2287,-4.2287,-4.2287,-4.2287,-4.2287,-4.2287,-4.2287,-4.2287,-4.2287,-4.2287,-4.2287,-4.2287,-4.2287,-4.2287,-4.2055,-4.1627,-4.1542,-4.127,-4.0816,-4.0802,-4.0788,-4.0806,-4.0806,-4.0824,-4.0824,-4.1149,-4.1354,-4.1609,-4.2056,-4.2507,-4.2742,-4.3037,-4.3164,-4.3298,-4.3379,-4.3341,-4.3436,-4.3796,-4.3853,-4.3417,-4.3379,-4.3341,-4.3322,-4.3322,-4.336,-4.3417,-4.3398,-4.3341,-4.3322,-4.2981,-4.2924,-4.2886,-4.2621,-4.2393,-4.2299,-4.1939,-4.1768,-4.1616,-4.1389,-4.1143,-4.0934,-4.0726,-4.0438,-4.0287,-4.0195,-4.0003,-3.9889,-3.9889,-3.9889,-3.9889,-3.9889,-3.9889,-3.9933,-3.9933,-3.9994,-4.0057,-4.0118,-4.0176,-4.0215,-4.0272,-4.031,-4.5371,-4.5423,-4.5441,-4.5423,-4.5423,-4.5423,-4.5563,-4.5735,-4.5819,-4.5988,-4.6137,-4.6235,-4.6253,-4.6284,-4.6495,-4.6572,-4.6637,-4.6824,-4.698,-4.6998,-4.689,-4.6855,-4.673,-4.6034,-4.5017,-4.3982,-4.3643,-4.3144,-4.2519,-4.2483,-4.2323,-4.2305,-4.2287,-4.2287,-4.2287,-4.2287,-4.2287,-4.2287,-4.2287,-4.2287,-4.2287,-4.2287,-4.2287,-4.2287,-4.2287,-4.2287,-4.2287,-4.2287,-4.2287,-4.2269,-4.218,-4.2126,-4.2216,-4.2269,-4.2126,-4.2073,-4.2234,-4.2144,-4.2257,-4.2172,-4.2391,-4.2651,-4.2941,-4.3564,-4.383,-4.3968,-4.4218,-4.4474,-4.4624,-4.4724,-4.4724,-4.4781,-4.4762,-4.4838,-4.4592,-4.463,-4.4819,-4.4762,-4.4592,-4.4687,-4.4857,-4.4838,-4.463,-4.4099,-4.3853,-4.3663,-4.3208,-4.2962,-4.2791,-4.2754,-4.2545,-4.2375,-4.2204,-4.1901,-4.1598,-4.1465,-4.1237,-4.1162,-4.0877,-4.0498,-4.0041,-3.9908,-3.9889,-3.9889,-3.9889,-3.9889,-3.9889,-3.9911,-3.9973,-4.0015,-4.0077,-4.0137,-4.0176,-4.0253,-4.0272,-4.5069,-4.5371,-4.5441,-4.5441,-4.5441,-4.5441,-4.5423,-4.5511,-4.5735,-4.5837,-4.5938,-4.6137,-4.6186,-4.6186,-4.6253,-4.6398,-4.6542,-4.6684,-4.6842,-4.6998,-4.6998,-4.6998,-4.6837,-4.6212,-4.5624,-4.5106,-4.4553,-4.3929,-4.3233,-4.3144,-4.2876,-4.2305,-4.2305,-4.2287,-4.2287,-4.2287,-4.2287,-4.2287,-4.2287,-4.2287,-4.2287,-4.2287,-4.2287,-4.2287,-4.2287,-4.2287,-4.2287,-4.2287,-4.2287,-4.2287,-4.2287,-4.2287,-4.2287,-4.2287,-4.2287,-4.2287,-4.2287,-4.2287,-4.2287,-4.2346,-4.2417,-4.2642,-4.2953,-4.3267,-4.3516,-4.4084,-4.4393,-4.4584,-4.4732,-4.4895,-4.4895,-4.4895,-4.4895,-4.4895,-4.4895,-4.4895,-4.4895,-4.4895,-4.4895,-4.4895,-4.4895,-4.4895,-4.4838,-4.4706,-4.4516,-4.4459,-4.4289,-4.4061,-4.3834,-4.3568,-4.3341,-4.3114,-4.2886,-4.2545,-4.228,-4.2166,-4.209,-4.2071,-4.1749,-4.1237,-4.0612,-3.9984,-3.9927,-3.9889,-3.9889,-3.9889,-3.9889,-3.9911,-3.9954,-4.0015,-4.0036,-4.0077,-4.0157,-4.0215,-4.0253,-4.4558,-4.4797,-4.478,-4.4797,-4.4835,-4.4998,-4.514,-4.5177,-4.5494,-4.5649,-4.5649,-4.5803,-4.5854,-4.5854,-4.6005,-4.6105,-4.6301,-4.6381,-4.659,-4.6842,-4.6952,-4.6998,-4.6873,-4.6462,-4.6141,-4.5766,-4.5338,-4.4714,-4.4018,-4.3679,-4.3233,-4.2822,-4.2448,-4.2287,-4.2287,-4.2287,-4.2287,-4.2287,-4.2287,-4.2287,-4.2287,-4.2287,-4.2287,-4.2287,-4.2287,-4.2287,-4.2287,-4.2287,-4.2287,-4.2287,-4.2287,-4.2287,-4.2287,-4.2287,-4.2287,-4.2287,-4.2287,-4.2287,-4.2287,-4.2287,-4.2323,-4.244,-4.2709,-4.3014,-4.3391,-4.3886,-4.4199,-4.461,-4.4802,-4.487,-4.4895,-4.4895,-4.4895,-4.4895,-4.4895,-4.4895,-4.4895,-4.4895,-4.4895,-4.4895,-4.4895,-4.4895,-4.4895,-4.4895,-4.4895,-4.4876,-4.48,-4.4762,-4.4706,-4.4402,-4.4137,-4.3872,-4.3796,-4.3606,-4.3322,-4.317,-4.2962,-4.2924,-4.2621,-4.209,-4.1313,-4.0476,-4.0211,-4.0154,-4.0003,-3.9889,-3.9889,-3.9911,-3.9933,-3.9975,-3.9994,-4.0036,-4.0098,-4.0176,-4.0215,-4.3972,-4.403,-4.403,-4.403,-4.4088,-4.4429,-4.4652,-4.4708,-4.5015,-4.5194,-4.523,-4.53,-4.5336,-4.5371,-4.5649,-4.5786,-4.5819,-4.6087,-4.6332,-4.6637,-4.6842,-4.6998,-4.698,-4.6908,-4.6551,-4.6105,-4.5945,-4.5463,-4.4821,-4.4125,-4.3679,-4.3358,-4.2751,-4.2394,-4.2323,-4.2287,-4.2287,-4.2287,-4.2287,-4.2287,-4.2287,-4.2287,-4.2287,-4.2287,-4.2287,-4.2287,-4.2287,-4.2287,-4.2287,-4.2287,-4.2287,-4.2287,-4.2287,-4.2287,-4.2287,-4.2287,-4.2287,-4.2287,-4.2287,-4.2287,-4.2287,-4.2328,-4.2432,-4.2716,-4.3261,-4.359,-4.3999,-4.453,-4.4802,-4.4827,-4.4895,-4.4895,-4.4895,-4.4895,-4.4895,-4.4895,-4.4895,-4.4895,-4.4895,-4.4895,-4.4895,-4.4895,-4.4895,-4.4895,-4.4895,-4.4895,-4.4895,-4.4895,-4.4895,-4.4706,-4.4611,-4.4611,-4.4649,-4.4762,-4.4478,-4.4232,-4.3966,-4.3758,-4.3417,-4.2905,-4.2185,-4.1446,-4.0874,-4.0571,-4.0476,-4.0211,-3.9889,-3.9911,-3.997,-3.9954,-3.9954,-4.0015,-4.0096,-4.0118,-4.0176,-4.3663,-4.403,-4.403,-4.403,-4.403,-4.4088,-4.4145,-4.4145,-4.4259,-4.4373,-4.4373,-4.4725,-4.4818,-4.4872,-4.5213,-4.5598,-4.5666,-4.5837,-4.6137,-4.659,-4.6888,-4.6998,-4.6998,-4.6998,-4.689,-4.6694,-4.6712,-4.6302,-4.5624,-4.5213,-4.466,-4.3643,-4.3358,-4.2929,-4.2412,-4.2323,-4.2287,-4.2287,-4.2287,-4.2287,-4.2287,-4.2287,-4.2287,-4.2287,-4.2287,-4.2287,-4.2287,-4.2287,-4.2287,-4.2287,-4.2287,-4.2287,-4.2287,-4.2287,-4.2287,-4.2287,-4.2287,-4.2287,-4.2287,-4.2287,-4.2287,-4.2328,-4.2391,-4.257,-4.2706,-4.3193,-4.3568,-4.4028,-4.4299,-4.461,-4.4852,-4.4895,-4.4895,-4.4895,-4.4895,-4.4895,-4.4895,-4.4895,-4.4895,-4.4895,-4.4895,-4.4895,-4.4895,-4.4895,-4.4895,-4.4895,-4.4895,-4.4895,-4.4895,-4.4895,-4.4895,-4.4895,-4.4895,-4.4895,-4.48,-4.4592,-4.4478,-4.4326,-4.4061,-4.3834,-4.3095,-4.2545,-4.2014,-4.1484,-4.101,-4.0707,-4.0476,-4.0041,-4.0119,-4.0025,-3.997,-3.9973,-4.0015,-4.0077,-4.0118,-4.3141,-4.3323,-4.3323,-4.3323,-4.3399,-4.3562,-4.368,-4.3739,-4.3898,-4.403,-4.403,-4.4299,-4.4356,-4.4373,-4.4597,-4.4818,-4.4964,-4.5232,-4.5751,-4.6381,-4.6655,-4.6749,-4.6998,-4.6998,-4.6998,-4.6998,-4.698,-4.6694,-4.6373,-4.5945,-4.5356,-4.4553,-4.3911,-4.3322,-4.2804,-4.2465,-4.2305,-4.2287,-4.2287,-4.2287,-4.2287,-4.2287,-4.2287,-4.2287,-4.2287,-4.2287,-4.2287,-4.2287,-4.2287,-4.2287,-4.2287,-4.2287,-4.2287,-4.2287,-4.2287,-4.2287,-4.2287,-4.2287,-4.2287,-4.2287,-4.2287,-4.2287,-4.2369,-4.2512,-4.2678,-4.3043,-4.3339,-4.3758,-4.4154,-4.4503,-4.4827,-4.4895,-4.4895,-4.4895,-4.4895,-4.4895,-4.4895,-4.4895,-4.4895,-4.4895,-4.4895,-4.4895,-4.4895,-4.4895,-4.4895,-4.4895,-4.4895,-4.4895,-4.4895,-4.4895,-4.4895,-4.4895,-4.4895,-4.4895,-4.4895,-4.4838,-4.4819,-4.4724,-4.4611,-4.4478,-4.4156,-4.3663,-4.3227,-4.2526,-4.1768,-4.1692,-4.1427,-4.0915,-4.0479,-4.0536,-4.046,-4.016,-3.9992,-4.0091,-4.0114,-4.2571,-4.2571,-4.2571,-4.2571,-4.2696,-4.3035,-4.3202,-4.3246,-4.3604,-4.368,-4.3798,-4.3856,-4.3898,-4.3914,-4.403,-4.403,-4.4186,-4.4563,-4.5372,-4.6003,-4.6284,-4.6429,-4.6713,-4.687,-4.6998,-4.6998,-4.6998,-4.6926,-4.6748,-4.6355,-4.5927,-4.5534,-4.4392,-4.3661,-4.3358,-4.2715,-4.2287,-4.2287,-4.2287,-4.2287,-4.2287,-4.2287,-4.2287,-4.2287,-4.2287,-4.2287,-4.2287,-4.2287,-4.2287,-4.2287,-4.2287,-4.2287,-4.2287,-4.2287,-4.2287,-4.2287,-4.2287,-4.2287,-4.2287,-4.2287,-4.2287,-4.2287,-4.2287,-4.2453,-4.2767,-4.2884,-4.3155,-4.3615,-4.4035,-4.4476,-4.4777,-4.487,-4.4895,-4.4895,-4.4895,-4.4895,-4.4895,-4.4895,-4.4895,-4.4895,-4.4895,-4.4895,-4.4895,-4.4895,-4.4895,-4.4895,-4.4895,-4.4895,-4.4895,-4.4895,-4.4895,-4.4895,-4.4895,-4.4895,-4.4895,-4.4895,-4.4895,-4.4895,-4.4895,-4.4857,-4.48,-4.4459,-4.3872,-4.3152,-4.2602,-4.2488,-4.2223,-4.1692,-4.137,-4.1275,-4.1105,-4.0915,-4.0596,-4.0239,-4.0203,-4.2571,-4.2571,-4.2571,-4.2571,-4.2634,-4.268,-4.2743,-4.2743,-4.2851,-4.2867,-4.2912,-4.3262,-4.3426,-4.3486,-4.3856,-4.4105,-4.4259,-4.4541,-4.4892,-4.532,-4.5751,-4.6217,-4.628,-4.676,-4.6998,-4.6998,-4.6998,-4.6998,-4.698,-4.6819,-4.6409,-4.5749,-4.491,-4.4214,-4.35,-4.2751,-4.2358,-4.2287,-4.2287,-4.2287,-4.2287,-4.2287,-4.2287,-4.2287,-4.2287,-4.2287,-4.2287,-4.2287,-4.2287,-4.2287,-4.2287,-4.2287,-4.2287,-4.2287,-4.2287,-4.2287,-4.2287,-4.2287,-4.2287,-4.2287,-4.2287,-4.2287,-4.2287,-4.2287,-4.2453,-4.2548,-4.2874,-4.3339,-4.3924,-4.4402,-4.4503,-4.4751,-4.487,-4.4895,-4.4895,-4.4895,-4.4895,-4.4895,-4.4895,-4.4895,-4.4895,-4.4895,-4.4895,-4.4895,-4.4895,-4.4895,-4.4895,-4.4895,-4.4895,-4.4895,-4.4895,-4.4895,-4.4895,-4.4895,-4.4895,-4.4895,-4.4895,-4.4895,-4.4895,-4.4895,-4.4857,-4.4876,-4.444,-4.3758,-4.3379,-4.3246,-4.2886,-4.2469,-4.2261,-4.2166,-4.1958,-4.1711,-4.1355,-4.0975,-4.0715,-4.2571,-4.2571,-4.2571,-4.2571,-4.2571,-4.2571,-4.2571,-4.2571,-4.2571,-4.2571,-4.268,-4.2851,-4.2896,-4.3019,-4.3295,-4.3697,-4.4145,-4.4105,-4.4468,-4.4947,-4.5494,-4.5903,-4.6035,-4.6684,-4.6934,-4.6998,-4.6998,-4.6998,-4.6998,-4.698,-4.6766,-4.6373,-4.5624,-4.4839,-4.4089,-4.3358,-4.2715,-4.2448,-4.2287,-4.2287,-4.2287,-4.2287,-4.2287,-4.2287,-4.2287,-4.2287,-4.2287,-4.2287,-4.2287,-4.2287,-4.2287,-4.2287,-4.2287,-4.2287,-4.2287,-4.2287,-4.2287,-4.2287,-4.2287,-4.2287,-4.2287,-4.2287,-4.2287,-4.2287,-4.2287,-4.2405,-4.2667,-4.3213,-4.367,-4.4213,-4.4549,-4.4751,-4.487,-4.4895,-4.4895,-4.4895,-4.4895,-4.4895,-4.4895,-4.487,-4.4852,-4.487,-4.4895,-4.4895,-4.4895,-4.4895,-4.4895,-4.4895,-4.4895,-4.4895,-4.4895,-4.4895,-4.4895,-4.4895,-4.4895,-4.4895,-4.4895,-4.4895,-4.4895,-4.4895,-4.4895,-4.4895,-4.4819,-4.4459,-4.4194,-4.3929,-4.3853,-4.3549,-4.3322,-4.3019,-4.264,-4.2299,-4.2033,-4.1753,-4.1491,-4.2571,-4.2571,-4.2571,-4.2571,-4.2571,-4.2571,-4.2571,-4.2571,-4.2571,-4.2571,-4.2571,-4.2634,-4.2634,-4.2696,-4.2929,-4.3339,-4.3956,-4.3578,-4.403,-4.4657,-4.5214,-4.558,-4.602,-4.6637,-4.6998,-4.6998,-4.6998,-4.6998,-4.6998,-4.6998,-4.6998,-4.6676,-4.6159,-4.5392,-4.4571,-4.375,-4.309,-4.2537,-4.2287,-4.2287,-4.2287,-4.2287,-4.2287,-4.2287,-4.2287,-4.2287,-4.2287,-4.2287,-4.2287,-4.2287,-4.2287,-4.2287,-4.2287,-4.2287,-4.2287,-4.2287,-4.2287,-4.2287,-4.2287,-4.2287,-4.2287,-4.2287,-4.2287,-4.2287,-4.2328,-4.2369,-4.2591,-4.3142,-4.3542,-4.3912,-4.4336,-4.4655,-4.4802,-4.4895,-4.4895,-4.4895,-4.4852,-4.4827,-4.4802,-4.4802,-4.4827,-4.4852,-4.487,-4.4895,-4.4895,-4.4895,-4.4895,-4.4895,-4.4895,-4.4895,-4.4895,-4.4895,-4.4895,-4.4895,-4.4895,-4.4895,-4.4895,-4.4895,-4.4895,-4.4895,-4.4895,-4.4895,-4.48,-4.4743,-4.4743,-4.4516,-4.4554,-4.4516,-4.4156,-4.3739,-4.3246,-4.2924,-4.2791,-4.264,-4.2435,-4.2571,-4.2571,-4.2571,-4.2571,-4.2571,-4.2571,-4.2571,-4.2571,-4.2571,-4.2571,-4.2571,-4.2634,-4.2634,-4.2696,-4.2929,-4.3157,-4.3279,-4.3535,-4.3654,-4.403,-4.4821,-4.532,-4.5477,-4.6507,-4.6934,-4.6998,-4.6998,-4.6998,-4.6998,-4.6998,-4.6998,-4.6819,-4.6266,-4.5445,-4.4785,-4.4071,-4.3108,-4.2465,-4.2305,-4.2287,-4.2287,-4.2287,-4.2287,-4.2287,-4.2287,-4.2287,-4.2287,-4.2287,-4.2287,-4.2287,-4.2287,-4.2287,-4.2287,-4.2287,-4.2287,-4.2287,-4.2287,-4.2287,-4.2287,-4.2287,-4.2287,-4.2287,-4.2287,-4.2287,-4.2328,-4.2387,-4.2508,-4.2566,-4.3069,-4.3508,-4.3943,-4.4242,-4.4557,-4.4751,-4.4802,-4.487,-4.487,-4.4802,-4.4777,-4.4758,-4.4783,-4.4827,-4.4827,-4.487,-4.4895,-4.4895,-4.4895,-4.4895,-4.4895,-4.4895,-4.4895,-4.4895,-4.4895,-4.4895,-4.4895,-4.4895,-4.4895,-4.4895,-4.4895,-4.4895,-4.4895,-4.4895,-4.4895,-4.4857,-4.4895,-4.4895,-4.4781,-4.4724,-4.4724,-4.4497,-4.4061,-4.3815,-4.3644,-4.3493,-4.3322,-4.2571,-4.2571,-4.2571,-4.2571,-4.2571,-4.2571,-4.2571,-4.2571,-4.2571,-4.2571,-4.2571,-4.2571,-4.2634,-4.2759,-4.299,-4.3174,-4.3312,-4.3492,-4.3568,-4.3772,-4.4674,-4.525,-4.5511,-4.6346,-4.6998,-4.6934,-4.6998,-4.6998,-4.6998,-4.6998,-4.6998,-4.6926,-4.6623,-4.6123,-4.5195,-4.45,-4.3768,-4.309,-4.259,-4.2305,-4.2287,-4.2287,-4.2287,-4.2287,-4.2287,-4.2287,-4.2287,-4.2287,-4.2287,-4.2287,-4.2287,-4.2287,-4.2287,-4.2287,-4.2287,-4.2287,-4.2287,-4.2287,-4.2287,-4.2287,-4.2287,-4.2287,-4.2287,-4.2287,-4.2346,-4.2346,-4.245,-4.2631,-4.2958,-4.3301,-4.3557,-4.3912,-4.4213,-4.4457,-4.4584,-4.4732,-4.4777,-4.4802,-4.4758,-4.4758,-4.4758,-4.4777,-4.4802,-4.487,-4.4895,-4.4895,-4.4895,-4.4895,-4.4895,-4.4895,-4.4895,-4.4895,-4.4895,-4.4895,-4.4895,-4.4895,-4.4895,-4.4895,-4.4895,-4.4895,-4.4895,-4.4895,-4.4895,-4.4895,-4.4895,-4.4895,-4.4895,-4.4876,-4.4819,-4.4838,-4.4876,-4.4554,-4.4251,-4.4345,-4.4099,-4.2571,-4.2571,-4.2571,-4.2571,-4.2571,-4.2571,-4.2571,-4.2571,-4.2571,-4.2571,-4.2571,-4.2634,-4.2696,-4.2837,-4.2961,-4.3129,-4.3251,-4.3432,-4.3611,-4.403,-4.4618,-4.5214,-4.5631,-4.6381,-4.6778,-4.6778,-4.6731,-4.6795,-4.6842,-4.6888,-4.6888,-4.6998,-4.6908,-4.6462,-4.5766,-4.491,-4.4053,-4.3019,-4.2537,-4.2323,-4.2287,-4.2287,-4.2287,-4.2287,-4.2287,-4.2287,-4.2287,-4.2287,-4.2287,-4.2287,-4.2287,-4.2287,-4.2287,-4.2287,-4.2287,-4.2287,-4.2287,-4.2287,-4.2287,-4.2287,-4.2287,-4.2287,-4.2287,-4.2287,-4.2287,-4.2287,-4.2351,-4.2534,-4.2768,-4.3032,-4.3283,-4.359,-4.3849,-4.4065,-4.4242,-4.443,-4.4538,-4.4457,-4.4484,-4.4584,-4.4584,-4.47,-4.4751,-4.487,-4.4895,-4.4895,-4.4895,-4.4895,-4.4895,-4.4895,-4.4895,-4.4895,-4.4895,-4.4895,-4.4895,-4.4895,-4.4895,-4.4895,-4.4895,-4.4895,-4.4895,-4.4895,-4.4895,-4.4895,-4.4895,-4.4895,-4.4895,-4.4895,-4.4895,-4.4895,-4.4895,-4.4895,-4.4819,-4.4895,-4.48,-4.2571,-4.2571,-4.2571,-4.2571,-4.2571,-4.2571,-4.2571,-4.2571,-4.2571,-4.2571,-4.2571,-4.2634,-4.2634,-4.2713,-4.2837,-4.2978,-4.2978,-4.3052,-4.3519,-4.403,-4.458,-4.5125,-4.5615,-4.6087,-4.6332,-4.6332,-4.6381,-4.6495,-4.659,-4.6684,-4.6795,-4.6952,-4.6998,-4.648,-4.5838,-4.5071,-4.3857,-4.2876,-4.2341,-4.2305,-4.2287,-4.2287,-4.2287,-4.2287,-4.2287,-4.2287,-4.2287,-4.2287,-4.2287,-4.2287,-4.2287,-4.2287,-4.2287,-4.2287,-4.2287,-4.2287,-4.2287,-4.2287,-4.2287,-4.2287,-4.2287,-4.2287,-4.2287,-4.2287,-4.2287,-4.2287,-4.2328,-4.2369,-4.2588,-4.2709,-4.2976,-4.3195,-4.3474,-4.3689,-4.3862,-4.4035,-4.4046,-4.3893,-4.3986,-4.4242,-4.443,-4.453,-4.47,-4.4802,-4.4895,-4.4895,-4.4895,-4.4895,-4.4895,-4.4895,-4.4895,-4.4895,-4.4895,-4.4895,-4.4895,-4.4895,-4.4895,-4.4895,-4.4895,-4.4895,-4.4895,-4.4895,-4.4895,-4.4895,-4.4895,-4.4895,-4.4895,-4.4895,-4.4895,-4.4895,-4.4895,-4.4895,-4.4895,-4.4895,-4.4895,-4.2571,-4.2571,-4.2571,-4.2571,-4.2571,-4.2571,-4.2571,-4.2571,-4.2571,-4.2571,-4.2571,-4.2571,-4.2571,-4.2634,-4.2775,-4.2916,-4.2916,-4.3052,-4.3459,-4.3972,-4.4485,-4.5035,-4.5529,-4.5938,-4.6235,-4.6186,-4.6186,-4.6235,-4.6332,-4.6477,-4.6637,-4.6795,-4.6934,-4.6873,-4.6248,-4.5195,-4.3804,-4.2715,-4.2287,-4.2287,-4.2287,-4.2287,-4.2287,-4.2287,-4.2287,-4.2287,-4.2287,-4.2287,-4.2287,-4.2287,-4.2287,-4.2287,-4.2287,-4.2287,-4.2287,-4.2287,-4.2287,-4.2287,-4.2287,-4.2287,-4.2287,-4.2287,-4.2287,-4.2287,-4.2287,-4.2287,-4.2287,-4.2346,-4.2422,-4.2588,-4.2552,-4.2768,-4.2976,-4.3266,-4.349,-4.3623,-4.3656,-4.3523,-4.3623,-4.3955,-4.4213,-4.4402,-4.4602,-4.4777,-4.4846,-4.4895,-4.4895,-4.4895,-4.4895,-4.4895,-4.4895,-4.4895,-4.4895,-4.4895,-4.4895,-4.4895,-4.4895,-4.4895,-4.4895,-4.4895,-4.4895,-4.4895,-4.4895,-4.4895,-4.4895,-4.4895,-4.4895,-4.4895,-4.4895,-4.4895,-4.4895,-4.4895,-4.4895,-4.4895,-4.4895,-4.2571,-4.2571,-4.2571,-4.2571,-4.2571,-4.2571,-4.2571,-4.2571,-4.2571,-4.2571,-4.2571,-4.2571,-4.2571,-4.2634,-4.2696,-4.2775,-4.2821,-4.2929,-4.3383,-4.3898,-4.4356,-4.491,-4.5407,-4.5752,-4.5905,-4.5955,-4.5938,-4.5938,-4.607,-4.6332,-4.6495,-4.6684,-4.6842,-4.6962,-4.6605,-4.541,-4.3857,-4.2662,-4.2287,-4.2287,-4.2287,-4.2287,-4.2287,-4.2287,-4.2287,-4.2287,-4.2287,-4.2287,-4.2287,-4.2287,-4.2287,-4.2287,-4.2287,-4.2287,-4.2287,-4.2287,-4.2287,-4.2287,-4.2287,-4.2287,-4.2287,-4.2287,-4.2287,-4.2287,-4.2287,-4.2287,-4.2287,-4.2287,-4.2405,-4.2405,-4.2287,-4.253,-4.267,-4.2958,-4.3087,-4.3232,-4.3371,-4.3336,-4.349,-4.3721,-4.3893,-4.4095,-4.453,-4.4726,-4.4802,-4.487,-4.4895,-4.4895,-4.4895,-4.4895,-4.4895,-4.4895,-4.4895,-4.4895,-4.4895,-4.4895,-4.4895,-4.4895,-4.4895,-4.4895,-4.4895,-4.4895,-4.4895,-4.4895,-4.4895,-4.4895,-4.4895,-4.4895,-4.4895,-4.4895,-4.4895,-4.4895,-4.4895,-4.4895,-4.4895,-4.2571,-4.2571,-4.2571,-4.2571,-4.2571,-4.2571,-4.2571,-4.2571,-4.2571,-4.2571,-4.2571,-4.2571,-4.2571,-4.2634,-4.2634,-4.2634,-4.2634,-4.268,-4.3125,-4.3939,-4.4128,-4.4729,-4.5249,-4.5546,-4.5581,-4.5476,-4.5511,-4.5649,-4.5786,-4.6137,-4.6332,-4.659,-4.6842,-4.6908,-4.6801,-4.541,-4.3839,-4.2537,-4.2394,-4.2287,-4.2287,-4.2287,-4.2287,-4.2287,-4.2287,-4.2287,-4.2287,-4.2287,-4.2287,-4.2287,-4.2287,-4.2287,-4.2287,-4.2287,-4.2287,-4.2287,-4.2287,-4.2287,-4.2287,-4.2287,-4.2287,-4.2287,-4.2287,-4.2287,-4.2287,-4.2287,-4.2287,-4.2287,-4.2328,-4.2328,-4.2328,-4.2387,-4.253,-4.2688,-4.2804,-4.2938,-4.3087,-4.3142,-4.3301,-4.344,-4.349,-4.3638,-4.4213,-4.4629,-4.4777,-4.4852,-4.4895,-4.4895,-4.4895,-4.4895,-4.4895,-4.4895,-4.4895,-4.4895,-4.4895,-4.4895,-4.4895,-4.4895,-4.4895,-4.4895,-4.4895,-4.4895,-4.4895,-4.4895,-4.4895,-4.4895,-4.4895,-4.4895,-4.4895,-4.4895,-4.4895,-4.4895,-4.4895,-4.4895,-4.4895,-4.2571,-4.2571,-4.2571,-4.2571,-4.2571,-4.2571,-4.2571,-4.2571,-4.2571,-4.2571,-4.2571,-4.2571,-4.2571,-4.2571,-4.2571,-4.2571,-4.2571,-4.2634,-4.3141,-4.3588,-4.3839,-4.4412,-4.4944,-4.523,-4.5318,-4.5371,-4.5423,-4.5406,-4.5546,-4.5938,-4.6186,-4.6398,-4.6742,-4.6676,-4.6088,-4.5071,-4.4036,-4.3161,-4.2662,-4.2287,-4.2287,-4.2287,-4.2287,-4.2287,-4.2287,-4.2287,-4.2287,-4.2287,-4.2287,-4.2287,-4.2287,-4.2287,-4.2287,-4.2287,-4.2287,-4.2287,-4.2287,-4.2287,-4.2287,-4.2287,-4.2287,-4.2287,-4.2287,-4.2287,-4.2287,-4.2287,-4.2287,-4.2287,-4.2287,-4.2287,-4.2328,-4.2328,-4.245,-4.257,-4.2727,-4.2786,-4.292,-4.2957,-4.3032,-4.316,-4.3249,-4.3523,-4.4004,-4.4346,-4.4557,-4.4707,-4.4732,-4.487,-4.4895,-4.4895,-4.4895,-4.4895,-4.4895,-4.4895,-4.4895,-4.4895,-4.4895,-4.4895,-4.4895,-4.4895,-4.4895,-4.4895,-4.4895,-4.4895,-4.4895,-4.4895,-4.4895,-4.4895,-4.4895,-4.4895,-4.4895,-4.4895,-4.4895,-4.4895,-4.4895,-4.2571,-4.2571,-4.2571,-4.2571,-4.2571,-4.2571,-4.2571,-4.2571,-4.2571,-4.2571,-4.2571,-4.2571,-4.2571,-4.2571,-4.2571,-4.2571,-4.2571,-4.2634,-4.2851,-4.3306,-4.3604,-4.4013,-4.4429,-4.478,-4.478,-4.4961,-4.5123,-4.5177,-4.5177,-4.5887,-4.6284,-4.659,-4.6778,-4.672,-4.6105,-4.5302,-4.4232,-4.3411,-4.2769,-4.2287,-4.2287,-4.2287,-4.2287,-4.2287,-4.2287,-4.2287,-4.2287,-4.2287,-4.2287,-4.2287,-4.2287,-4.2287,-4.2287,-4.2287,-4.2287,-4.2287,-4.2287,-4.2287,-4.2287,-4.2287,-4.2287,-4.2287,-4.2287,-4.2287,-4.2287,-4.2287,-4.2287,-4.2287,-4.2287,-4.2287,-4.2287,-4.2287,-4.2369,-4.253,-4.2649,-4.2709,-4.2862,-4.29,-4.2938,-4.2995,-4.3087,-4.3406,-4.3689,-4.3986,-4.427,-4.4411,-4.4584,-4.4707,-4.487,-4.4895,-4.4895,-4.4895,-4.4895,-4.4895,-4.4895,-4.4895,-4.4895,-4.4895,-4.4895,-4.4895,-4.4895,-4.4895,-4.4895,-4.4895,-4.4895,-4.4895,-4.4895,-4.4895,-4.4895,-4.4895,-4.4895,-4.4895,-4.4895,-4.4895,-4.4895,-4.2571,-4.2571,-4.2571,-4.2571,-4.2571,-4.2571,-4.2571,-4.2571,-4.2571,-4.2571,-4.2571,-4.2571,-4.2571,-4.2571,-4.2571,-4.2571,-4.2571,-4.2571,-4.2867,-4.3141,-4.3366,-4.3663,-4.3898,-4.4088,-4.4259,-4.4316,-4.4485,-4.4889,-4.4872,-4.5717,-4.6429,-4.6824,-4.6934,-4.6873,-4.6391,-4.557,-4.4517,-4.375,-4.2804,-4.2394,-4.2287,-4.2287,-4.2287,-4.2287,-4.2287,-4.2287,-4.2287,-4.2287,-4.2287,-4.2287,-4.2287,-4.2287,-4.2287,-4.2287,-4.2287,-4.2287,-4.2287,-4.2287,-4.2287,-4.2287,-4.2287,-4.2287,-4.2287,-4.2287,-4.2287,-4.2287,-4.2287,-4.2287,-4.2287,-4.2287,-4.2287,-4.2328,-4.2369,-4.249,-4.2609,-4.2709,-4.2862,-4.29,-4.29,-4.2938,-4.2938,-4.3124,-4.3371,-4.3638,-4.3955,-4.4076,-4.427,-4.4511,-4.4681,-4.4889,-4.4895,-4.4895,-4.4895,-4.4895,-4.4895,-4.4895,-4.4895,-4.4895,-4.4895,-4.4895,-4.4895,-4.4895,-4.4895,-4.4895,-4.4895,-4.4895,-4.4895,-4.4895,-4.4895,-4.4895,-4.4895,-4.4895,-4.4895,-4.4895,-4.4895,-4.2571,-4.2571,-4.2571,-4.2571,-4.2571,-4.2571,-4.2571,-4.2571,-4.2571,-4.2571,-4.2571,-4.2571,-4.2571,-4.2571,-4.2571,-4.2571,-4.2571,-4.2634,-4.2696,-4.2851,-4.3141,-4.3306,-4.3545,-4.3739,-4.3914,-4.4145,-4.4373,-4.4708,-4.4927,-4.5717,-4.6477,-4.6888,-4.698,-4.698,-4.6641,-4.5963,-4.5088,-4.4161,-4.3054,-4.2501,-4.2305,-4.2287,-4.2287,-4.2287,-4.2287,-4.2287,-4.2287,-4.2287,-4.2287,-4.2287,-4.2287,-4.2287,-4.2287,-4.2287,-4.2287,-4.2287,-4.2287,-4.2287,-4.2287,-4.2287,-4.2287,-4.2287,-4.2287,-4.2287,-4.2287,-4.2287,-4.2287,-4.2287,-4.2287,-4.2287,-4.2287,-4.2328,-4.2409,-4.253,-4.2609,-4.2709,-4.2824,-4.29,-4.29,-4.29,-4.29,-4.2957,-4.3178,-4.3336,-4.359,-4.3703,-4.3924,-4.4184,-4.4476,-4.4681,-4.487,-4.4895,-4.4895,-4.4895,-4.4895,-4.4895,-4.4895,-4.4895,-4.4895,-4.4895,-4.4895,-4.4895,-4.4895,-4.4895,-4.4895,-4.4895,-4.4895,-4.4895,-4.4895,-4.4895,-4.4895,-4.4895,-4.4895,-4.4895,-4.4895,-4.2571,-4.2571,-4.2571,-4.2571,-4.2571,-4.2571,-4.2571,-4.2571,-4.2571,-4.2571,-4.2571,-4.2571,-4.2571,-4.2571,-4.2571,-4.2571,-4.2571,-4.2571,-4.2634,-4.268,-4.2912,-4.2974,-4.3157,-4.3323,-4.3486,-4.3781,-4.4186,-4.4485,-4.4927,-4.5666,-4.6447,-4.6795,-4.6934,-4.698,-4.673,-4.6177,-4.5606,-4.4696,-4.375,-4.2804,-4.243,-4.2305,-4.2287,-4.2287,-4.2287,-4.2287,-4.2287,-4.2287,-4.2287,-4.2287,-4.2287,-4.2287,-4.2287,-4.2287,-4.2287,-4.2287,-4.2287,-4.2287,-4.2287,-4.2287,-4.2287,-4.2287,-4.2287,-4.2287,-4.2287,-4.2287,-4.2287,-4.2287,-4.2287,-4.2287,-4.2287,-4.2328,-4.245,-4.257,-4.2631,-4.2709,-4.2786,-4.29,-4.29,-4.29,-4.29,-4.29,-4.2995,-4.316,-4.3284,-4.3456,-4.3656,-4.3831,-4.4154,-4.443,-4.4726,-4.487,-4.4895,-4.4895,-4.4895,-4.4895,-4.4895,-4.4895,-4.4895,-4.4895,-4.4895,-4.4895,-4.4895,-4.4895,-4.4895,-4.4895,-4.4895,-4.4895,-4.4895,-4.4895,-4.4895,-4.4895,-4.4895,-4.4895,-4.4895,-4.2571,-4.2571,-4.2571,-4.2571,-4.2571,-4.2571,-4.2571,-4.2571,-4.2571,-4.2571,-4.2571,-4.2571,-4.2571,-4.2571,-4.2571,-4.2571,-4.2571,-4.2571,-4.2571,-4.2571,-4.2696,-4.268,-4.2696,-4.2634,-4.2974,-4.3323,-4.3839,-4.4412,-4.5018,-4.57,-4.6332,-4.6607,-4.6888,-4.6998,-4.6873,-4.6427,-4.5927,-4.5392,-4.4464,-4.3536,-4.268,-4.2394,-4.2287,-4.2287,-4.2287,-4.2287,-4.2287,-4.2287,-4.2287,-4.2287,-4.2287,-4.2287,-4.2287,-4.2287,-4.2287,-4.2287,-4.2287,-4.2287,-4.2287,-4.2287,-4.2287,-4.2287,-4.2287,-4.2287,-4.2287,-4.2287,-4.2287,-4.2287,-4.2287,-4.2287,-4.2287,-4.2328,-4.2409,-4.253,-4.2609,-4.2688,-4.2804,-4.2862,-4.29,-4.29,-4.29,-4.29,-4.2938,-4.3069,-4.3087,-4.3284,-4.3371,-4.3523,-4.3767,-4.4125,-4.443,-4.4726,-4.487,-4.487,-4.4895,-4.4895,-4.4895,-4.4895,-4.4895,-4.4895,-4.4895,-4.4895,-4.4895,-4.4895,-4.4895,-4.4895,-4.4895,-4.4895,-4.4895,-4.4895,-4.4895,-4.4895,-4.4895,-4.4895,-4.4895,-4.2571,-4.2571,-4.2571,-4.2571,-4.2571,-4.2571,-4.2571,-4.2571,-4.2571,-4.2571,-4.2571,-4.2571,-4.2571,-4.2571,-4.2571,-4.2571,-4.2571,-4.2571,-4.2571,-4.2571,-4.2571,-4.2571,-4.2571,-4.2634,-4.2743,-4.299,-4.3621,-4.4468,-4.5161,-4.5802,-4.6284,-4.659,-4.6778,-4.687,-4.698,-4.6605,-4.6373,-4.5945,-4.5338,-4.4375,-4.3465,-4.2662,-4.2287,-4.2287,-4.2287,-4.2287,-4.2287,-4.2287,-4.2287,-4.2287,-4.2287,-4.2287,-4.2287,-4.2287,-4.2287,-4.2287,-4.2287,-4.2287,-4.2287,-4.2287,-4.2287,-4.2287,-4.2287,-4.2287,-4.2287,-4.2287,-4.2287,-4.2287,-4.2287,-4.2287,-4.2287,-4.2328,-4.2328,-4.2468,-4.2588,-4.2706,-4.2804,-4.288,-4.29,-4.29,-4.29,-4.29,-4.29,-4.2938,-4.2957,-4.2995,-4.2995,-4.3105,-4.3371,-4.3689,-4.4004,-4.4346,-4.4777,-4.4846,-4.487,-4.4895,-4.4895,-4.4895,-4.4895,-4.4895,-4.4895,-4.4895,-4.4895,-4.4895,-4.4895,-4.4895,-4.4895,-4.4895,-4.4895,-4.4895,-4.4895,-4.4895,-4.4895,-4.4895,-4.4895,-4.2571,-4.2571,-4.2571,-4.2571,-4.2571,-4.2571,-4.2571,-4.2571,-4.2571,-4.2571,-4.2571,-4.2571,-4.2571,-4.2571,-4.2571,-4.2571,-4.2571,-4.2571,-4.2571,-4.2571,-4.2571,-4.2571,-4.2571,-4.2634,-4.2805,-4.3035,-4.3604,-4.4395,-4.5054,-4.525,-4.5511,-4.6052,-4.6346,-4.6666,-4.687,-4.6944,-4.672,-4.6355,-4.5989,-4.5302,-4.4303,-4.35,-4.2626,-4.2483,-4.2287,-4.2287,-4.2287,-4.2287,-4.2287,-4.2287,-4.2287,-4.2287,-4.2287,-4.2287,-4.2287,-4.2287,-4.2287,-4.2287,-4.2287,-4.2287,-4.2287,-4.2287,-4.2287,-4.2287,-4.2287,-4.2287,-4.2287,-4.2287,-4.2287,-4.2287,-4.2287,-4.2328,-4.2387,-4.2486,-4.2588,-4.2688,-4.2804,-4.29,-4.29,-4.29,-4.29,-4.29,-4.29,-4.29,-4.2938,-4.2938,-4.2938,-4.29,-4.3124,-4.332,-4.3623,-4.3912,-4.4346,-4.461,-4.461,-4.4732,-4.4895,-4.4895,-4.487,-4.4895,-4.4895,-4.4895,-4.4895,-4.4895,-4.4895,-4.4895,-4.4895,-4.4895,-4.4895,-4.4895,-4.4895,-4.4895,-4.4895,-4.4895,-4.4895,-4.2571,-4.2571,-4.2571,-4.2571,-4.2571,-4.2571,-4.2571,-4.2571,-4.2571,-4.2571,-4.2571,-4.2571,-4.2571,-4.2571,-4.2571,-4.2571,-4.2571,-4.2571,-4.2571,-4.2571,-4.2571,-4.2571,-4.2571,-4.2634,-4.2851,-4.3202,-4.3663,-4.3898,-4.4243,-4.449,-4.4912,-4.5338,-4.5716,-4.6084,-4.6572,-4.6778,-4.656,-4.6447,-4.6209,-4.5891,-4.5151,-4.4357,-4.3322,-4.268,-4.2341,-4.2305,-4.2287,-4.2287,-4.2287,-4.2287,-4.2287,-4.2287,-4.2287,-4.2287,-4.2287,-4.2287,-4.2287,-4.2287,-4.2287,-4.2287,-4.2287,-4.2287,-4.2287,-4.2287,-4.2287,-4.2287,-4.2287,-4.2287,-4.2287,-4.2287,-4.2287,-4.2328,-4.2387,-4.2486,-4.257,-4.2688,-4.2804,-4.29,-4.29,-4.29,-4.29,-4.29,-4.29,-4.29,-4.29,-4.29,-4.29,-4.29,-4.2957,-4.3087,-4.3301,-4.3557,-4.3831,-4.4076,-4.4299,-4.4557,-4.4732,-4.4802,-4.4777,-4.4846,-4.4895,-4.4895,-4.4895,-4.4895,-4.4895,-4.4895,-4.4895,-4.4895,-4.4895,-4.4895,-4.4895,-4.4895,-4.4895,-4.4895,-4.4895,-4.2571,-4.2571,-4.2571,-4.2571,-4.2571,-4.2571,-4.2571,-4.2571,-4.2571,-4.2571,-4.2571,-4.2571,-4.2571,-4.2571,-4.2571,-4.2571,-4.2571,-4.2571,-4.2571,-4.2571,-4.2571,-4.2571,-4.2571,-4.2634,-4.2896,-4.3141,-4.3366,-4.3604,-4.368,-4.4095,-4.4418,-4.4623,-4.5091,-4.5303,-4.5425,-4.5683,-4.6035,-4.6209,-4.6395,-4.6105,-4.549,-4.4642,-4.3697,-4.3072,-4.2626,-4.243,-4.2287,-4.2287,-4.2287,-4.2287,-4.2287,-4.2287,-4.2287,-4.2287,-4.2287,-4.2287,-4.2287,-4.2287,-4.2287,-4.2287,-4.2287,-4.2287,-4.2287,-4.2287,-4.2287,-4.2287,-4.2287,-4.2287,-4.2287,-4.2287,-4.2287,-4.2287,-4.2346,-4.2409,-4.253,-4.2649,-4.2822,-4.288,-4.29,-4.29,-4.29,-4.29,-4.29,-4.29,-4.29,-4.29,-4.29,-4.29,-4.29,-4.2957,-4.3014,-4.3195,-4.3422,-4.3689,-4.3943,-4.427,-4.4484,-4.4584,-4.4726,-4.4827,-4.4895,-4.4895,-4.4895,-4.4895,-4.4895,-4.4895,-4.4895,-4.4895,-4.4895,-4.4895,-4.4895,-4.4895,-4.4895,-4.4895,-4.4895]}]]